[[[{"header":{"parameterUnit":"kt","parameterCategory":2,"dx":1,"dy":1,"la1":29.285339999999998,"la2":30.599998999999997,"lo1":-89.70041500000002,"lo2":-87.6738589999976,"nx":112,"ny":82,"refTime":"2022-10-31T18:00:00:Z","depth":0,"parameterNumber":1,"parameterNumberName":"U-component_of_WINDS"},"data":[8.4869,8.7914,8.8339,7.4942,7.2416,7.0428,5.9601,5.6187,5.5111,5.4393,5.4025,5.4276,5.5752,5.2134,4.8543,4.7454,4.5074,4.2487,0.0,3.9093,3.9459,4.1388,4.441,4.8652,5.4541,5.2331,5.4916,6.5555,6.4636,6.7205,7.5422,8.3307,8.7292,8.672,8.7957,8.7566,8.5433,8.2614,8.12,8.1232,8.1705,8.22,8.2662,8.3045,8.3371,8.3534,8.3123,8.2553,8.1626,7.9426,7.8074,7.7164,7.5004,7.4118,7.3921,7.3316,7.3119,7.314,7.3316,7.3746,7.4234,7.4366,7.4866,7.5537,7.6214,7.6409,7.6418,7.6544,7.6504,7.6441,7.6584,7.6513,7.6409,7.6409,7.6409,7.6409,7.6409,7.6409,7.6409,7.6409,7.6409,7.6409,7.6409,7.6409,7.6409,7.6409,7.6409,7.6409,7.6409,7.6409,7.6409,7.6409,7.6409,7.6409,7.6409,7.6409,7.6409,7.6409,7.6409,7.6409,7.6409,7.6409,7.6409,7.6409,7.6409,7.6409,7.6409,7.6409,7.6409,7.6409,7.6409,7.6409,7.8839,8.1849,8.2232,6.8272,6.5704,6.3876,5.3555,5.0157,4.8876,4.7788,4.906,4.9938,4.8483,4.763,4.6654,4.5161,4.4654,4.3732,0.0,4.0433,4.0756,4.3235,4.7798,5.2957,5.8705,5.7604,6.0491,7.006,6.9752,7.2429,8.0065,8.6857,8.9706,8.7905,8.8756,8.754,8.4061,8.2365,8.1177,8.0622,8.154,8.209,8.2358,8.299,8.3371,8.3589,8.3589,8.3154,8.2255,8.0209,7.8921,7.796,7.5155,7.4016,7.39,7.3433,7.3294,7.3257,7.2826,7.3023,7.3454,7.398,7.4598,7.5293,7.6157,7.6409,7.6409,7.6409,7.6409,7.6409,7.6409,7.6409,7.6409,7.6409,7.6409,7.6409,7.6409,7.6409,7.6409,7.6409,7.6409,7.6409,7.6409,7.6409,7.6409,7.6409,7.6409,7.6409,7.6409,7.6409,7.6409,7.6409,7.6409,7.6409,7.6409,7.6409,7.6409,7.6409,7.6409,7.6409,7.6409,7.6409,7.6409,7.6409,7.6409,7.6409,7.6409,7.6409,7.6409,7.6409,7.6409,7.6409,7.5384,7.3601,7.0491,5.7553,5.5332,5.4357,4.6774,4.8122,5.0102,4.7234,4.9076,5.0614,4.85,4.8048,4.7342,4.5219,4.593,0.0,0.0,4.2868,4.3501,4.6363,5.284,5.9187,6.4559,6.218,6.4436,7.4416,7.4263,7.8145,8.8264,9.3281,9.4369,9.1155,8.9848,8.6832,8.1856,8.1177,8.0622,8.0112,8.0622,8.1232,8.1856,8.2413,8.299,8.3589,8.3589,8.3589,8.3371,8.0932,7.993,7.9538,7.5962,7.454,7.454,7.4482,7.4424,7.4249,7.3119,7.2708,7.2906,7.4234,7.4663,7.4896,7.6064,7.6409,7.6409,7.6409,7.6409,7.6409,7.6409,7.6409,7.6409,7.6409,7.6409,7.6409,7.6409,7.6409,7.6409,7.6409,7.6409,7.6409,7.6409,7.6409,7.6409,7.6409,7.6409,7.6409,7.6409,7.6409,7.6409,7.6409,7.6409,7.6409,7.6409,7.6409,7.6409,7.6409,7.6409,7.6409,7.6409,7.6409,7.6409,7.6409,7.6409,7.6409,7.6409,7.6409,7.6409,7.6409,7.6409,7.6409,6.2956,6.5432,6.6606,5.8169,5.8028,5.7984,5.0194,4.7483,4.6613,4.6672,4.616,0.0,0.0,0.0,4.4004,4.4168,0.0,4.8305,4.5457,4.9205,5.5294,6.3407,6.4038,6.7336,7.6204,7.266,7.4308,8.5245,8.1827,8.2058,8.8351,9.2864,9.3241,8.8785,8.9018,8.6597,8.1153,8.1422,8.1113,8.0112,8.0622,8.1232,8.1856,8.2413,8.299,8.3589,8.3589,8.3589,8.3426,8.1429,8.0297,7.965,7.7347,7.6685,7.6936,7.5119,7.4424,7.4249,7.3119,7.2708,7.2906,7.4234,7.4663,7.4896,7.6064,7.6409,7.6409,7.6409,7.6409,7.6409,7.6409,7.6409,7.6409,7.6409,7.6409,7.6409,7.6409,7.6409,7.6409,7.6409,7.6409,7.6409,7.6409,7.6409,7.6409,7.6409,7.6409,7.6409,7.6409,7.6409,7.6409,7.6409,7.6409,7.6409,7.6409,7.6409,7.6409,7.6409,7.6409,7.6409,7.6409,7.6409,7.6409,7.6409,7.6409,7.6409,7.6409,7.6409,7.6409,7.6409,7.6409,7.6409,5.823,6.029,6.1785,5.5989,5.6669,5.6779,4.9423,4.733,4.6898,4.6685,0.0,0.0,0.0,0.0,0.0,0.0,4.9599,5.2708,5.22,5.6263,6.1682,6.8233,7.093,7.4135,7.8869,7.7775,8.0985,9.1263,8.714,8.6236,9.1055,9.2795,9.1909,8.8112,8.7696,8.538,8.0908,8.1232,8.0979,8.0112,8.0622,8.1042,8.1477,8.2224,8.2826,8.3208,8.348,8.3589,8.348,8.2145,8.1264,8.0566,7.9235,7.8503,7.7904,7.5984,7.4888,7.4249,7.3119,7.2708,7.2826,7.3571,7.4176,7.4837,7.5697,7.6157,7.6409,7.6409,7.6409,7.6409,7.6409,7.6409,7.6409,7.6409,7.6409,7.6409,7.6409,7.6409,7.6409,7.6409,7.6409,7.6409,7.6409,7.6409,7.6409,7.6409,7.6409,7.6409,7.6409,7.6409,7.6409,7.6409,7.6409,7.6409,7.6409,7.6409,7.6409,7.6409,7.6409,7.6409,7.6409,7.6409,7.6409,7.6409,7.6409,7.6409,7.6409,7.6409,7.7257,7.8841,7.7167,7.6409,5.7194,5.6439,5.6114,5.2247,5.2599,5.2467,4.6894,0.0,5.0361,4.904,0.0,5.0037,5.0443,0.0,0.0,4.9682,5.4256,5.8889,6.1574,6.4354,6.6722,6.8445,7.6292,8.0543,7.7867,8.0568,8.5739,9.3681,9.0805,9.0509,9.4725,9.3105,9.0928,8.8397,8.6439,8.3958,8.0932,8.0876,8.0622,8.0112,8.0566,8.0821,8.0932,8.1925,8.2443,8.2553,8.3154,8.3396,8.3317,8.2772,8.2193,8.1666,8.1121,7.9818,7.821,7.7016,7.5754,7.4482,7.3294,7.2826,7.2708,7.2708,7.3513,7.4642,7.5155,7.5847,7.6409,7.6409,7.6409,7.6409,7.6409,7.6409,7.6409,7.6409,7.6409,7.6409,7.6409,7.6409,7.6409,7.6409,7.6409,7.6543,7.6989,7.7078,7.6922,7.6476,7.6788,7.7078,7.7078,7.6677,7.6409,7.6409,7.6409,7.6587,7.7034,7.6654,7.6409,7.6409,7.6409,7.6409,7.6409,7.6409,7.661,7.7056,7.7078,7.6855,7.6409,7.6855,7.8804,8.2149,7.8648,7.7078,4.9884,4.9167,4.956,4.9604,4.8291,4.7557,0.0,0.0,0.0,6.1173,6.4859,6.6361,6.2897,6.1758,6.1578,6.2221,6.535,6.7672,6.7645,7.5682,8.2853,8.6318,8.8355,8.9349,8.8746,8.9292,9.0969,9.4053,9.3916,9.3901,9.4407,9.4044,9.1986,8.7956,8.7382,8.5138,8.0908,8.0876,8.0622,8.0112,8.0168,8.0455,8.0876,8.1098,8.1508,8.1997,8.2107,8.2162,8.2162,8.2052,8.1643,8.1042,8.0932,8.04,7.9585,7.8266,7.7073,7.5812,7.454,7.3491,7.2708,7.2708,7.3199,7.398,7.4583,7.5546,7.6409,7.6409,7.6409,7.6409,7.6409,7.6409,7.6409,7.6409,7.6409,7.6409,7.6409,7.6409,7.6409,7.6409,7.6409,7.7413,8.0544,8.1101,8.0008,7.6877,7.9072,8.1101,8.1101,7.8314,7.6409,7.6409,7.6409,7.7703,8.0833,7.818,7.6409,7.6409,7.6409,7.6409,7.6409,7.6409,7.7845,8.1034,8.1101,7.9518,7.6409,7.954,8.148,8.2216,8.1458,8.1101,4.732,4.686,4.7285,4.6625,4.6537,0.0,0.0,5.0642,5.5299,6.2554,6.5443,6.7528,7.0432,7.0757,7.0615,7.0684,7.2942,7.6064,7.9771,8.5245,8.8836,8.8836,9.0552,9.1762,9.1762,9.226,9.3077,9.4212,9.4511,9.4191,9.3056,9.1381,8.9119,8.6117,8.4867,8.3056,8.0511,8.071,8.0622,8.0112,8.0112,8.02,8.0455,8.0765,8.1042,8.1343,8.1722,8.1856,8.1856,8.1856,8.128,8.0455,8.0455,7.9897,7.9,7.8356,7.7415,7.6272,7.5639,7.5062,7.4482,7.3762,7.3783,7.4155,7.4547,7.5069,7.5772,7.6873,7.7181,7.7315,7.7748,7.8127,7.8373,7.8373,7.8804,7.9295,7.9295,7.9295,7.9295,7.9295,7.9295,7.9919,8.1904,8.2238,8.1569,7.9585,8.0967,8.2238,8.2238,8.0499,7.9295,7.9295,7.9295,8.0098,8.206,8.0432,7.9295,7.9295,7.9295,7.9295,7.9295,7.9295,8.0231,8.2194,8.2238,8.1279,7.9295,8.1279,8.2238,8.2238,8.2238,8.2238,4.587,4.5682,4.5992,4.4572,4.5525,0.0,4.6643,4.9834,5.5447,6.4611,6.7797,7.115,7.8311,7.9813,7.9718,7.9012,8.0183,8.3695,9.1068,9.192,9.0601,8.745,9.0033,9.2069,9.2069,9.2915,9.3685,9.4072,9.412,9.333,9.1558,8.8836,8.6411,8.4404,8.2559,8.1177,8.0446,8.0733,8.0654,8.0256,8.0168,8.0112,8.0112,8.0511,8.071,8.071,8.128,8.1501,8.1501,8.1501,8.0947,8.0112,8.0112,7.9473,7.8549,7.8549,7.7756,7.673,7.673,7.6558,7.6214,7.5177,7.483,7.483,7.4932,7.499,7.5339,7.7136,7.7784,7.8141,7.9087,7.9674,8.012,8.0231,8.1279,8.2238,8.2238,8.2238,8.2238,8.2238,8.2238,8.2238,8.2238,8.2238,8.2238,8.2238,8.2238,8.2238,8.2238,8.2238,8.2238,8.2238,8.2238,8.2238,8.2238,8.2238,8.2238,8.2238,8.2238,8.2238,8.2238,8.2238,8.2238,8.2238,8.2238,8.2238,8.2238,8.2238,8.2238,8.2238,8.2238,8.2238,4.2629,4.2349,4.2982,4.5384,4.3873,0.0,5.3291,6.2697,7.1552,7.891,8.9244,9.583,9.1938,9.1285,9.1285,9.1155,8.9637,8.9957,9.4208,9.3068,9.1611,9.1157,9.2414,9.3297,9.3297,9.3406,9.3537,9.3587,9.3587,9.2615,9.0499,9.0042,8.8112,8.4512,8.4135,8.3238,8.1666,8.1121,8.0876,8.0765,8.0312,8.0112,8.0112,8.0168,8.0168,8.0168,8.0223,8.0279,8.0279,8.0279,8.0223,8.0112,8.0112,8.0,7.9888,7.9888,7.9056,7.796,7.796,7.7244,7.6351,7.6214,7.6179,7.6179,7.6179,7.6179,7.6259,7.6463,7.7248,7.8141,7.9087,7.9339,7.954,8.0142,8.1279,8.2238,8.2238,8.2238,8.2238,8.2238,8.2238,8.2238,8.2238,8.2238,8.2238,8.2238,8.2238,8.2238,8.2238,8.2238,8.2238,8.2238,8.2238,8.2238,8.2238,8.2238,8.2238,8.2238,8.2238,8.2238,8.2238,8.2238,8.2238,8.2238,8.2238,8.2238,8.2238,8.2238,8.2238,8.2238,8.2238,8.2238,4.1575,4.1762,4.2631,4.3715,0.0,0.0,5.2005,6.0131,6.8351,7.509,8.5192,9.2927,9.3071,9.5532,9.7529,9.7529,9.5539,9.4579,9.6194,9.4302,9.2751,9.2751,9.3215,9.3488,9.3488,9.3488,9.3488,9.3488,9.1443,9.0789,9.2089,8.9607,8.6542,8.299,8.2505,8.1815,8.0836,8.12,8.1232,8.0876,8.0654,8.0511,8.0511,8.02,8.0112,8.0112,8.0112,8.0112,8.0112,8.0112,8.0112,8.0112,8.0112,8.0112,8.0112,8.0112,7.9753,7.9281,7.9281,7.8967,7.8402,7.7642,7.7699,7.7904,7.7506,7.7677,7.8017,7.8288,7.8998,7.9952,8.077,8.099,8.1079,8.1346,8.1837,8.2238,8.2238,8.2238,8.2238,8.2238,8.2238,8.2238,8.2238,8.2238,8.2238,8.2238,8.2238,8.2238,8.2238,8.2238,8.2238,8.2238,8.2238,8.2238,8.2238,8.2238,8.2238,8.2238,8.2238,8.2238,8.2238,8.2238,8.2238,8.2238,8.2238,8.2238,8.2238,8.2238,8.2238,8.2238,8.2238,8.2238,4.1506,0.0,0.0,0.0,0.0,0.0,5.2618,6.0318,6.827,7.385,8.331,9.1532,9.4628,9.817,10.0665,10.0665,9.9101,9.7754,9.7245,9.549,9.4068,9.3543,9.3488,9.3488,9.3488,9.3488,9.3488,9.3488,9.0984,9.0602,9.3335,8.9786,8.6067,8.2632,8.1619,8.0979,8.0558,8.12,8.1366,8.0876,8.071,8.0654,8.0622,8.0256,8.0112,8.0112,8.0112,8.0279,8.0558,8.0367,8.0312,8.0312,8.0312,8.02,8.0112,8.0112,8.0112,8.0112,8.0112,8.0112,7.9944,7.8944,7.9089,7.9529,7.921,7.9505,8.0109,8.0558,8.1363,8.2158,8.2313,8.2284,8.2238,8.2238,8.2238,8.2238,8.2238,8.2586,8.2833,8.23,8.2238,8.2238,8.2238,8.2238,8.2238,8.2238,8.2238,8.2238,8.2238,8.2238,8.2238,8.2238,8.2238,8.2238,8.2238,8.2238,8.2238,8.2238,8.2238,8.2238,8.2238,8.2238,8.2238,8.2238,8.2238,8.2238,8.2238,8.2238,8.2238,8.2238,8.2238,8.2238,0.0,0.0,0.0,4.8426,4.9431,5.1189,5.8335,6.8975,7.8284,8.1634,9.1858,10.0339,10.0423,10.0611,10.0665,10.0665,10.0126,9.9073,9.7432,9.6554,9.5495,9.3723,9.3488,9.3488,9.3488,9.3488,9.3488,9.3488,9.3412,9.3362,9.3488,9.131,8.8319,8.4404,8.2687,8.1777,8.1777,8.1177,8.0852,8.0876,8.0367,8.0112,8.0112,8.0112,8.0112,8.0112,8.0112,8.0725,8.1746,8.1121,8.0876,8.0876,8.0876,8.0511,8.0112,8.0112,8.0112,8.0112,8.0112,8.0112,8.0112,8.0056,8.04,8.0898,8.1395,8.1903,8.2408,8.2928,8.3831,8.4401,8.3102,8.2502,8.2238,8.2238,8.2238,8.2238,8.2238,8.3631,8.4341,8.2609,8.2238,8.2238,8.2238,8.2238,8.2238,8.2238,8.2238,8.2238,8.2238,8.2238,8.2238,8.2238,8.2238,8.2238,8.2238,8.2238,8.2238,8.2238,8.2238,8.2238,8.2238,8.2238,8.2238,8.2238,8.2238,8.2238,8.2238,8.2238,8.2238,8.2238,8.2238,8.2238,4.7801,4.7628,4.8878,5.8471,5.7745,5.728,6.7259,7.5485,8.1256,8.2262,9.2226,9.9671,9.6249,9.8384,10.0665,10.0665,9.984,9.9013,9.8448,9.6721,9.5326,9.4744,9.3979,9.3488,9.3488,9.3488,9.3488,9.3488,9.1137,9.0831,9.3362,8.7826,8.5233,8.6542,8.351,8.1856,8.1856,8.1949,8.2035,8.2035,8.1839,8.1587,8.1224,8.0789,8.0622,8.0622,8.0256,8.0725,8.1777,8.1121,8.0876,8.0821,8.0455,8.0256,8.0112,8.0112,8.0112,8.0112,8.0112,8.0112,8.0112,8.0112,8.0725,8.1691,8.2514,8.3473,8.437,8.5199,8.567,8.5745,8.5157,8.4914,8.4804,8.4804,8.4804,8.4561,8.373,8.4683,8.5531,8.4925,8.4804,8.4257,8.2525,8.2238,8.2238,8.2238,8.2238,8.2238,8.2238,8.2238,8.2238,8.2238,8.2238,8.2238,8.2238,8.2238,8.2238,8.2238,8.2238,8.2238,8.2238,8.2238,8.2238,8.2238,8.2238,8.2238,8.2238,8.2238,8.2238,8.2238,8.2238,8.2238,5.1498,5.2104,5.366,6.4828,6.4182,6.3281,7.2647,7.8888,8.3072,8.4698,9.3408,9.9671,9.6435,9.814,10.0227,10.0583,9.9509,9.8761,9.9147,9.7453,9.6056,9.5645,9.4707,9.3979,9.3543,9.3488,9.3488,9.3488,9.1214,9.0609,9.2239,8.7544,8.5364,8.6437,8.4027,8.2358,8.1477,8.1839,8.2114,8.2358,8.2358,8.2138,8.1832,8.1422,8.1232,8.1177,8.0868,8.139,8.2437,8.1784,8.1485,8.1485,8.1121,8.0868,8.0669,8.0479,8.0367,8.0367,8.0168,8.0112,8.0112,8.0312,8.1295,8.2597,8.3929,8.5238,8.6513,8.7483,8.7756,8.7608,8.6962,8.6829,8.671,8.623,8.611,8.5989,8.5628,8.623,8.6769,8.6613,8.6613,8.6253,8.5191,8.5009,8.5009,8.5009,8.3447,8.2238,8.2238,8.2238,8.2238,8.2238,8.2238,8.2238,8.2238,8.2238,8.2238,8.2238,8.2238,8.2238,8.2238,8.2238,8.2238,8.2238,8.2238,8.2238,8.2238,8.2238,8.2238,8.2238,8.2238,8.2238,5.3572,5.6208,5.8405,6.8059,6.8933,6.9026,7.5144,7.9789,8.424,8.9162,9.5727,10.0583,10.0638,9.9789,9.9407,10.0501,9.9193,9.8453,9.9531,9.8701,9.7567,9.6437,9.5723,9.4907,9.3706,9.3597,9.357,9.3488,9.3488,9.2542,9.0296,9.0092,8.8267,8.4512,8.4243,8.3159,8.0932,8.0932,8.1232,8.1887,8.1887,8.1887,8.1887,8.1887,8.1887,8.1887,8.1856,8.2468,8.3426,8.2772,8.2498,8.2498,8.2498,8.2193,8.1666,8.1066,8.0821,8.0765,8.0256,8.0112,8.0168,8.071,8.1952,8.3665,8.539,8.7081,8.8562,8.9708,9.0026,8.9708,8.8458,8.8139,8.7842,8.659,8.629,8.665,8.7901,8.8139,8.8044,8.7652,8.7593,8.8092,8.9733,9.0026,9.0026,9.0026,8.5795,8.267,8.267,8.267,8.267,8.267,8.267,8.267,8.267,8.2362,8.2362,8.2609,8.2362,8.2238,8.2238,8.2238,8.2238,8.2238,8.2362,8.2424,8.2424,8.2401,8.2362,8.2362,8.2362,8.2401,6.0178,6.3165,6.5573,7.8748,7.7127,7.4741,8.4233,8.584,8.7247,9.3941,9.7464,9.968,10.0501,10.042,10.0363,10.0638,9.9566,9.8794,9.9123,9.8445,9.7718,9.6983,9.7108,9.6641,9.4935,9.4826,9.4443,9.357,9.3488,9.2542,9.0296,8.8552,8.6595,8.4458,8.2669,8.1705,8.1611,8.1611,8.1863,8.2389,8.2389,8.2389,8.2389,8.2389,8.2389,8.2389,8.1997,8.1997,8.2193,8.1619,8.1319,8.1264,8.09,8.0646,8.0502,8.0312,8.0256,8.0256,8.0112,8.0112,8.0168,8.071,8.1477,8.2684,8.5173,8.6465,8.7504,8.9489,9.0026,8.9909,8.9591,8.9532,8.9391,8.9097,8.8979,8.9097,8.9474,8.9532,8.9449,8.9356,8.9356,8.9474,8.9909,9.0026,9.0026,9.0026,8.8885,8.8032,8.8032,8.8032,8.8032,8.8032,8.8032,8.8032,8.8032,8.4462,8.3875,8.7795,8.4402,8.2238,8.2238,8.2238,8.2238,8.2238,8.4135,8.5107,8.5107,8.4523,8.428,8.428,8.428,8.4561,5.8594,6.4148,7.0625,8.235,8.0038,7.7706,8.8345,8.8478,8.8377,9.5671,9.7685,9.8696,10.0418,10.0281,10.0117,10.0583,9.8781,9.7791,9.9117,9.8343,9.7574,9.7523,9.8041,9.7801,9.6292,9.559,9.4989,9.4334,9.3788,9.2542,9.0296,8.7982,8.583,8.4032,8.1736,8.0678,8.1058,8.1311,8.1564,8.187,8.2114,8.2389,8.2608,8.2413,8.2248,8.2248,8.1997,8.1856,8.1801,8.1422,8.1287,8.1232,8.0979,8.0836,8.0836,8.0534,8.04,8.0423,8.0168,8.0112,8.0223,8.1011,8.1842,8.3003,8.548,8.6838,8.7829,8.9538,9.0026,9.0026,9.0026,9.0026,9.0026,9.0026,9.0026,9.0026,9.0026,9.0026,9.0026,9.0026,9.0026,9.0026,9.0026,9.0026,9.0026,9.0026,9.0026,9.0026,9.0026,9.0026,9.0026,9.0026,9.0026,9.0026,9.0026,8.7295,8.6876,8.985,8.7235,8.5614,8.5614,8.5614,8.4523,8.23,8.4804,8.5568,8.4379,8.5107,8.547,8.547,8.547,8.5688,5.4786,6.3085,7.3648,8.1454,8.0475,7.9911,8.8601,8.8719,8.8985,9.58,9.7217,9.7822,10.0063,9.9762,9.9461,10.0336,9.7689,9.6342,9.8771,9.7935,9.728,9.7828,9.8593,9.8584,9.7494,9.6268,9.5453,9.5239,9.4171,9.2542,9.0296,8.7982,8.5698,8.3472,8.124,8.0112,8.0112,8.0511,8.0765,8.0765,8.1422,8.1973,8.2498,8.2052,8.1887,8.1942,8.1887,8.1777,8.1722,8.1722,8.1666,8.1611,8.1611,8.1611,8.1556,8.0955,8.0765,8.071,8.0256,8.0112,8.0279,8.1446,8.2453,8.3609,8.5826,8.7219,8.8244,8.9464,8.9806,8.9855,8.9977,9.0026,9.0026,9.0026,9.0026,9.0026,9.0026,9.0026,9.0026,9.0026,9.0026,9.0026,9.0026,9.0026,9.0026,9.0026,9.0026,9.0026,9.0026,9.0026,9.0026,9.0026,9.0026,9.0026,9.0026,9.0026,9.0026,9.0026,9.0026,9.0026,9.0026,9.0026,8.7854,8.3324,8.5168,8.5168,8.3263,8.5349,8.647,8.6673,8.6673,8.6673,6.174,6.7687,7.3394,7.8876,8.3163,8.5741,8.474,8.7812,9.2033,9.6323,9.7217,9.7603,9.897,9.9899,10.0172,9.9379,9.7904,9.6647,9.6073,9.623,9.6627,9.7261,9.8696,9.9327,9.8721,9.7549,9.6405,9.5344,9.4171,9.2542,9.0296,8.7982,8.5698,8.3472,8.124,8.0112,8.0112,8.0168,8.02,8.02,8.0789,8.1343,8.1997,8.1887,8.2052,8.2443,8.2052,8.1532,8.1042,8.1042,8.0789,8.0391,8.0391,8.0391,8.0391,8.0279,8.02,8.02,8.0112,8.0112,8.0279,8.1446,8.1975,8.2531,8.4708,8.556,8.6121,8.8147,8.8708,8.8903,8.9782,9.0026,9.0026,9.0026,9.0026,9.0026,9.0026,9.0026,9.0026,9.0026,9.0026,9.0026,9.0026,9.0026,9.0026,9.0026,9.0026,9.0026,9.0026,9.0026,9.0026,9.0026,9.0026,9.0026,9.0026,9.0026,9.0026,9.0026,9.0026,9.0026,9.0026,9.0026,8.9591,8.8684,8.6972,8.6972,8.8649,8.8044,8.8281,8.9356,8.9356,8.9356,6.1011,6.5897,7.039,7.3404,7.6863,8.0978,8.6369,8.7749,8.9448,9.5025,9.4157,9.3767,9.8156,9.9407,9.9817,9.9844,9.886,9.7685,9.6432,9.6522,9.6815,9.7135,9.8438,9.9449,9.9817,9.8778,9.7849,9.7224,9.5453,9.394,9.2853,8.8941,8.6228,8.5166,8.1823,8.0112,8.0112,8.0112,8.0112,8.0112,8.0622,8.1042,8.1287,8.1034,8.1034,8.1311,8.1058,8.0923,8.0876,8.0876,8.09,8.1002,8.1002,8.1002,8.0947,8.0622,8.0511,8.0455,8.0168,8.0112,8.0279,8.1446,8.1856,8.2268,8.4441,8.5535,8.6316,8.7951,8.883,8.9391,8.9879,9.0026,9.0026,9.0026,9.0026,9.0026,9.0026,9.0026,9.0026,9.0026,9.0026,9.0026,9.0026,9.0026,9.0026,9.0026,9.0026,9.0026,9.0026,9.0026,9.0026,9.0026,9.0026,9.0026,9.0026,9.0026,9.0026,9.0026,9.0026,9.0026,9.0026,9.0026,9.0026,9.0026,8.8802,8.8743,9.0026,8.9391,8.9391,9.0026,9.0026,9.0026,6.0166,6.4023,6.8196,7.1396,7.1664,7.4367,8.6474,8.5967,8.5182,9.3224,9.2069,9.1372,9.7098,9.8587,9.9161,9.9844,9.9379,9.845,9.6975,9.6784,9.6917,9.7292,9.8089,9.9186,10.0688,9.9705,9.8994,9.9098,9.6729,9.5112,9.4731,8.959,8.6491,8.6016,8.2152,8.0112,8.0112,8.0112,8.0112,8.0112,8.0511,8.071,8.071,8.0534,8.0446,8.0446,8.0446,8.0622,8.0876,8.0876,8.1121,8.1446,8.1446,8.1446,8.139,8.09,8.071,8.0622,8.02,8.0112,8.0279,8.1446,8.1856,8.222,8.4229,8.5389,8.6341,8.7683,8.8659,8.9358,8.9904,9.0026,9.0026,9.0026,9.0026,9.0026,9.0026,9.0026,9.0026,9.0026,9.0026,9.0026,9.0026,9.0026,9.0026,9.0026,9.0026,9.0026,9.0026,9.0026,9.0026,9.0026,9.0026,9.0026,9.0026,9.0026,9.0026,9.0026,9.0026,9.0026,9.0026,9.0026,9.0026,9.0026,9.0026,9.0026,9.0026,9.0026,9.0026,9.0026,9.0026,9.0026,6.4561,6.6704,6.9623,7.9473,7.5641,7.1471,7.938,7.959,8.111,9.1517,9.4153,9.4812,9.5458,9.7415,9.8614,9.7631,9.8314,9.815,9.5754,9.5426,9.6037,9.7718,9.7582,9.8438,10.116,9.9914,9.915,9.9644,9.6932,9.4553,9.3019,8.8992,8.5751,8.3742,8.135,8.0112,8.0112,8.0112,8.0112,8.0112,8.0112,8.0168,8.0168,8.1224,8.1666,8.1666,8.1666,8.1366,8.0876,8.0876,8.0622,8.0223,8.0223,8.0223,8.0223,8.0168,8.0168,8.0168,8.0112,8.0112,8.0279,8.1446,8.1856,8.2076,8.3354,8.3808,8.4266,8.6316,8.6919,8.7431,8.9489,9.0026,9.0026,9.0026,9.0026,9.0026,9.0026,9.0026,9.0026,9.0026,9.0026,9.0026,9.0026,9.0026,9.0026,9.0026,9.0026,9.0026,9.0026,9.0026,9.0026,9.0026,9.0026,9.0026,9.0026,9.0026,9.0026,9.0026,9.0026,9.0026,9.0026,9.0026,9.0026,9.0026,9.0026,9.0026,9.0026,9.0026,9.0026,9.0026,9.0026,9.0026,5.6801,5.8387,6.0881,6.862,7.0333,7.0851,7.3585,7.6436,8.0142,8.5985,8.8559,8.9079,8.699,9.2789,9.721,9.5143,9.7768,9.9382,9.7716,9.6842,9.667,9.7418,9.7319,9.7925,9.975,9.9976,10.0061,10.0271,9.7897,9.5508,9.3436,8.9093,8.5698,8.3472,8.124,8.0112,8.0112,8.0112,8.0112,8.0112,8.0423,8.0566,8.0566,8.0701,8.078,8.078,8.078,8.0614,8.04,8.071,8.0955,8.1113,8.1113,8.1113,8.1113,8.0678,8.0566,8.0511,8.02,8.0112,8.0279,8.1446,8.1856,8.2052,8.3232,8.4053,8.4828,8.626,8.7016,8.7772,8.9586,9.0026,9.0026,9.0026,9.0026,9.0026,9.0026,9.0026,9.0026,9.0026,9.0026,9.0026,9.0026,9.0026,9.0026,9.0026,9.0026,9.0026,9.0026,9.0026,9.0026,9.0026,9.0026,9.0026,9.0026,9.0026,9.0026,9.0026,9.0026,9.0026,9.0026,9.0026,9.0026,9.0026,9.0026,9.0026,9.0026,9.0026,9.0026,9.0026,9.0026,9.0026,5.1724,5.2882,5.5362,6.1654,6.5716,6.9106,7.2634,7.4845,7.7346,8.1611,8.5061,8.6365,8.3458,8.9484,9.4431,9.2954,9.623,9.8937,9.8945,9.8204,9.7788,9.7969,9.7487,9.787,9.9534,9.9978,10.0389,10.0903,9.8937,9.6305,9.3095,8.9449,8.5996,8.276,8.1319,8.0614,8.0614,8.0614,8.0614,8.0614,8.0789,8.0987,8.1121,8.0757,8.0614,8.0614,8.0614,8.0614,8.0614,8.0765,8.1066,8.128,8.128,8.128,8.128,8.0789,8.0622,8.0566,8.02,8.0112,8.0279,8.1446,8.1856,8.2052,8.3232,8.4071,8.495,8.6285,8.7065,8.787,8.9586,9.0026,9.0026,9.0026,9.0026,9.0026,9.0026,9.0026,9.0026,9.0026,9.0026,9.0026,9.0026,9.0026,9.0026,9.0026,9.0026,9.0026,9.0026,9.0026,9.0026,9.0026,9.0026,9.0026,9.0026,9.0026,9.0026,9.0026,9.0026,9.0026,9.0026,9.0026,9.0026,9.0026,9.0026,9.0026,9.0026,9.0026,9.0026,9.0026,9.0026,9.0026,5.2738,5.3454,5.6061,6.3764,6.3864,6.5382,7.7915,7.4722,7.1422,7.9606,8.59,8.9505,8.8081,8.8729,8.988,9.1177,9.3391,9.5865,9.8543,9.8942,9.9123,9.9616,9.8185,9.8301,10.1185,9.9914,9.967,10.1322,9.9887,9.6669,9.1438,9.0035,8.6745,8.1066,8.1477,8.1801,8.1801,8.1801,8.1801,8.1801,8.1177,8.1177,8.1856,8.1801,8.1801,8.1801,8.1801,8.1801,8.1777,8.1121,8.0566,8.0112,8.0112,8.0112,8.0112,8.0112,8.0112,8.0112,8.0112,8.0112,8.0279,8.1446,8.1856,8.2052,8.3232,8.3589,8.4053,8.6146,8.6675,8.7187,8.9464,9.0026,9.0026,9.0026,9.0026,9.0026,9.0026,9.0026,9.0026,9.0026,9.0026,9.0026,9.0026,9.0026,9.0026,9.0026,9.0026,9.0026,9.0026,9.0026,9.0026,9.0026,9.0026,9.0026,9.0026,9.0026,9.0026,9.0026,9.0026,9.0026,9.0026,9.0026,9.0026,9.0026,9.0026,9.0026,9.0026,9.0026,9.0026,9.0026,9.0026,9.0026,4.9435,5.0579,5.3786,6.3137,6.271,6.3453,7.6689,7.3531,7.1104,8.2701,7.8611,7.3521,7.5452,8.2715,8.9117,9.1017,9.4884,9.8257,9.9928,9.9461,9.8994,9.915,9.8718,9.8721,9.9643,9.9978,10.0361,10.093,9.8964,9.5976,9.1942,8.9058,8.5674,8.1513,8.0911,8.0614,8.0614,8.0979,8.1177,8.1177,8.1422,8.1808,8.2334,8.1169,8.1058,8.1801,8.1366,8.1422,8.1832,8.1611,8.1422,8.128,8.128,8.128,8.128,8.128,8.128,8.1224,8.0789,8.0622,8.0733,8.1556,8.1856,8.2052,8.3232,8.3589,8.3882,8.5243,8.6114,8.7016,8.8537,8.8928,8.9123,8.9855,9.0026,9.0026,9.0026,9.0026,9.0026,9.0026,9.0026,9.0026,9.0026,9.0026,9.0026,9.0026,9.0026,9.0026,9.0026,9.0026,9.0026,9.0026,9.0026,9.0026,9.0026,9.0026,9.0026,9.0026,9.0026,9.0026,9.0026,9.0026,9.0026,9.0026,9.0026,9.0026,9.0026,9.0026,9.0026,9.0026,9.0026,9.0026,4.8509,4.9572,5.2526,6.2549,6.1455,6.1044,7.3077,6.9325,6.6725,7.883,7.3836,6.8311,7.1552,7.9258,8.6376,9.0113,9.3678,9.6933,9.963,9.9407,9.9106,9.9543,9.9215,9.9106,9.9571,9.9871,10.0227,10.0638,9.8696,9.5984,9.2475,8.9774,8.66,8.2766,8.2237,8.1826,8.1422,8.1729,8.176,8.154,8.2193,8.2687,8.2936,8.1894,8.1698,8.2107,8.1729,8.1619,8.1801,8.1532,8.1611,8.1801,8.1532,8.1611,8.1856,8.1856,8.1856,8.1777,8.1343,8.1066,8.0987,8.1863,8.1997,8.2052,8.3232,8.3589,8.3808,8.4828,8.5633,8.6236,8.7,8.7488,8.7951,8.861,8.8781,8.8781,8.8781,8.9123,8.9416,8.9416,8.9757,9.0026,9.0026,9.0026,9.0026,9.0026,9.0026,9.0026,9.0026,9.0026,9.0026,9.0026,9.0026,9.0026,9.0026,9.0026,9.0026,9.0026,9.0026,9.0026,9.0026,9.0026,9.0026,9.0026,9.0026,9.0026,9.0026,9.0026,9.0026,9.0026,9.0026,9.0026,4.9221,4.9913,5.2051,6.186,6.0148,5.857,6.828,6.3275,5.9458,6.9826,7.0707,7.0703,7.4202,7.7326,8.1595,8.8116,9.0433,9.2997,9.7842,9.8595,9.9059,10.0177,9.9332,9.9086,10.0152,9.9573,9.9543,10.0583,9.89,9.6417,9.3148,9.1557,8.8734,8.4418,8.4767,8.4485,8.3396,8.3499,8.3202,8.2378,8.3184,8.3431,8.3382,8.3456,8.3154,8.2638,8.2481,8.2231,8.1887,8.1082,8.1216,8.1832,8.1177,8.1287,8.1856,8.1856,8.1856,8.1856,8.1777,8.1343,8.1042,8.2169,8.2248,8.2052,8.3232,8.3589,8.3808,8.473,8.5023,8.5047,8.5121,8.5877,8.6577,8.6675,8.6675,8.6675,8.6675,8.7561,8.8317,8.8415,8.922,8.9928,9.0001,9.0026,9.0026,9.0026,9.0026,9.0026,9.0026,9.0026,9.0026,9.0026,9.0026,9.0026,9.0026,9.0026,9.0026,9.0026,9.0026,9.0026,9.0026,9.0026,9.0026,9.0026,9.0026,9.0026,9.0026,9.0026,9.0026,9.0026,9.0026,9.0026,4.6597,4.8245,5.1287,6.0118,5.9448,5.928,6.952,6.2858,5.7474,6.791,6.3217,5.9651,6.7555,7.0231,7.4284,8.3781,8.9638,9.3314,9.4356,9.5274,9.5945,9.6214,9.5999,9.5945,9.6214,9.867,10.0418,10.0638,9.8148,9.5699,9.3449,9.0111,8.6829,8.3574,8.355,8.2937,8.1508,8.2763,8.238,8.0233,8.2004,8.2228,8.1077,8.1888,8.2632,8.3214,8.1111,8.134,8.2996,8.076,8.0849,8.2413,8.1808,8.1722,8.1856,8.1856,8.1856,8.1777,8.1287,8.0987,8.0987,8.1753,8.1942,8.2052,8.3232,8.3589,8.3637,8.3906,8.3979,8.415,8.4925,8.534,8.5731,8.648,8.6675,8.6675,8.6675,8.6894,8.739,8.8244,8.8635,8.905,8.9879,9.0026,9.0026,9.0026,9.0026,9.0026,9.0026,9.0026,9.0026,9.0026,9.0026,9.0026,9.0026,9.0026,9.0026,9.0026,9.0026,9.0026,9.0026,9.0026,9.0026,9.0026,9.0026,9.0026,9.0026,9.0026,9.0026,9.0026,9.0026,9.0026,4.7824,4.9475,5.151,5.7154,5.7247,5.7259,6.2306,5.7855,5.4723,6.1991,5.9787,5.8472,6.4753,6.9823,7.4062,7.7037,8.2765,8.7092,8.7987,9.0612,9.215,9.1457,9.4535,9.6235,9.4966,9.8378,10.0665,10.0665,9.8416,9.6283,9.4501,9.152,8.8579,8.5703,8.5621,8.4618,8.2469,8.3997,8.3359,8.0566,8.277,8.2566,8.0315,8.158,8.2522,8.3075,8.132,8.1416,8.2638,8.1211,8.1416,8.2608,8.2303,8.2358,8.2632,8.2632,8.2468,8.2083,8.1532,8.1098,8.0987,8.1611,8.1856,8.1997,8.2881,8.3371,8.3589,8.3589,8.3589,8.3735,8.4266,8.4413,8.4559,8.5121,8.5267,8.5267,8.5267,8.5657,8.6194,8.6804,8.7317,8.7829,8.8358,8.8455,8.8626,8.9196,8.8854,8.8879,8.9879,8.9586,8.9489,8.9977,9.0026,9.0026,9.0026,9.0026,9.0026,9.0026,9.0026,9.0026,9.0026,9.0026,9.0026,9.0026,9.0026,9.0026,9.0026,9.0026,9.0026,9.0026,9.0026,9.0026,5.0068,5.1673,5.2599,5.5103,5.5208,5.4434,5.3556,5.202,5.1768,5.5125,5.776,6.0282,6.2815,7.0165,7.4309,6.9465,7.366,7.8619,8.1751,8.6108,8.8546,8.7425,9.315,9.6571,9.5018,9.8378,10.0665,10.0665,9.8765,9.6913,9.5388,9.3191,9.0852,8.8209,8.81,8.7079,8.4892,8.6058,8.5067,8.1999,8.4299,8.379,8.0818,8.2305,8.3014,8.2935,8.1987,8.1799,8.2052,8.1555,8.1775,8.2498,8.2279,8.2553,8.3045,8.3045,8.2717,8.2169,8.1722,8.12,8.0821,8.1477,8.1722,8.1942,8.2443,8.3045,8.3589,8.3589,8.3589,8.3589,8.3589,8.3589,8.3589,8.3589,8.3589,8.3589,8.3589,8.4266,8.495,8.5096,8.5877,8.648,8.665,8.6675,8.6992,8.8025,8.7341,8.7358,8.9211,8.8732,8.8562,8.966,8.9782,8.9855,9.0001,9.0026,8.9953,8.9782,8.9928,9.0026,9.0026,9.0026,9.0026,9.0026,9.0026,9.0026,9.0026,9.0026,9.0026,9.0026,9.0026,9.0026,4.9124,5.1975,5.5087,5.8312,5.6074,5.3312,5.4462,5.1478,4.9252,5.1761,5.3394,5.5056,5.7239,6.1137,6.3752,6.3027,6.7528,7.3733,8.1025,8.4427,8.6406,8.7195,8.8331,9.0618,9.4515,9.8378,10.0665,10.0665,9.7706,9.5474,9.4665,9.0893,8.8179,8.684,8.6549,8.6631,8.7009,8.7208,8.5713,8.2514,8.5166,8.5293,8.313,8.422,8.4735,8.4583,8.1757,8.16,8.3105,8.0204,8.0206,8.1832,8.0891,8.0558,8.059,8.059,8.0534,8.0446,8.0391,8.0256,8.0312,8.0844,8.1366,8.1942,8.2443,8.3045,8.3589,8.3589,8.3589,8.3589,8.3589,8.3589,8.3589,8.3589,8.3589,8.3589,8.3589,8.3711,8.4101,8.4974,8.5267,8.5682,8.6529,8.6675,8.6748,8.6919,8.6797,8.6797,8.7138,8.7041,8.7415,8.8537,8.8659,8.9025,8.9953,9.0026,8.9635,8.8732,8.9513,9.0026,9.0026,9.0026,9.0026,9.0026,9.0026,9.0026,9.0026,9.0026,9.0026,9.0026,9.0026,9.0026,5.1725,5.3431,5.5011,5.6712,5.5395,5.3642,5.321,5.096,4.9442,5.1163,5.2439,5.3906,5.5976,5.9896,6.3144,6.4196,6.8222,7.3388,7.9465,8.4091,8.6421,8.5478,8.9681,9.2986,9.3847,9.8026,10.0665,10.0665,9.8278,9.6306,9.5083,9.222,8.9883,8.843,8.7971,8.7901,8.8279,8.8337,8.6672,8.3458,8.6326,8.5609,8.1877,8.4409,8.4795,8.3412,8.279,8.2923,8.3456,8.1889,8.1901,8.2741,8.2169,8.1753,8.1453,8.1453,8.109,8.0511,8.0511,8.0312,8.0112,8.0367,8.109,8.1887,8.2138,8.2851,8.3589,8.3589,8.3589,8.3589,8.3589,8.3589,8.3589,8.3589,8.3589,8.3589,8.3589,8.3589,8.3735,8.4193,8.4291,8.4437,8.4925,8.4999,8.5194,8.5779,8.5389,8.5438,8.6553,8.6243,8.6236,8.739,8.7512,8.7707,8.8138,8.8187,8.7967,8.7537,8.8537,8.8879,8.8211,8.9391,8.9757,8.9172,8.9733,9.0026,9.0026,9.0026,9.0026,9.0026,9.0026,9.0026,5.5776,0.0,5.7781,5.795,5.711,5.5713,0.0,5.1367,4.9976,5.0596,5.207,5.3587,5.4605,5.9077,6.2938,6.4033,6.8632,7.3233,7.6717,8.2104,8.5202,8.3964,9.0712,9.5152,9.4549,9.8019,10.0418,10.0638,9.8603,9.6803,9.5499,9.3159,9.129,9.0026,8.9356,8.9121,8.9263,8.8944,8.7714,8.5587,8.7642,8.619,8.187,8.5085,8.5146,8.2832,8.4022,8.432,8.39,8.3523,8.3263,8.3178,8.299,8.2553,8.2004,8.2004,8.1453,8.071,8.071,8.04,8.0112,8.0112,8.0891,8.1856,8.1997,8.2632,8.3371,8.3534,8.3589,8.3589,8.3589,8.3589,8.3589,8.3589,8.3589,8.3589,8.3589,8.3589,8.3589,8.3589,8.3589,8.3589,8.3589,8.3589,8.3882,8.4633,8.4071,8.4199,8.5779,8.5267,8.5169,8.6187,8.6309,8.6407,8.6675,8.6455,8.6309,8.6309,8.7415,8.7634,8.6724,8.8342,8.8976,8.8439,8.922,8.9757,9.0026,9.0026,9.0026,9.0026,9.0026,9.0026,0.0,6.4932,6.7439,6.7439,6.4264,6.0535,5.8337,5.3641,0.0,4.8602,5.0993,5.2653,5.0606,5.4775,5.8166,5.707,6.4684,7.1023,7.1911,7.6186,8.0376,8.3574,8.764,9.2339,9.8,9.8863,9.9543,10.0583,9.7542,9.5555,9.5444,9.1554,8.9532,8.9967,8.9356,8.9297,8.9909,8.8708,8.8636,8.9548,8.9152,8.8024,8.627,8.765,8.7073,8.4925,8.5016,8.5041,8.4895,8.3347,8.2413,8.1887,8.1287,8.0733,8.0279,8.0279,8.0223,8.0168,8.0168,8.0112,8.0112,8.0112,8.0891,8.1942,8.2389,8.2608,8.2826,8.3426,8.3589,8.3589,8.3589,8.3589,8.3589,8.3589,8.3589,8.3589,8.3589,8.3589,8.3589,8.3589,8.3589,8.3589,8.3589,8.3589,8.3613,8.3686,8.3637,8.3637,8.3808,8.376,8.4071,8.5145,8.5267,8.5657,8.6602,8.5828,8.5267,8.5267,8.6211,8.6772,8.6675,8.6846,8.7439,8.8415,8.8513,8.9025,9.0026,9.0026,9.0026,9.0026,9.0026,9.0026,6.2633,6.6154,6.8903,6.8903,6.7388,6.47,6.0287,5.6612,5.3012,4.904,4.9205,4.9845,4.8944,5.2188,5.6451,6.1016,6.5339,7.0815,7.8432,8.1684,8.4619,8.836,9.1345,9.4057,9.6385,9.5833,9.6541,9.9409,9.5742,9.397,9.5366,9.2792,9.0885,9.0026,8.9791,8.9532,8.9415,8.9297,8.9121,8.8767,8.9356,8.8416,8.6287,8.8437,8.7854,8.5218,8.6585,8.6024,0.0,8.4193,8.3318,8.1985,8.2397,8.2004,8.1169,8.1169,8.0725,8.0112,8.0112,8.0112,8.0112,8.0112,8.0391,8.0836,8.1398,8.1784,8.2248,8.2826,8.299,8.3099,8.348,8.3589,8.3589,8.3589,8.3589,8.3589,8.3589,8.3589,8.3589,8.3589,8.3589,8.3589,8.3589,8.3589,8.3589,8.3589,8.3589,8.3589,8.3589,8.3589,8.376,8.415,8.4144,8.4315,8.4706,8.4388,8.4144,8.4144,8.5169,8.5438,8.4779,8.6048,8.6634,8.639,8.7024,8.7927,8.9025,8.9025,8.9367,9.0026,9.0026,9.0026,6.6255,6.9702,7.2753,7.2753,7.1609,6.8968,6.3113,5.9268,5.5263,4.9387,4.8215,4.8215,4.8215,5.0882,5.5576,6.3329,6.5463,6.9833,8.0521,8.2701,8.4889,8.9367,9.1327,9.2939,9.4557,9.4137,9.4967,9.7889,9.468,9.3153,9.4501,9.2874,9.1546,9.0851,9.0851,9.0352,8.9356,8.9557,8.9356,8.8708,8.9356,8.8416,8.6231,8.8851,8.8415,8.5755,8.761,8.6812,8.415,8.4828,8.3821,8.1832,8.2849,8.2687,8.1801,8.1611,8.1034,8.0312,8.0168,8.0112,8.0112,8.0256,8.0367,8.0423,8.1011,8.1587,8.2138,8.2498,8.2772,8.3045,8.348,8.3589,8.3589,8.3589,8.3589,8.3589,8.3589,8.3589,8.3589,8.3589,8.3589,8.3589,8.3589,8.3589,8.3589,8.3589,8.3589,8.3589,8.3589,8.3589,8.3589,8.3589,8.3589,8.3589,8.3589,8.3589,8.3589,8.3589,8.4218,8.4315,8.3637,8.495,8.5535,8.5145,8.5853,8.678,8.7878,8.7878,8.8269,8.8919,8.8919,8.9172,7.22,7.6773,8.0467,8.0467,7.776,7.3453,6.7312,6.1489,5.5676,4.9451,4.8215,4.8215,4.8215,5.0882,5.533,6.2241,6.4243,6.7759,7.5835,7.7,7.9263,8.5254,8.5956,8.7947,9.2959,9.4475,9.545,9.6117,9.4502,9.329,9.2798,9.1001,9.0827,9.2678,9.2735,9.1867,9.0026,8.9415,8.938,8.9967,8.9356,8.8242,8.6797,8.8967,8.8772,8.6772,8.7951,8.717,8.5121,8.5169,8.3573,8.1165,8.2252,8.2327,8.1801,8.1098,8.0852,8.0821,8.0256,8.0112,8.0168,8.071,8.0876,8.0987,8.1587,8.2193,8.2608,8.2608,8.3045,8.3534,8.3534,8.3534,8.3589,8.3589,8.3589,8.3589,8.3589,8.3589,8.3589,8.3589,8.3589,8.3589,8.3589,8.3589,8.3589,8.3589,8.3589,8.3589,8.3589,8.3589,8.3589,8.3589,8.3589,8.3589,8.3589,8.3589,8.3589,8.3589,8.3589,8.3589,8.3589,8.3589,8.4101,8.5096,8.5121,8.5657,8.6675,8.6675,8.6675,8.6675,8.6675,8.7341,7.1278,7.5741,8.086,8.086,7.9584,7.6142,6.7823,6.3173,5.8251,4.993,4.8215,4.8215,4.8215,5.0882,5.5048,6.1155,6.3697,6.8084,7.7079,7.9865,8.2908,8.8169,8.9504,8.9908,8.9543,8.9816,9.0452,9.15,9.139,9.2476,9.5027,9.2682,9.1858,9.3235,9.3261,9.2831,9.1925,9.1752,9.0851,8.9297,8.9615,8.9193,8.8353,8.9499,8.966,8.9074,8.9416,8.7439,8.4193,8.6037,8.4767,8.1852,8.3183,8.3686,8.3472,8.2512,8.1839,8.1477,8.0844,8.0622,8.0654,8.0821,8.0876,8.0932,8.1121,8.1011,8.0812,8.0812,8.1232,8.1626,8.1626,8.2255,8.2936,8.2936,8.3263,8.3589,8.3589,8.3589,8.3589,8.3589,8.3589,8.3589,8.3589,8.3589,8.3589,8.3589,8.3589,8.3589,8.3589,8.3589,8.3589,8.3589,8.3589,8.3589,8.3589,8.3589,8.3589,8.3589,8.3589,8.3589,8.3589,8.3589,8.3735,8.4053,8.4077,8.4535,8.5633,8.5633,8.5999,8.6675,8.6675,8.687,7.4053,7.7508,8.1374,8.1374,8.0969,7.8575,7.0957,6.5757,6.0411,5.2801,4.9609,4.8833,5.0854,5.3552,5.7624,6.4276,6.5223,6.8051,7.629,7.8734,8.1526,8.6459,8.8088,8.8947,8.936,8.8473,8.8804,9.1008,9.1267,9.2648,9.5678,9.3942,9.3168,9.3848,9.3874,9.3607,9.3015,9.2307,9.1451,9.0478,9.0177,8.9767,8.9439,8.985,9.0026,9.0026,9.0026,8.8049,8.4999,8.7016,8.6084,8.3388,8.4653,8.4866,8.4288,8.3556,8.2688,8.1722,8.1121,8.0876,8.0876,8.0876,8.1185,8.154,8.154,8.1343,8.109,8.109,8.1177,8.1232,8.1232,8.1784,8.2358,8.2553,8.3099,8.3589,8.3589,8.3589,8.3589,8.3589,8.3589,8.3589,8.3589,8.3589,8.3589,8.3589,8.3589,8.3589,8.3589,8.3589,8.3589,8.3589,8.3589,8.348,8.3208,8.3426,8.348,8.3208,8.3426,8.3589,8.3589,8.3589,8.3589,8.3589,8.3589,8.3906,8.451,8.451,8.4828,8.5462,8.5462,8.5706,7.8532,8.0556,8.182,8.182,8.178,8.0351,7.4929,6.8448,6.2005,5.6376,5.1653,4.9856,5.4281,5.7113,6.1402,6.9376,6.8177,6.8441,7.4779,7.5701,7.7448,8.2062,8.3442,8.594,9.0716,8.9075,8.9176,9.2751,9.2537,9.3083,9.4998,9.4652,9.4411,9.4518,9.4518,9.4259,9.361,9.2032,9.1777,9.278,9.1092,9.0235,9.0235,9.0084,9.0026,9.0026,9.0026,8.8723,8.6772,8.8016,8.7211,8.5389,8.6375,8.5923,8.4706,8.4457,8.3424,8.2007,8.1256,8.0987,8.1042,8.0987,8.165,8.2474,8.2498,8.2553,8.2553,8.2553,8.2138,8.1722,8.1722,8.1746,8.1832,8.2389,8.3099,8.3589,8.3589,8.3589,8.3589,8.3589,8.3589,8.3589,8.3589,8.3589,8.3589,8.3589,8.3589,8.3589,8.3589,8.3589,8.3589,8.3589,8.3589,8.3317,8.2662,8.3154,8.3208,8.2553,8.3099,8.3426,8.348,8.348,8.3534,8.3589,8.3589,8.3589,8.3589,8.3589,8.3589,8.3589,8.3589,8.4071,7.6069,7.8419,8.182,8.182,8.1523,7.918,7.1319,6.7346,6.262,5.3028,5.0917,5.0606,4.9962,5.3638,5.9374,6.7248,7.0419,7.3531,7.8105,7.9298,8.039,8.2385,8.2812,8.4034,8.6891,8.6653,8.7086,8.8923,8.8952,9.0358,9.3662,9.3768,9.4111,9.5034,9.5061,9.4835,9.4285,9.481,9.4467,9.3354,9.2502,9.2155,9.2097,9.0643,9.0026,9.0026,9.0026,8.8723,8.6846,8.8275,8.793,8.6455,8.7063,8.7412,8.7309,8.5157,8.4438,8.413,8.2284,8.1918,8.2145,8.1753,8.1453,8.1319,8.1863,8.1997,8.1997,8.1997,8.1532,8.1066,8.1066,8.0757,8.0725,8.1777,8.2796,8.3589,8.3589,8.3589,8.3589,8.3589,8.3589,8.3589,8.3589,8.3589,8.3589,8.3589,8.3589,8.3589,8.3589,8.3589,8.3589,8.3589,8.3589,8.3317,8.2662,8.2772,8.2632,8.2052,8.2107,8.2413,8.2826,8.2826,8.3045,8.3589,8.3589,8.3589,8.3589,8.3589,8.3589,8.3589,8.3589,8.3711,7.5933,7.821,8.182,8.182,8.1631,8.0251,7.5772,7.1805,6.6938,5.9422,5.6412,5.4789,5.3636,5.6928,6.1697,6.7551,7.1501,7.3906,7.407,7.7993,8.0426,7.9219,8.1151,8.3671,8.6638,8.6335,8.6963,8.9537,9.0233,9.1419,9.3384,9.3488,9.3788,9.4416,9.4416,9.4561,9.486,9.4673,9.4338,9.3959,9.3383,9.2663,9.1784,9.1446,9.0851,9.0026,9.0026,8.9367,8.8333,8.9188,8.8994,8.8309,8.8605,8.8391,8.7809,8.6375,8.5174,8.4096,8.2628,8.1993,8.1705,8.1453,8.1508,8.1705,8.1832,8.1997,8.2193,8.2193,8.1808,8.1366,8.1366,8.09,8.0733,8.1918,8.2468,8.2905,8.345,8.3589,8.3589,8.3589,8.3589,8.3589,8.3589,8.3589,8.3589,8.3589,8.3589,8.3589,8.3589,8.3317,8.299,8.2741,8.2741,8.2468,8.1815,8.2059,8.1973,8.1422,8.1666,8.2323,8.3435,8.2873,8.3014,8.3955,8.3876,8.3499,8.2741,8.3523,8.3609,8.3099,8.3426,8.3589,7.6705,7.8937,8.182,8.182,8.182,8.1667,8.0936,7.6791,7.1861,6.7551,6.3455,6.0369,5.9278,6.1679,6.5111,6.927,7.2494,7.3613,7.1184,7.6888,8.0018,7.6635,7.9705,8.3732,8.7672,8.7163,8.8072,9.1502,9.2038,9.2272,9.2517,9.2517,9.2806,9.3488,9.3488,9.3979,9.4962,9.3734,9.3631,9.462,9.4196,9.3188,9.1719,9.2741,9.1987,8.9904,9.0645,9.0364,8.9489,9.0205,9.0294,9.0026,9.0026,8.9115,8.785,8.7623,8.5918,8.3704,8.2902,8.1919,8.1042,8.0932,8.1595,8.2389,8.2052,8.2358,8.2772,8.2772,8.2413,8.1997,8.1997,8.1398,8.1153,8.2224,8.2083,8.1997,8.3154,8.3426,8.3426,8.3534,8.3589,8.3589,8.3589,8.3589,8.3589,8.3589,8.3589,8.3534,8.3426,8.2881,8.2303,8.1887,8.1856,8.1532,8.0932,8.1366,8.1422,8.0765,8.1422,8.2501,8.3977,8.3272,8.3431,8.4626,8.4546,8.3889,8.2659,8.3807,8.3853,8.2928,8.336,8.348,7.7165,7.9688,8.182,8.182,8.182,8.0908,7.7401,7.5945,7.3722,6.7862,6.6862,6.5395,6.0056,6.1679,6.5794,7.2047,7.4666,7.7347,8.1447,8.2613,8.2327,8.0337,8.072,8.2909,8.7636,8.8898,9.0097,9.1632,8.8734,8.7391,8.8536,8.859,9.0141,9.3384,9.3488,9.357,9.3734,9.4494,9.4992,9.5155,9.5661,9.5742,9.5472,9.5232,9.2999,8.9663,9.3198,9.1796,8.743,9.0898,9.1406,9.0026,9.0026,8.987,8.9533,8.8005,8.6662,8.5366,8.3776,8.2605,8.1611,8.1042,8.1343,8.1997,8.2389,8.2936,8.3426,8.3426,8.299,8.2498,8.2498,8.1705,8.1042,8.1753,8.1477,8.1319,8.2498,8.2772,8.2936,8.348,8.3589,8.3589,8.3589,8.3589,8.3589,8.3589,8.3589,8.3371,8.2826,8.2248,8.1887,8.1856,8.1856,8.1532,8.0932,8.0932,8.0789,8.02,8.1123,8.1979,8.2638,8.3387,8.4399,8.5681,8.5681,8.5811,8.6036,8.5369,8.4708,8.4143,8.3779,8.3069,7.2193,7.6518,8.0918,8.1651,8.182,8.135,7.9587,7.9176,7.7789,7.2808,7.0822,6.8268,6.2744,6.2013,6.4187,7.0205,7.1457,7.3671,7.9245,7.9354,7.9149,8.0111,8.0594,8.2479,8.6682,8.8165,8.8539,8.7568,8.796,8.873,8.9995,9.0049,9.1104,9.3434,9.3488,9.3488,9.3488,9.4007,9.428,9.4307,9.521,9.5168,9.4282,9.4707,9.3729,9.1781,9.3578,9.3312,9.1743,9.352,9.3159,9.1546,9.1546,9.0909,8.9836,8.8789,8.7453,8.6,8.4318,8.2842,8.1591,8.1065,8.1042,8.1453,8.2334,8.2826,8.3099,8.348,8.3371,8.3099,8.2717,8.2004,8.1477,8.1777,8.1343,8.1208,8.2365,8.2608,8.2826,8.3426,8.3589,8.3589,8.3589,8.3589,8.348,8.3099,8.3045,8.2826,8.2248,8.1643,8.12,8.0891,8.0836,8.0725,8.0479,8.04,8.0546,8.093,8.1398,8.2433,8.4114,8.4033,8.4673,8.6192,8.6274,8.6053,8.5688,8.6198,8.6061,8.523,8.4673,8.4022,6.8158,7.3251,7.8565,8.1052,8.1486,8.1425,8.1736,8.182,8.0976,7.796,7.5569,7.254,6.7737,6.5725,6.6324,7.1065,7.1434,7.3027,7.8515,7.8657,7.8525,7.9593,8.0181,8.1325,8.3297,8.5399,8.5845,8.3868,8.6435,8.8568,8.9763,8.9844,9.0804,9.2997,9.3051,9.3188,9.3488,9.3488,9.3488,9.3515,9.4716,9.458,9.3409,9.4612,9.4338,9.2951,9.3956,9.4104,9.376,9.5082,9.4223,9.2072,9.2348,9.1232,8.9415,8.8944,8.7693,8.6057,8.4808,8.3425,8.2094,8.1296,8.12,8.1429,8.198,8.2365,8.2717,8.3208,8.3317,8.3263,8.2936,8.2468,8.2052,8.2052,8.1564,8.1398,8.2389,8.2608,8.2826,8.3426,8.3589,8.3589,8.3589,8.3426,8.3208,8.2936,8.2608,8.2193,8.1501,8.0979,8.0511,8.0112,8.0112,8.0112,8.0112,8.0112,8.0556,8.1585,8.1655,8.26,8.4826,8.4213,8.4539,8.6223,8.6398,8.631,8.5991,8.7145,8.7109,8.5874,8.5379,8.4556,6.7832,7.138,7.4206,7.9698,8.0555,8.0325,8.1538,8.182,8.1792,8.1571,8.1406,8.0043,7.5937,7.5115,7.588,7.8532,7.8929,8.0621,8.5522,8.6167,8.4511,8.0193,7.9744,7.8708,7.6041,8.0104,8.2804,8.2569,8.2694,8.3327,8.4502,8.4582,8.68,9.1687,9.1871,9.2342,9.3488,9.3488,9.3488,9.3515,9.4716,9.5239,9.5166,9.644,9.4945,9.1484,9.5345,9.3893,8.9148,9.4126,9.376,9.0259,9.1361,9.0337,8.8175,8.8116,8.7045,8.5567,8.5461,8.4741,8.3634,8.2061,8.1983,8.231,8.1264,8.176,8.2608,8.2662,8.2662,8.2802,8.3371,8.3045,8.2553,8.2553,8.2193,8.1942,8.2498,8.2608,8.2826,8.3426,8.3589,8.3589,8.3589,8.3099,8.2881,8.3426,8.2577,8.1446,8.0335,8.0168,8.0112,8.0112,8.0112,8.0112,8.0112,8.0112,8.0556,8.1585,8.1655,8.2123,8.3257,8.3257,8.3993,8.5567,8.621,8.7237,8.8834,8.8532,8.7535,8.5874,8.5379,8.3701,6.4034,6.7765,7.1311,7.6212,7.8521,7.9649,8.0126,8.08,8.1189,8.0709,7.9715,7.8497,7.7092,7.4697,7.4093,7.7561,7.5957,7.6431,8.2698,8.0305,7.8853,8.1366,7.8365,7.7533,8.1245,8.0744,7.9557,7.7931,8.2236,8.5434,8.6626,8.6707,8.7889,9.0561,9.0615,9.0834,9.1243,9.2035,9.2342,9.2369,9.357,9.4143,9.4143,9.463,9.4466,9.3883,9.5306,9.52,9.4253,9.6062,9.5238,9.2916,9.336,9.2696,9.1401,8.9857,8.9132,8.8769,8.7616,8.724,8.6853,8.4638,8.373,8.3412,8.234,8.176,8.1595,8.1973,8.2107,8.2138,8.2382,8.1949,8.1485,8.1485,8.1066,8.0891,8.1374,8.1485,8.165,8.2303,8.2468,8.2468,8.2468,8.2248,8.2028,8.187,8.12,8.0669,8.0622,8.0312,8.0112,8.0112,8.0701,8.1065,8.1065,8.1065,8.2439,8.5701,8.3821,8.381,8.6365,8.5303,8.4836,8.5165,8.5799,8.6623,8.7502,8.7423,8.7033,8.6393,8.518,8.4226,6.0236,6.354,6.7549,7.2813,7.555,7.7413,7.9077,7.9976,8.0343,7.9964,7.9232,7.8677,7.8826,7.6712,7.5749,7.8429,7.6617,7.6438,8.0944,7.8213,7.6948,8.0112,7.7084,7.5937,7.9082,7.8732,7.8375,7.8529,8.2999,8.6291,8.7631,8.7575,8.8029,8.9304,8.9359,8.955,8.9987,9.0779,9.138,9.1762,9.2533,9.3106,9.3488,9.3488,9.3925,9.4689,9.4689,9.5126,9.5991,9.6401,9.5359,9.3569,9.3967,9.338,9.2077,9.0525,9.0698,9.1373,8.9212,8.8578,8.8332,8.5998,8.4948,8.4462,8.3192,8.2363,8.2017,8.2441,8.206,8.1618,8.2197,8.1532,8.0726,8.1106,8.0923,8.078,8.1121,8.1177,8.1287,8.1722,8.1856,8.1856,8.1856,8.1856,8.1611,8.0987,8.0733,8.0868,8.1374,8.0979,8.0669,8.0669,8.1636,8.2207,8.2207,8.2557,8.416,8.7426,8.5243,8.4954,8.7544,8.6746,8.5891,8.5262,8.6617,8.7266,8.7213,8.7437,8.7687,8.7844,8.6378,8.5789,5.7086,5.9269,6.2991,6.9743,7.199,7.3765,7.8424,7.9341,7.9317,7.9778,8.0498,8.1237,8.1712,8.1724,8.1696,8.182,8.1724,8.1507,8.1143,8.1062,7.983,7.6536,7.6044,7.3951,6.8761,7.373,7.94,8.4519,8.4638,8.524,8.6897,8.65,8.6773,8.7974,8.8002,8.8575,8.9878,8.9905,9.0506,9.1605,9.168,9.226,9.3406,9.3406,9.3461,9.3537,9.3537,9.3537,9.3647,9.4744,9.3863,9.1937,9.3044,9.2085,8.9977,8.9926,9.1415,9.3044,8.9967,8.8623,8.7854,8.6027,8.5585,8.5433,8.373,8.3578,8.3981,8.3981,8.2487,8.1293,8.3008,8.1904,8.0633,8.1662,8.1846,8.1791,8.1791,8.1815,8.1784,8.1753,8.1808,8.1887,8.1856,8.1856,8.1587,8.1042,8.1406,8.2011,8.2566,8.2207,8.1901,8.1956,8.2856,8.3517,8.3487,8.4412,8.5484,8.66,8.5634,8.5506,8.6622,8.72,8.7049,8.5989,8.8594,8.9372,8.8273,8.8906,8.9498,9.0079,8.8991,8.8191,6.2759,6.4445,6.5645,6.8319,7.1129,7.353,7.4877,7.5764,7.7007,7.9303,8.038,8.1091,8.1731,7.9128,7.7982,8.131,7.9368,7.8424,8.1257,8.1293,8.0692,7.9789,7.7506,7.5321,7.3562,7.7312,7.9721,7.9373,8.1769,8.3876,8.5168,8.5133,8.559,8.6746,8.6773,8.6937,8.7338,8.8138,8.8739,8.9093,9.0042,9.067,9.0998,9.1871,9.2886,9.4072,9.4072,9.4072,9.405,9.3991,9.3605,9.3056,9.338,9.3597,9.3652,9.2823,9.2934,9.3226,9.1513,9.1116,9.08,8.7855,8.6877,8.6489,8.4382,8.3578,8.3401,8.3401,8.2996,8.2766,8.3579,8.3118,8.255,8.3238,8.1934,8.059,8.059,8.1249,8.1377,7.9758,8.1344,8.2699,8.1997,8.1856,8.1887,8.2114,8.1227,8.1143,8.2696,8.2799,8.3214,8.4621,8.5699,8.606,8.5405,8.5632,8.7053,9.0097,8.7672,8.7382,9.0319,8.9324,8.846,8.7737,8.7983,8.8187,8.8241,8.8395,8.8446,8.8263,8.8371,8.8572,5.9058,5.9015,5.9279,6.1421,6.382,6.6397,6.9167,7.1189,7.3238,7.6064,7.8401,8.0309,8.1366,7.993,7.9394,8.2064,8.0959,8.035,8.2028,8.196,8.145,8.06,7.9364,7.8447,7.8066,7.9463,8.0019,7.9125,8.0909,8.2591,8.4014,8.4562,8.5093,8.5805,8.6326,8.6645,8.6645,8.7102,8.7565,8.8056,8.8821,8.9495,9.0014,9.0697,9.1572,9.2519,9.3013,9.3232,9.3239,9.3444,9.3488,9.3488,9.3488,9.3925,9.4334,9.2642,9.2063,9.1899,9.0861,9.0754,9.0581,8.8128,8.7244,8.6907,8.5404,8.4729,8.4487,8.4487,8.3877,8.3393,8.4104,8.344,8.2717,8.3476,8.2793,8.2128,8.2629,8.319,8.3313,8.256,8.3518,8.4245,8.3665,8.2871,8.2871,8.4476,8.4316,8.393,8.3778,8.4876,8.5617,8.5443,8.6708,8.7548,8.7507,8.7925,8.8893,9.0719,8.9393,8.9334,9.1057,9.146,9.111,8.9862,9.0033,8.9889,8.9293,8.8518,8.8453,8.9072,8.8722,8.906,4.9711,4.816,4.9076,5.2251,5.3672,5.5842,0.0,6.5083,6.7491,7.008,7.3886,7.7259,7.9126,8.0517,8.1646,8.2446,8.363,8.4081,8.3026,8.2975,8.2352,8.0491,8.1434,8.2125,8.1943,8.0532,8.0208,8.1548,8.1041,8.1391,8.3027,8.41,8.459,8.4431,8.5982,8.6669,8.6369,8.6327,8.6828,8.7865,8.7865,8.8438,8.9577,8.9714,8.9816,8.9945,9.1121,9.164,9.1701,9.2718,9.3106,9.3106,9.3106,9.3106,9.2833,9.0779,8.9987,8.9918,8.9032,8.8667,8.8365,8.7154,8.6731,8.6531,8.6081,8.57,8.5501,8.5664,8.4131,8.287,8.4437,8.3481,8.247,8.3924,8.4754,8.5459,8.6623,8.6673,8.6745,8.7542,8.7065,8.6455,8.6177,8.4649,8.4498,8.7406,8.8487,8.8114,8.5575,8.7657,8.8399,8.5794,8.7071,8.8548,8.9617,9.0472,9.0508,8.9589,9.0546,9.0877,9.0149,9.2944,9.3632,9.1754,9.2799,9.2551,9.0776,8.9142,8.9321,9.1212,8.9808,8.9503,0.0,0.0,0.0,0.0,0.0,0.0,0.0,5.4777,5.612,5.9539,6.2271,6.4855,6.7707,6.8749,7.0983,7.6524,7.8259,7.992,8.2868,8.3926,8.4195,8.381,8.2836,8.26,8.3403,8.091,7.9891,8.1545,8.0291,8.0034,8.1321,8.1552,8.1204,8.0151,8.3352,8.4104,8.2094,8.4894,8.6391,8.661,8.661,8.6746,8.7092,8.7974,8.8671,8.9097,9.04,9.097,9.0951,9.0751,9.067,9.067,9.067,9.067,9.0615,9.0178,8.9987,8.9823,8.8633,8.7567,8.6628,8.5424,8.4429,8.3636,8.3504,8.2022,8.0539,8.1486,8.003,7.932,8.4234,8.5225,8.5969,9.0055,8.9868,8.8873,8.909,8.9857,8.9667,8.7114,8.8622,8.9667,8.7674,8.7031,8.7234,8.8581,8.761,8.7093,8.8079,8.8733,8.9472,9.045,9.0914,9.1203,9.1418,9.0973,9.0223,8.9202,8.9676,9.0269,9.1081,9.1013,9.1139,9.1407,9.0768,9.0617,9.0926,9.0566,9.0409,9.0437,9.0713,8.9677,0.0,0.0,0.0,0.0,0.0,0.0,0.0,0.0,0.0,0.0,0.0,5.8353,6.0699,0.0,6.9853,7.3419,7.8024,8.1891,8.3976,8.4664,8.5161,8.5716,8.4577,8.4103,8.5135,8.3238,8.2165,8.2757,8.2374,8.1861,8.1286,8.0701,7.9795,7.8481,8.0338,8.1004,8.0279,8.3708,8.5426,8.5426,8.6054,8.6282,8.6309,8.691,8.7321,8.7577,8.8272,8.8876,8.9378,8.9125,8.9414,8.9878,8.8649,8.8157,8.8021,8.7047,8.733,8.7911,8.6308,8.5588,8.5344,8.4743,8.3733,8.2821,8.2821,8.2155,8.1546,8.2128,8.142,8.1414,8.5444,8.6166,8.6697,9.017,9.0592,9.039,9.1052,9.1987,9.2184,9.0452,9.1475,9.2015,9.0153,8.9794,9.0407,9.2145,9.1616,9.0966,9.0966,9.1837,9.1949,9.0601,8.9538,8.9209,8.9943,8.7739,8.7244,8.937,8.9974,9.0335,9.0518,9.0431,9.0593,9.1053,8.9738,8.918,8.9404,8.8188,8.7441,8.7178,8.7347,8.6698,0.0,0.0,0.0,0.0,0.0,0.0,0.0,0.0,0.0,0.0,0.0,0.0,0.0,0.0,0.0,6.9925,7.7637,8.3737,8.4597,8.4492,8.4872,8.6356,8.5413,8.5116,8.6444,8.5169,8.4286,8.4443,8.4757,8.407,8.2165,8.0899,7.9527,7.8017,7.8421,7.8831,7.919,8.2547,8.4225,8.4225,8.518,0.0,8.5645,8.5863,8.5591,8.493,8.5646,8.6246,8.667,8.6927,8.7939,8.9031,8.6573,8.5645,8.5444,8.3838,8.4271,8.5417,8.3827,8.3504,8.3842,8.3842,8.293,8.1798,8.1927,8.2092,0.0,8.2684,8.2751,8.3459,8.6415,8.6816,8.7058,8.973,9.1,9.1878,9.2957,9.3175,9.3349,9.3809,9.3116,9.2495,9.2313,9.1448,9.1107,9.2194,9.2512,9.2091,9.0534,9.2404,9.2555,8.9064,8.7735,8.7459,8.8361,8.4308,8.4109,8.9657,8.9314,8.8455,8.7396,8.7688,8.7475,8.6534,8.5445,8.5289,8.6249,8.4354,8.376,8.4164,8.036,7.9655,0.0,0.0,0.0,0.0,0.0,0.0,0.0,0.0,0.0,0.0,0.0,0.0,0.0,0.0,0.0,0.0,7.1836,7.9279,8.2756,8.2152,8.2308,8.4859,8.3711,8.3809,8.6569,8.4108,8.3403,8.6024,8.4929,8.3983,8.3713,8.226,0.0,0.0,0.0,7.9574,7.7496,8.1151,8.3012,8.3012,8.3149,8.3203,8.3258,8.4279,8.2896,7.9916,8.3274,8.3619,8.1763,8.291,8.4716,8.6491,8.416,8.3203,8.3176,8.2946,8.3028,8.3176,8.2946,0.0,0.0,8.126,7.9773,7.8107,7.8786,7.7542,7.6225,7.7967,7.8448,7.9723,8.5327,8.7438,8.9297,9.3955,9.5131,9.5306,9.5422,9.299,9.1382,9.3478,9.0458,8.8814,9.2942,8.9651,8.4906,8.045,8.0691,8.1286,8.1036,8.4435,8.7026,8.7437,8.9739,0.0,8.9885,8.4159,8.3301,8.9599,8.4738,8.0934,7.9322,7.8141,7.5527,7.1401,7.1691,7.4714,8.0441,8.0746,8.2202,8.4295,6.8507,6.5145,0.0,0.0,0.0,0.0,0.0,0.0,0.0,0.0,0.0,0.0,0.0,0.0,0.0,0.0,0.0,0.0,6.4447,7.2227,7.3859,7.4742,7.7056,8.2005,8.1803,8.2456,8.547,8.449,8.4547,8.6581,8.65,8.6089,8.5465,8.326,8.1132,7.9362,7.8554,7.7997,7.7615,8.0316,8.1685,8.1685,8.2466,8.2821,8.2821,8.334,8.2678,8.1248,8.2831,8.2951,8.2022,8.2575,8.3395,8.4088,0.0,0.0,0.0,0.0,8.3804,8.4052,8.2354,8.1728,8.1571,8.102,7.9746,7.8381,7.8492,7.8122,7.7959,7.9306,7.9693,8.0691,8.5192,8.6932,8.8359,9.1624,9.3009,9.3604,9.3604,9.2959,9.2497,9.2722,9.1747,0.0,9.2561,9.0227,8.8189,8.8258,8.8702,8.9001,8.9001,9.0543,9.1173,9.0096,8.9092,8.8566,8.8855,8.4262,0.0,0.0,0.0,8.5444,8.4174,8.3605,0.0,0.0,0.0,7.1097,7.3077,6.7957,0.0,0.0,6.1244,5.9781,0.0,0.0,0.0,0.0,0.0,0.0,0.0,0.0,0.0,0.0,0.0,0.0,0.0,0.0,0.0,0.0,5.725,6.3961,6.3377,6.6967,7.1411,7.6145,7.8317,8.0339,8.2496,8.3388,8.4524,8.6213,8.6878,8.6869,8.6131,8.4012,8.2437,8.1485,7.9435,7.8739,7.9626,8.1016,8.1744,8.1744,8.2661,8.288,8.251,8.2841,8.215,8.0846,8.2318,8.2572,8.1985,8.2355,8.2853,8.3353,8.2411,8.2605,8.354,8.4288,8.5,8.5271,8.3171,8.2561,8.261,8.1923,8.0622,7.931,7.9268,7.966,8.0325,8.1203,8.1913,8.3046,8.5454,8.6653,8.7594,8.9122,9.0217,9.0885,9.0885,9.0873,9.0823,9.0848,9.1642,9.1603,8.9562,8.8369,8.8332,9.0054,9.0614,9.0916,9.1289,9.2368,9.2439,9.0852,8.882,8.787,8.8536,8.428,8.3851,8.9105,8.7816,8.7318,8.8441,8.6282,8.3927,8.1502,7.3479,6.8437,0.0,0.0,0.0,0.0,0.0,0.0,0.0,0.0,0.0,0.0,0.0,0.0,0.0,0.0,0.0,0.0,0.0,0.0,0.0,0.0,0.0,0.0,0.0,0.0,5.2682,6.0176,6.5933,6.6169,7.251,7.6941,7.7033,7.9429,8.2101,8.4801,8.5016,8.5046,8.501,8.4699,8.448,8.4402,8.3977,8.3713,8.3771,8.3858,8.3887,8.3887,8.3916,8.3118,8.1712,8.2855,8.0553,7.5939,8.1092,8.2003,7.9863,8.1156,8.3024,8.5079,8.5011,8.5013,8.5156,8.5801,8.6038,8.6075,8.5985,8.507,8.3916,8.3877,8.2054,8.0002,8.0741,8.1078,8.1347,8.2146,8.4109,8.595,8.6076,8.7065,8.8024,8.8093,8.8152,8.8152,8.8152,8.5502,8.4142,8.7527,8.821,8.6954,8.2864,8.2129,8.0803,7.7045,7.74,0.0,7.9864,8.3539,8.6417,8.731,9.0023,9.128,9.0059,8.413,8.2711,8.778,8.2294,8.1651,8.7809,8.0326,7.5737,7.5124,6.9625,6.5228,6.2038,0.0,0.0,0.0,0.0,0.0,0.0,0.0,0.0,0.0,0.0,0.0,0.0,0.0,0.0,0.0,0.0,0.0,0.0,0.0,0.0,0.0,0.0,0.0,0.0,5.4344,6.0681,6.2738,6.6598,6.8438,6.6897,6.9997,7.3251,7.599,7.9941,8.3053,8.4862,8.4877,8.4815,8.4815,8.451,8.4363,8.4363,8.411,8.3983,8.3983,8.3983,8.3675,8.3199,8.3591,8.2793,8.1206,8.3026,8.3269,8.2564,8.3014,8.4623,8.6678,8.5572,8.5421,8.5897,8.6697,8.6988,8.7126,8.7721,8.7187,8.6208,8.5601,8.4496,8.3444,8.3903,8.3732,8.3718,8.5013,8.5997,8.6837,8.7675,8.8129,8.8302,8.8302,8.8161,8.8035,8.8035,8.7134,8.6648,8.7827,8.4633,8.0762,7.7607,8.1279,8.2736,7.7163,8.1018,8.4657,8.5114,8.6404,8.7409,8.7772,8.8726,8.9199,8.8762,8.6745,8.6202,8.7948,8.605,8.542,8.6716,8.4081,8.2093,8.1036,7.8128,7.0153,5.7047,0.0,0.0,0.0,0.0,0.0,0.0,0.0,0.0,0.0,0.0,0.0,0.0,0.0,0.0,0.0,0.0,0.0,0.0,0.0,0.0,0.0,0.0,0.0,0.0,0.0,0.0,5.9908,6.2613,0.0,6.0497,6.2553,6.479,6.6543,7.0523,7.4924,7.9578,8.0093,8.144,8.4156,8.4521,8.4699,8.4699,8.4443,8.4555,8.5007,8.5007,8.4946,8.4891,8.4891,8.452,8.4022,8.4625,8.4891,8.4841,8.4489,8.4498,8.4591,8.2777,8.1536,8.085,8.1596,8.292,8.4563,8.5979,8.7173,8.7851,8.6695,8.3558,8.0129,7.9628,7.7809,7.6466,7.9176,8.1376,8.3326,8.5276,8.7161,8.8446,8.789,8.763,8.7349,8.6787,8.5621,8.5243,8.721,8.268,7.7713,7.5202,7.8422,7.9768,7.5268,7.9543,8.408,8.6407,8.7483,8.8035,8.8035,8.8035,8.8035,8.8035,8.7628,8.7366,8.7366,8.693,8.628,8.5466,8.5408,8.3751,8.0146,7.8415,7.0086,0.0,0.0,0.0,0.0,0.0,0.0,0.0,0.0,0.0,0.0,0.0,0.0,0.0,0.0,0.0,0.0,0.0,0.0,0.0,0.0,0.0,0.0,0.0,0.0,0.0,0.0,0.0,5.7063,6.0061,0.0,0.0,0.0,0.0,5.6879,5.7747,6.1615,6.9387,7.0546,7.4377,8.1763,8.3483,8.4374,8.4555,8.4865,8.5602,8.6766,8.6766,8.6677,8.6415,8.6415,8.5541,8.4115,8.572,8.6415,8.6315,8.4866,8.2268,7.9001,7.6939,7.4007,7.0945,7.0979,7.4054,7.8551,8.1281,8.4998,8.8233,8.6557,7.9465,7.1169,6.9016,6.4613,0.0,0.0,7.1022,7.5889,7.921,8.4118,8.7933,8.6794,8.6482,8.5972,8.4511,8.1225,8.0023,8.4984,8.1565,7.7022,7.4346,0.0,7.1545,7.0385,7.2654,7.6693,8.287,8.6145,8.7861,8.7861,8.7861,8.7861,8.7861,8.6756,8.6018,8.6018,8.4855,8.4148,8.4148,8.38,8.0146,7.2733,7.0532,0.0,0.0,0.0,0.0,0.0,0.0,0.0,0.0,0.0,0.0,0.0,0.0,0.0,0.0,0.0,0.0,0.0,0.0,0.0,0.0,0.0,0.0,0.0,0.0,0.0,0.0,4.4721,4.9038,5.0083,5.0816,4.8895,0.0,0.0,0.0,0.0,0.0,0.0,5.9429,6.0031,6.2659,6.7811,7.2598,7.6312,7.8845,8.3389,8.5581,8.5445,8.5449,8.5398,8.5353,8.5353,8.5115,8.4702,8.515,8.5353,8.4835,7.8128,7.5311,7.4807,7.1076,6.8997,6.7557,6.2879,6.5189,7.1773,7.9749,8.1947,8.0648,7.7244,7.5434,7.3467,6.7087,0.0,0.0,0.0,0.0,6.9631,7.5785,7.8394,8.0765,8.599,8.6141,8.4937,8.4439,8.135,7.8067,7.5956,7.1837,6.6398,5.9208,5.9886,0.0,6.0112,6.6777,7.3145,7.6635,8.1803,8.5175,8.5175,8.5175,8.5175,8.5175,8.4855,8.4681,8.4681,8.4323,8.4148,8.4148,7.8664,7.4172,7.1039,0.0,0.0,0.0,0.0,0.0,0.0,0.0,0.0,0.0,0.0,0.0,0.0,0.0,0.0,0.0,0.0,0.0,0.0,0.0,0.0,0.0,0.0,0.0,0.0,0.0,0.0,0.0,4.0058,4.5131,4.7575,4.615,4.2879,0.0,0.0,0.0,0.0,0.0,0.0,0.0,0.0,0.0,5.8839,6.232,6.528,6.783,7.425,7.7613,7.7893,8.1129,8.3324,8.4495,8.4464,8.4773,8.5298,8.3368,8.0491,7.6815,7.1707,6.811,6.5235,0.0,0.0,0.0,0.0,5.4385,5.9609,6.8637,7.0898,6.9275,6.6262,0.0,0.0,0.0,0.0,0.0,0.0,0.0,6.5723,7.5133,7.9407,8.2094,8.5416,8.5338,8.4548,8.4367,7.5555,6.7566,6.7279,6.2828,5.7337,5.1711,5.1328,0.0,0.0,0.0,6.8184,7.2552,7.9998,8.5,8.516,8.458,8.4148,8.4148,8.4148,8.4148,8.4148,8.4148,8.2405,7.8518,7.3663,6.7174,0.0,0.0,0.0,0.0,0.0,0.0,0.0,0.0,0.0,0.0,0.0,0.0,0.0,0.0,0.0,0.0,0.0,0.0,0.0,0.0,0.0,0.0,0.0,0.0,0.0,0.0,0.0,0.0,0.0,4.2037,4.6112,0.0,0.0,0.0,0.0,0.0,0.0,0.0,0.0,0.0,0.0,0.0,0.0,0.0,5.3271,5.4961,6.1792,6.5772,6.6962,7.371,7.8221,8.058,8.0611,8.1573,8.2844,7.8585,0.0,6.7005,6.4936,0.0,0.0,0.0,0.0,0.0,0.0,0.0,0.0,0.0,0.0,0.0,0.0,0.0,0.0,0.0,0.0,0.0,0.0,0.0,0.0,0.0,0.0,8.3662,8.112,8.1294,8.1703,8.0269,6.5834,5.4359,5.8634,5.4404,4.9382,0.0,0.0,0.0,0.0,0.0,0.0,6.958,7.9554,8.6157,8.6484,8.5126,8.4175,8.4187,8.4148,8.409,8.3954,8.285,7.8634,7.0763,6.8375,0.0,0.0,0.0,0.0,0.0,0.0,0.0,0.0,0.0,0.0,0.0,0.0,0.0,0.0,0.0,0.0,0.0,0.0,0.0,0.0,0.0,0.0,0.0,0.0,0.0,0.0,0.0,0.0,0.0,0.0,0.0,0.0,0.0,0.0,0.0,0.0,0.0,0.0,0.0,0.0,0.0,0.0,0.0,0.0,0.0,0.0,0.0,0.0,0.0,0.0,6.0573,6.2499,6.2798,6.3745,6.5669,6.8037,6.3842,6.375,6.5809,5.5592,0.0,0.0,0.0,0.0,0.0,0.0,0.0,0.0,0.0,0.0,0.0,0.0,0.0,0.0,0.0,0.0,0.0,0.0,0.0,0.0,0.0,0.0,6.5366,6.0252,6.4122,6.6738,5.8537,0.0,0.0,0.0,0.0,0.0,0.0,0.0,0.0,0.0,0.0,0.0,6.5923,7.8268,8.6551,8.6475,8.5198,8.4281,8.4177,8.4148,8.3751,8.278,7.5762,7.0469,0.0,0.0,0.0,0.0,0.0,0.0,0.0,0.0,0.0,0.0,0.0,0.0,0.0,0.0,0.0,0.0,0.0,0.0,0.0,0.0,0.0,0.0,0.0,0.0,0.0,0.0,0.0,0.0,0.0,0.0,0.0,0.0,0.0,0.0,0.0,0.0,0.0,0.0,0.0,0.0,0.0,0.0,0.0,0.0,0.0,0.0,0.0,0.0,0.0,0.0,0.0,0.0,0.0,0.0,0.0,0.0,0.0,0.0,5.6111,5.0896,0.0,0.0,0.0,0.0,0.0,0.0,0.0,0.0,0.0,0.0,0.0,0.0,0.0,0.0,0.0,0.0,0.0,0.0,0.0,0.0,0.0,0.0,0.0,0.0,0.0,0.0,0.0,0.0,0.0,0.0,0.0,0.0,0.0,0.0,0.0,0.0,0.0,0.0,0.0,0.0,6.4086,7.7426,8.652,8.6611,8.5266,8.4281,8.4186,8.3576,8.1325,7.6728,7.1141,0.0,0.0,0.0,0.0,0.0,0.0,0.0,0.0,0.0,0.0,0.0,0.0,0.0,0.0,0.0,0.0,0.0,0.0,0.0,0.0,0.0,0.0,0.0,0.0,0.0,0.0,0.0,0.0,0.0,0.0,0.0,0.0,0.0,0.0,0.0,0.0,0.0,0.0,0.0,0.0,0.0,0.0,0.0,0.0,0.0,0.0,0.0,0.0,0.0,0.0,0.0,0.0,0.0,0.0,0.0,0.0,0.0,0.0,0.0,4.9498,4.0171,0.0,0.0,0.0,0.0,0.0,0.0,0.0,0.0,0.0,0.0,0.0,0.0,0.0,0.0,0.0,0.0,0.0,0.0,0.0,0.0,0.0,0.0,0.0,0.0,0.0,0.0,0.0,0.0,0.0,0.0,0.0,0.0,0.0,0.0,0.0,0.0,0.0,0.0,0.0,0.0,6.5093,7.7786,8.6515,8.6661,8.5063,8.3923,8.3797,8.2669,7.8554,7.0488,6.6047,0.0,0.0,0.0,0.0,0.0,0.0,0.0,0.0,0.0,0.0,0.0,0.0,0.0,0.0,0.0,0.0,0.0,0.0,0.0,0.0,0.0,0.0,0.0,0.0,0.0,0.0,0.0,0.0,0.0,0.0,0.0,0.0,0.0,0.0,0.0,0.0,0.0,0.0,0.0,0.0,0.0,0.0,0.0,0.0,0.0,0.0,0.0,0.0,0.0,0.0,0.0,0.0,0.0,0.0,0.0,0.0,0.0,0.0,0.0,0.0,0.0,0.0,0.0,0.0,0.0,0.0,0.0,0.0,0.0,0.0,0.0,0.0,0.0,0.0,0.0,0.0,0.0,0.0,0.0,0.0,0.0,0.0,0.0,0.0,0.0,0.0,0.0,0.0,0.0,0.0,0.0,0.0,0.0,0.0,0.0,0.0,0.0,0.0,0.0,0.0,0.0,7.1124,8.0401,8.6787,8.6711,8.4349,8.2729,8.2593,8.1389,7.6668,6.7318,0.0,0.0,0.0,0.0,0.0,0.0,0.0,0.0,0.0,0.0,0.0,0.0,0.0,0.0,0.0,0.0,0.0,0.0,0.0,0.0,0.0,0.0,0.0,0.0,0.0,0.0,0.0,0.0,0.0,0.0,0.0,0.0,0.0,0.0,0.0,0.0,0.0,0.0,0.0,0.0,0.0,0.0,0.0,0.0,0.0,0.0,0.0,0.0,0.0,0.0,0.0,0.0,0.0,0.0,0.0,0.0,0.0,0.0,0.0,0.0,0.0,0.0,0.0,0.0,0.0,0.0,0.0,0.0,0.0,0.0,0.0,0.0,0.0,0.0,0.0,0.0,0.0,0.0,0.0,0.0,0.0,0.0,0.0,0.0,0.0,0.0,0.0,0.0,0.0,0.0,0.0,0.0,0.0,0.0,0.0,0.0,0.0,0.0,0.0,0.0,0.0,0.0,6.4299,7.7109,8.5594,8.5549,8.3547,8.2304,8.2447,8.0312,7.3344,6.0084,0.0,0.0,0.0,0.0,0.0,0.0,0.0,0.0,0.0,0.0,0.0,0.0,0.0,0.0,0.0,0.0,0.0,0.0,0.0,0.0,0.0,0.0,0.0,0.0,0.0,0.0,0.0,0.0,0.0,0.0,0.0,0.0,0.0,0.0,0.0,0.0,0.0,0.0,0.0,0.0,0.0,0.0,0.0,0.0,0.0,0.0,0.0,0.0,0.0,0.0,0.0,0.0,0.0,0.0,0.0,0.0,0.0,0.0,0.0,0.0,0.0,0.0,0.0,0.0,0.0,0.0,0.0,0.0,0.0,0.0,0.0,0.0,0.0,0.0,0.0,0.0,0.0,0.0,0.0,0.0,0.0,0.0,0.0,0.0,0.0,0.0,0.0,0.0,0.0,0.0,0.0,0.0,0.0,0.0,0.0,0.0,0.0,0.0,0.0,0.0,0.0,0.0,6.126,7.5119,8.4127,8.444,8.2938,8.204,8.2238,7.955,7.1132,5.5274,0.0,0.0,0.0,0.0,0.0,0.0,0.0,0.0,0.0,0.0,0.0,0.0,0.0,0.0,0.0,0.0,0.0,0.0,0.0,0.0,0.0,0.0,0.0,0.0,0.0,0.0,0.0,0.0,0.0,0.0,0.0,0.0,0.0,0.0,0.0,0.0,0.0,0.0,0.0,0.0,0.0,0.0,0.0,0.0,0.0,0.0,0.0,0.0,0.0,0.0,0.0,0.0,0.0,0.0,0.0,0.0,0.0,0.0,0.0,0.0,0.0,0.0,0.0,0.0,0.0,0.0,0.0,0.0,0.0,0.0,0.0,0.0,0.0,0.0,0.0,0.0,0.0,0.0,0.0,0.0,0.0,0.0,0.0,0.0,0.0,0.0,0.0,0.0,0.0,0.0,0.0,0.0,0.0,0.0,0.0,0.0,0.0,0.0,0.0,0.0,0.0,0.0,6.5874,7.6138,8.2659,8.3707,8.2628,8.1854,8.1823,7.9328,7.0815,0.0,0.0,0.0,0.0,0.0,0.0,0.0,0.0,0.0,0.0,0.0,0.0,0.0,0.0,0.0,0.0,0.0,0.0,0.0,0.0,0.0,0.0,0.0,0.0,0.0,0.0,0.0,0.0,0.0,0.0,0.0,0.0,0.0,0.0,0.0,0.0,0.0,0.0,0.0,0.0,0.0,0.0,0.0,0.0,0.0,0.0,0.0,0.0,0.0,0.0,0.0,0.0,0.0,0.0,0.0,0.0,0.0,0.0,0.0,0.0,0.0,0.0,0.0,0.0,0.0,0.0,0.0,0.0,0.0,0.0,0.0,0.0,0.0,0.0,0.0,0.0,0.0,0.0,0.0,0.0,0.0,0.0,0.0,0.0,0.0,0.0,0.0,0.0,0.0,0.0,0.0,0.0,0.0,0.0,0.0,0.0,0.0,0.0,0.0,0.0,0.0,0.0,0.0,5.7864,6.8028,7.5616,8.0461,7.9595,7.8783,7.9025,7.7121,6.9021,5.2859,0.0,0.0,0.0,0.0,0.0,0.0,0.0,0.0,0.0,0.0,0.0,0.0,0.0,0.0,0.0,0.0,0.0,0.0,0.0,0.0,0.0,0.0,0.0,0.0,0.0,0.0,0.0,0.0,0.0,0.0,0.0,0.0,0.0,0.0,0.0,0.0,0.0,0.0,0.0,0.0,0.0,0.0,0.0,0.0,0.0,0.0,0.0,0.0,0.0,0.0,0.0,0.0,0.0,0.0,0.0,0.0,0.0,0.0,0.0,0.0,0.0,0.0,0.0,0.0,0.0,0.0,0.0,0.0,0.0,0.0,0.0,0.0,0.0,0.0,0.0,0.0,0.0,0.0,0.0,0.0,0.0,0.0,0.0,0.0,0.0,0.0,0.0,0.0,0.0,0.0,0.0,0.0,0.0,0.0,0.0,0.0,0.0,0.0,0.0,0.0,0.0,0.0,0.0,6.4891,7.3242,7.8751,7.8397,7.7868,7.8104,7.6174,6.8287,5.2691,0.0,0.0,0.0,0.0,0.0,0.0,0.0,0.0,0.0,0.0,0.0,0.0,0.0,0.0,0.0,0.0,0.0,0.0,0.0,0.0,0.0,0.0,0.0,0.0,0.0,0.0,0.0,0.0,0.0,0.0,0.0,0.0,0.0,0.0,0.0,0.0,0.0,0.0,0.0,0.0,0.0,0.0,0.0,0.0,0.0,0.0,0.0,0.0,0.0,0.0,0.0,0.0,0.0,0.0,0.0,0.0,0.0,0.0,0.0,0.0,0.0,0.0,0.0,0.0,0.0,0.0,0.0,0.0,0.0,0.0,0.0,0.0,0.0,0.0,0.0,0.0,0.0,0.0,0.0,0.0,0.0,0.0,0.0,0.0,0.0,0.0,0.0,0.0,0.0,0.0,0.0,0.0,0.0,0.0,0.0,0.0,0.0,0.0,0.0,0.0,0.0,0.0,0.0,6.5764,7.4157,7.8049,7.837,7.8338,7.8433,7.6043,6.8313,5.3566,4.798,0.0,0.0,0.0,0.0,0.0,0.0,0.0,0.0,0.0,0.0,0.0,0.0,0.0,0.0,0.0,0.0,0.0,0.0,0.0,0.0,0.0,0.0,0.0,0.0,0.0,0.0,0.0,0.0,0.0,0.0,0.0,0.0,0.0,0.0,0.0,0.0,0.0,0.0,0.0,0.0,0.0,0.0,0.0,0.0,0.0,0.0,0.0,0.0,0.0,0.0,0.0,0.0,0.0,0.0,0.0,0.0,0.0,0.0,0.0,0.0,0.0,0.0,0.0,0.0,0.0,0.0,0.0,0.0,0.0,0.0,0.0,0.0,0.0,0.0,0.0,0.0,0.0,0.0,0.0,0.0,0.0,0.0,0.0,0.0,0.0,0.0,0.0,0.0,0.0,0.0,0.0,0.0,0.0,0.0,0.0,0.0,0.0,0.0,0.0,0.0,0.0,0.0,6.2983,6.8985,7.5244,7.49,7.4598,7.5536,7.3228,6.6189,5.3197,4.8618,0.0,0.0,0.0,0.0,0.0,0.0,0.0,0.0,0.0,0.0,0.0,0.0,0.0,0.0,0.0,0.0,0.0,0.0,0.0,0.0,0.0,0.0,0.0,0.0,0.0,0.0,0.0,0.0,0.0,0.0,0.0,0.0,0.0,0.0,0.0,0.0,0.0,0.0,0.0,0.0,0.0,0.0,0.0,0.0,0.0,0.0,0.0,0.0,0.0,0.0,0.0,0.0,0.0,0.0,0.0,0.0,0.0,0.0,0.0,0.0,0.0,0.0,0.0,0.0,0.0,0.0,0.0,0.0,0.0,0.0,0.0,0.0,0.0,0.0,0.0,0.0,0.0,0.0,0.0,0.0,0.0,0.0,0.0,0.0,0.0,0.0,0.0,0.0,0.0,0.0,0.0,0.0,0.0,0.0,0.0,0.0,0.0,0.0,0.0,0.0,0.0,0.0,5.3764,6.1696,7.191,7.2831,7.2746,7.277,7.0953,6.4666,5.2707,4.901,0.0,0.0,0.0,0.0,0.0,0.0,0.0,0.0,0.0,0.0,0.0,0.0,0.0,0.0,0.0,0.0,0.0,0.0,0.0,0.0,0.0,0.0,0.0,0.0,0.0,0.0,0.0,0.0,0.0,0.0,0.0,0.0,0.0,0.0,0.0,0.0,0.0,0.0,0.0,0.0,0.0,0.0,0.0,0.0,0.0,0.0,0.0,0.0,0.0,0.0,0.0,0.0,0.0,0.0,0.0,0.0,0.0,0.0,0.0,0.0,0.0,0.0,0.0,0.0,0.0,0.0,0.0,0.0,0.0,0.0,0.0,0.0,0.0,0.0,0.0,0.0,0.0,0.0,0.0,0.0,0.0,0.0,0.0,0.0,0.0,0.0,0.0,0.0,0.0,0.0,0.0,0.0,0.0,0.0,0.0,0.0,0.0,0.0,0.0,0.0,0.0,0.0,0.0,5.4841,6.7806,7.0828,7.1569,7.0661,6.9201,6.3504,5.217,0.0,0.0,0.0,0.0,0.0,0.0,0.0,0.0,0.0,0.0,0.0,0.0,0.0,0.0,0.0,0.0,0.0,0.0,0.0,0.0,0.0,0.0,0.0,0.0,0.0,0.0,0.0,0.0,0.0,0.0,0.0,0.0,0.0,0.0,0.0,0.0,0.0,0.0,0.0,0.0,0.0,0.0,0.0,0.0,0.0,0.0,0.0,0.0,0.0,0.0,0.0,0.0,0.0,0.0,0.0,0.0,0.0,0.0,0.0,0.0,0.0,0.0,0.0,0.0,0.0,0.0,0.0,0.0,0.0,0.0,0.0,0.0,0.0,0.0,0.0,0.0,0.0,0.0,0.0,0.0,0.0,0.0,0.0,0.0,0.0,0.0,0.0,0.0,0.0,0.0,0.0,0.0,0.0,0.0,0.0,0.0,0.0,0.0,0.0,0.0,0.0,0.0,0.0,0.0,5.3729,6.1937,6.677,6.9688,7.053,6.8382,6.249,5.2005,0.0,0.0,0.0,0.0,0.0,0.0,0.0,0.0,0.0,0.0,0.0,0.0,0.0,0.0]}],[{"header":{"parameterUnit":"kt","parameterCategory":2,"dx":1,"dy":1,"la1":29.285339999999998,"la2":30.599998999999997,"lo1":-89.70041500000002,"lo2":-87.6738589999976,"nx":112,"ny":82,"refTime":"2022-10-31T18:00:00:Z","depth":0,"parameterNumber":2,"parameterNumberName":"V-component_of_WINDS"},"data":[7.9055,8.1802,8.2738,7.2529,7.1474,7.0351,6.0717,6.0253,6.1341,5.9686,6.053,6.2232,6.4419,6.0571,5.6899,5.6428,5.3717,5.0634,0.0,4.8168,4.9385,5.0657,5.6651,6.2201,6.609,6.7132,7.2137,8.325,8.1168,8.383,9.4079,9.0814,9.0294,9.4019,9.4426,9.5562,9.7525,10.0219,10.1514,10.144,10.101,10.0608,10.0278,9.9961,9.9689,9.9552,9.9945,10.0368,10.1025,10.2812,10.3843,10.452,10.6128,10.6841,10.6931,10.7301,10.7389,10.7421,10.7301,10.7051,10.676,10.6576,10.6178,10.5655,10.5262,10.5168,10.5301,10.596,10.5661,10.5332,10.6259,10.5795,10.5168,10.5168,10.5168,10.5168,10.5168,10.5168,10.5168,10.5168,10.5168,10.5168,10.5168,10.5168,10.5168,10.5168,10.5168,10.5168,10.5168,10.5168,10.5168,10.5168,10.5168,10.5168,10.5168,10.5168,10.5168,10.5168,10.5168,10.5168,10.5168,10.5168,10.5168,10.5168,10.5168,10.5168,10.5168,10.5168,10.5168,10.5168,10.5168,10.5168,7.4164,7.7502,7.8806,6.7458,6.6642,6.6145,5.6683,5.6196,5.7163,5.5095,5.7506,5.9448,5.7844,5.6826,5.5662,5.3941,5.3276,5.2117,0.0,4.9819,5.1699,5.5401,6.2574,6.8088,7.0429,7.2014,7.6218,8.4144,8.2122,8.4429,9.3434,9.0239,9.0,9.4163,9.4145,9.5638,9.8859,10.0473,10.1484,10.1925,10.1144,10.0697,10.0577,10.0006,9.9689,9.9507,9.9507,9.9871,10.0563,10.2202,10.32,10.3928,10.5974,10.6819,10.6899,10.7221,10.7269,10.7341,10.7588,10.75,10.7252,10.689,10.6413,10.5923,10.5303,10.5168,10.5168,10.5168,10.5168,10.5168,10.5168,10.5168,10.5168,10.5168,10.5168,10.5168,10.5168,10.5168,10.5168,10.5168,10.5168,10.5168,10.5168,10.5168,10.5168,10.5168,10.5168,10.5168,10.5168,10.5168,10.5168,10.5168,10.5168,10.5168,10.5168,10.5168,10.5168,10.5168,10.5168,10.5168,10.5168,10.5168,10.5168,10.5168,10.5168,10.5168,10.5168,10.5168,10.5168,10.5168,10.5168,10.5168,7.185,7.2327,7.1732,6.1314,5.9596,5.9256,5.4765,5.591,5.7509,5.5918,5.8487,6.0319,5.7929,5.7516,5.6671,5.4189,5.4981,0.0,0.0,5.2879,5.5867,6.2087,6.8707,7.4491,7.884,7.3857,7.4125,8.3193,7.8171,7.9434,9.0408,8.9005,9.0339,9.5638,9.468,9.6332,10.1084,10.1484,10.1925,10.2423,10.1925,10.144,10.1084,10.0532,10.0006,9.9507,9.9507,9.9507,9.9689,10.1631,10.2421,10.2725,10.5397,10.6454,10.6454,10.6495,10.6535,10.6657,10.7389,10.7668,10.758,10.676,10.6507,10.6343,10.5417,10.5168,10.5168,10.5168,10.5168,10.5168,10.5168,10.5168,10.5168,10.5168,10.5168,10.5168,10.5168,10.5168,10.5168,10.5168,10.5168,10.5168,10.5168,10.5168,10.5168,10.5168,10.5168,10.5168,10.5168,10.5168,10.5168,10.5168,10.5168,10.5168,10.5168,10.5168,10.5168,10.5168,10.5168,10.5168,10.5168,10.5168,10.5168,10.5168,10.5168,10.5168,10.5168,10.5168,10.5168,10.5168,10.5168,10.5168,6.2682,6.5575,6.7779,6.1097,6.1753,6.2521,5.6671,5.5107,5.5001,5.5498,5.6121,0.0,0.0,0.0,5.6197,5.6406,0.0,6.1412,5.7856,6.3407,6.9049,7.2302,7.3263,7.6026,8.2077,7.9817,8.1449,8.9732,8.3268,8.2506,9.0695,8.9385,9.0634,9.5523,9.4629,9.6492,10.1454,10.1336,10.1632,10.2423,10.1925,10.144,10.1084,10.0532,10.0006,9.9507,9.9507,9.9507,9.9643,10.1233,10.2085,10.2638,10.429,10.4825,10.4688,10.6046,10.6535,10.6657,10.7389,10.7668,10.758,10.676,10.6507,10.6343,10.5417,10.5168,10.5168,10.5168,10.5168,10.5168,10.5168,10.5168,10.5168,10.5168,10.5168,10.5168,10.5168,10.5168,10.5168,10.5168,10.5168,10.5168,10.5168,10.5168,10.5168,10.5168,10.5168,10.5168,10.5168,10.5168,10.5168,10.5168,10.5168,10.5168,10.5168,10.5168,10.5168,10.5168,10.5168,10.5168,10.5168,10.5168,10.5168,10.5168,10.5168,10.5168,10.5168,10.5168,10.5168,10.5168,10.5168,10.5168,5.9774,6.3324,6.6401,6.0436,6.2799,6.4531,5.6792,5.5538,5.5953,5.5636,0.0,0.0,0.0,0.0,0.0,0.0,6.4493,6.7464,6.4032,7.0024,7.5748,7.832,8.0348,8.2425,8.4576,8.3312,8.4876,9.0965,8.4981,8.3733,8.9773,9.0003,9.1609,9.5215,9.5494,9.7571,10.1601,10.144,10.169,10.2423,10.1925,10.1543,10.1292,10.0637,10.0142,9.9825,9.9598,9.9507,9.9598,10.0653,10.1366,10.1969,10.2912,10.3471,10.397,10.5428,10.6209,10.6657,10.7389,10.7668,10.7588,10.7172,10.68,10.6384,10.5635,10.5303,10.5168,10.5168,10.5168,10.5168,10.5168,10.5168,10.5168,10.5168,10.5168,10.5168,10.5168,10.5168,10.5168,10.5168,10.5168,10.5168,10.5168,10.5168,10.5168,10.5168,10.5168,10.5168,10.5168,10.5168,10.5168,10.5168,10.5168,10.5168,10.5168,10.5168,10.5168,10.5168,10.5168,10.5168,10.5168,10.5168,10.5168,10.5168,10.5168,10.5168,10.5168,10.5168,10.6335,10.8516,10.6212,10.5168,5.9876,6.275,6.5411,5.9315,6.227,6.4647,5.6697,0.0,5.9489,5.812,0.0,6.07,6.2084,0.0,0.0,6.3661,6.9915,7.3951,7.1381,7.5099,7.9165,8.1932,8.7764,9.0141,8.6575,8.5272,8.602,8.9191,8.5048,8.4308,8.8526,9.0501,9.2529,9.4898,9.6634,9.8847,10.1631,10.1675,10.1925,10.2423,10.1969,10.1719,10.1631,10.0832,10.0458,10.0368,9.9871,9.9718,9.9734,10.0187,10.0711,10.1188,10.1528,10.2508,10.3788,10.4677,10.5593,10.6495,10.7269,10.7588,10.7668,10.7668,10.7212,10.6475,10.5974,10.548,10.5168,10.5168,10.5168,10.5168,10.5168,10.5168,10.5168,10.5168,10.5168,10.5168,10.5168,10.5168,10.5168,10.5168,10.5168,10.5352,10.5966,10.6089,10.5874,10.526,10.569,10.6089,10.6089,10.5536,10.5168,10.5168,10.5168,10.5413,10.6028,10.5505,10.5168,10.5168,10.5168,10.5168,10.5168,10.5168,10.5444,10.6058,10.6089,10.5782,10.5168,10.5782,10.8589,11.3198,10.8374,10.6089,5.4498,5.5451,5.7327,5.6937,5.7807,5.9388,0.0,0.0,0.0,7.0372,7.1875,7.2818,7.4544,7.5588,7.6468,7.7266,8.1424,8.3942,8.2151,8.5167,8.75,8.7264,8.8451,8.896,8.8167,8.7939,8.8232,8.9351,8.8058,8.7852,8.9198,8.9635,9.1585,9.5359,9.5885,9.7832,10.1601,10.1675,10.1925,10.2423,10.2379,10.2057,10.1675,10.1498,10.1218,10.092,10.0831,10.0786,10.0786,10.0875,10.1158,10.1543,10.1631,10.2101,10.2785,10.3745,10.4635,10.5552,10.6454,10.7181,10.7668,10.7668,10.7381,10.689,10.6516,10.5789,10.5168,10.5168,10.5168,10.5168,10.5168,10.5168,10.5168,10.5168,10.5168,10.5168,10.5168,10.5168,10.5168,10.5168,10.5168,10.655,11.0986,11.1754,11.0248,10.5813,10.8958,11.1754,11.1754,10.7913,10.5168,10.5168,10.5168,10.6949,11.1385,10.7729,10.5168,10.5168,10.5168,10.5168,10.5168,10.5168,10.7268,11.1662,11.1754,10.9572,10.5168,10.9603,11.2276,11.329,11.2246,11.1754,5.1698,5.2675,5.4575,5.3992,5.6204,0.0,0.0,6.2607,6.5903,7.2039,7.3645,7.5244,7.9522,8.1307,8.2133,8.2124,8.5688,8.8863,9.0066,8.9732,8.9419,8.9419,8.8985,8.8614,8.8614,8.9192,8.9492,8.9404,8.9199,8.9481,9.0552,9.2081,9.422,9.7124,9.8168,9.9754,10.2013,10.1807,10.1925,10.2423,10.2423,10.2306,10.2057,10.1763,10.1543,10.1351,10.1143,10.1084,10.1084,10.1084,10.1499,10.2057,10.2057,10.2494,10.3188,10.3629,10.4382,10.522,10.5676,10.6087,10.6495,10.6949,10.698,10.6769,10.6588,10.6221,10.5861,10.605,10.6108,10.6293,10.701,10.7533,10.7871,10.7871,10.8589,10.9265,10.9265,10.9265,10.9265,10.9265,10.9265,11.0126,11.286,11.3321,11.2399,10.9665,11.157,11.3321,11.3321,11.0924,10.9265,10.9265,10.9265,11.0371,11.3075,11.0832,10.9265,10.9265,10.9265,10.9265,10.9265,10.9265,11.0556,11.326,11.3321,11.2,10.9265,11.2,11.3321,11.3321,11.3321,11.3321,4.973,5.1182,5.3435,5.2302,5.5906,0.0,6.0924,6.3928,6.8243,7.4326,7.6378,7.8675,8.4162,8.6341,8.6997,8.5944,8.8371,9.1437,9.4406,9.1221,8.8936,8.977,8.9349,8.9007,8.9007,8.9825,9.0175,8.9661,8.961,9.0324,9.1959,9.4435,9.6709,9.8716,10.0264,10.1484,10.216,10.1837,10.1851,10.2262,10.2379,10.2423,10.2423,10.2013,10.1807,10.1807,10.1499,10.1321,10.1321,10.1321,10.1764,10.2423,10.2423,10.2872,10.3531,10.3531,10.4128,10.4886,10.4886,10.5012,10.5262,10.6005,10.625,10.625,10.6272,10.6231,10.6356,10.6657,10.6937,10.7429,10.8853,10.9788,11.0402,11.0556,11.2,11.3321,11.3321,11.3321,11.3321,11.3321,11.3321,11.3321,11.3321,11.3321,11.3321,11.3321,11.3321,11.3321,11.3321,11.3321,11.3321,11.3321,11.3321,11.3321,11.3321,11.3321,11.3321,11.3321,11.3321,11.3321,11.3321,11.3321,11.3321,11.3321,11.3321,11.3321,11.3321,11.3321,11.3321,11.3321,11.3321,11.3321,4.7189,4.8503,5.1111,5.4447,5.6155,0.0,7.1366,7.5553,7.9641,8.88,9.2314,9.4069,9.5308,9.5671,9.5775,9.5638,9.4252,9.3051,9.2578,9.0268,8.8661,8.8801,8.9633,9.0194,9.0194,9.03,9.0328,9.0277,9.0277,9.1112,9.3001,9.3444,9.5215,9.8624,9.8946,9.9751,10.1188,10.1528,10.1675,10.1763,10.2218,10.2423,10.2423,10.2379,10.2379,10.2379,10.2336,10.2292,10.2292,10.2292,10.2336,10.2423,10.2423,10.251,10.2598,10.2598,10.3144,10.3928,10.3928,10.4508,10.5209,10.5262,10.5334,10.5334,10.5334,10.5334,10.5323,10.5363,10.6201,10.7429,10.8853,10.9327,10.9603,11.0433,11.2,11.3321,11.3321,11.3321,11.3321,11.3321,11.3321,11.3321,11.3321,11.3321,11.3321,11.3321,11.3321,11.3321,11.3321,11.3321,11.3321,11.3321,11.3321,11.3321,11.3321,11.3321,11.3321,11.3321,11.3321,11.3321,11.3321,11.3321,11.3321,11.3321,11.3321,11.3321,11.3321,11.3321,11.3321,11.3321,11.3321,11.3321,4.5272,4.7048,4.9915,5.2971,0.0,0.0,7.1089,7.568,8.0472,8.8994,9.1657,9.3435,9.6588,9.7214,9.721,9.721,9.5227,9.3553,9.3097,9.1066,8.9667,8.9667,9.0115,9.0379,9.0379,9.0379,9.0379,9.0379,9.0946,9.1385,9.1589,9.3809,9.6643,10.0006,10.0309,10.0921,10.1853,10.1514,10.144,10.1675,10.1851,10.2013,10.2013,10.2306,10.2423,10.2423,10.2423,10.2423,10.2423,10.2423,10.2423,10.2423,10.2423,10.2423,10.2423,10.2423,10.2655,10.2972,10.2972,10.3261,10.369,10.4213,10.417,10.397,10.4267,10.414,10.4122,10.5199,10.6517,10.8172,11.0915,11.16,11.1723,11.2092,11.2768,11.3321,11.3321,11.3321,11.3321,11.3321,11.3321,11.3321,11.3321,11.3321,11.3321,11.3321,11.3321,11.3321,11.3321,11.3321,11.3321,11.3321,11.3321,11.3321,11.3321,11.3321,11.3321,11.3321,11.3321,11.3321,11.3321,11.3321,11.3321,11.3321,11.3321,11.3321,11.3321,11.3321,11.3321,11.3321,11.3321,11.3321,4.4509,0.0,0.0,0.0,0.0,0.0,7.2756,7.7465,8.2177,8.8795,9.1017,9.284,9.6505,9.7211,9.7211,9.7211,9.5388,9.3886,9.3703,9.1913,9.0543,9.0432,9.0379,9.0379,9.0379,9.0379,9.0379,9.0379,9.1084,9.1197,9.0428,9.369,9.7067,10.0352,10.1129,10.169,10.2073,10.1514,10.1381,10.1675,10.1807,10.1851,10.1925,10.2262,10.2423,10.2423,10.2423,10.2292,10.2073,10.2174,10.2218,10.2218,10.2218,10.2306,10.2423,10.2423,10.2423,10.2423,10.2423,10.2423,10.2554,10.3231,10.3071,10.2829,10.3696,10.3613,10.3579,10.5342,10.6877,10.8656,11.162,11.2865,11.3321,11.3321,11.3321,11.3321,11.3321,11.3021,11.284,11.3276,11.3321,11.3321,11.3321,11.3321,11.3321,11.3321,11.3321,11.3321,11.3321,11.3321,11.3321,11.3321,11.3321,11.3321,11.3321,11.3321,11.3321,11.3321,11.3321,11.3321,11.3321,11.3321,11.3321,11.3321,11.3321,11.3321,11.3321,11.3321,11.3321,11.3321,11.3321,11.3321,0.0,0.0,0.0,6.054,6.5671,7.1352,8.0568,8.4987,8.8289,9.2169,9.5121,9.7002,9.7189,9.7159,9.7211,9.7211,9.5745,9.4429,9.3782,9.2229,9.0919,9.0409,9.0379,9.0379,9.0379,9.0379,9.0379,9.0379,9.0404,9.0455,9.0379,9.2312,9.5022,9.8716,10.0307,10.1099,10.1099,10.1484,10.1645,10.1675,10.2174,10.2423,10.2423,10.2423,10.2423,10.2423,10.2423,10.1941,10.1173,10.1528,10.1675,10.1675,10.1675,10.2013,10.2423,10.2423,10.2423,10.2423,10.2423,10.2423,10.2423,10.2467,10.2101,10.2045,10.383,10.401,10.3949,10.5667,10.7178,10.8515,10.9656,11.1622,11.3321,11.3321,11.3321,11.3321,11.3321,11.225,11.167,11.3051,11.3321,11.3321,11.3321,11.3321,11.3321,11.3321,11.3321,11.3321,11.3321,11.3321,11.3321,11.3321,11.3321,11.3321,11.3321,11.3321,11.3321,11.3321,11.3321,11.3321,11.3321,11.3321,11.3321,11.3321,11.3321,11.3321,11.3321,11.3321,11.3321,11.3321,11.3321,11.3321,5.0262,5.4428,5.9294,6.638,7.1949,7.7058,8.2321,8.7509,9.1641,9.3083,9.5399,9.7201,9.7199,9.7211,9.7211,9.7211,9.6099,9.5096,9.4862,9.3097,9.1755,9.1593,9.0854,9.0379,9.0379,9.0379,9.0379,9.0379,9.1038,9.1129,9.0455,9.3976,9.6233,9.6643,9.9523,10.1084,10.1084,10.0861,10.0742,10.0742,10.095,10.1203,10.1543,10.1793,10.1925,10.1925,10.2262,10.1941,10.1099,10.1528,10.1675,10.1719,10.2057,10.2262,10.2423,10.2423,10.2423,10.2423,10.2423,10.2423,10.2423,10.2423,10.1941,10.1558,10.304,10.2851,10.2805,10.5801,10.6981,10.7796,10.961,11.0661,11.1271,11.1271,11.1271,11.1456,11.2128,11.1363,11.0713,11.1178,11.1271,11.1686,11.3066,11.3321,11.3321,11.3321,11.3321,11.3321,11.3321,11.3321,11.3321,11.3321,11.3321,11.3321,11.3321,11.3321,11.3321,11.3321,11.3321,11.3321,11.3321,11.3321,11.3321,11.3321,11.3321,11.3321,11.3321,11.3321,11.3321,11.3321,11.3321,11.3321,5.3503,5.7867,6.2413,7.0361,7.6489,8.1269,8.394,8.8971,9.3176,9.345,9.5468,9.7201,9.7175,9.6864,9.6682,9.7132,9.5676,9.4646,9.512,9.3597,9.2255,9.1861,9.1358,9.0854,9.0432,9.0379,9.0379,9.0379,9.1015,9.1403,9.1438,9.4291,9.6168,9.6738,9.9037,10.0577,10.1292,10.095,10.0727,10.0577,10.0577,10.0756,10.1054,10.1336,10.144,10.1484,10.1779,10.141,10.0561,10.0995,10.1188,10.1188,10.1528,10.1779,10.1985,10.2087,10.2174,10.2174,10.2379,10.2423,10.2423,10.2218,10.1973,10.1998,10.3068,10.3173,10.3446,10.6243,10.705,10.7466,10.9204,10.9649,10.9744,11.0121,11.0215,11.0309,11.059,11.0121,10.9697,10.9868,10.9868,11.0151,11.1023,11.1162,11.1162,11.1162,11.2387,11.3321,11.3321,11.3321,11.3321,11.3321,11.3321,11.3321,11.3321,11.3321,11.3321,11.3321,11.3321,11.3321,11.3321,11.3321,11.3321,11.3321,11.3321,11.3321,11.3321,11.3321,11.3321,11.3321,11.3321,11.3321,5.5354,5.9556,6.3529,7.2905,7.9473,8.4015,8.5591,8.9593,9.3046,9.3446,9.5414,9.7132,9.7185,9.626,9.5891,9.7053,9.4853,9.3428,9.4554,9.3664,9.2487,9.1416,9.1835,9.1751,9.059,9.0485,9.0458,9.0379,9.0379,9.1239,9.3199,9.3395,9.507,9.8624,9.8854,9.9767,10.1631,10.1631,10.144,10.1009,10.1009,10.1009,10.1009,10.1009,10.1009,10.1009,10.1084,10.0487,9.9643,10.0187,10.0413,10.0413,10.0413,10.0711,10.1188,10.1572,10.1719,10.1763,10.2262,10.2423,10.2379,10.1807,10.2225,10.3087,10.3933,10.4703,10.5543,10.691,10.7288,10.7504,10.8388,10.86,10.884,10.9839,11.0074,10.9791,10.8792,10.86,10.8725,10.909,10.9138,10.8784,10.7534,10.7288,10.7288,10.7288,11.0557,11.3006,11.3006,11.3006,11.3006,11.3006,11.3006,11.3006,11.3006,11.3231,11.3231,11.3051,11.3231,11.3321,11.3321,11.3321,11.3321,11.3321,11.3231,11.3186,11.3186,11.3156,11.3231,11.3231,11.3231,11.3156,6.164,6.7294,7.1482,7.9265,8.2618,8.4479,8.6279,8.8793,9.1338,9.3226,9.4841,9.6155,9.7053,9.6974,9.6814,9.7185,9.5835,9.4885,9.5201,9.3932,9.2934,9.3044,9.2859,9.2413,9.1778,9.1672,9.1303,9.0458,9.0379,9.1239,9.3199,9.4753,9.6596,9.867,10.0174,10.101,10.1232,10.1232,10.098,10.0503,10.0503,10.0503,10.0503,10.0503,10.0503,10.0503,10.092,10.092,10.0711,10.1129,10.1321,10.1366,10.1705,10.1955,10.2117,10.2218,10.2262,10.2262,10.2423,10.2423,10.2379,10.1807,10.1632,10.1879,10.3669,10.4079,10.4399,10.6649,10.7288,10.7387,10.7602,10.7651,10.7719,10.7963,10.806,10.7963,10.77,10.7651,10.7671,10.7797,10.7797,10.77,10.7387,10.7288,10.7288,10.7288,10.8186,10.8832,10.8832,10.8832,10.8832,10.8832,10.8832,10.8832,10.8832,11.1578,11.2067,10.9024,11.1624,11.3321,11.3321,11.3321,11.3321,11.3321,11.1778,11.1039,11.1039,11.1532,11.1716,11.1716,11.1716,11.1456,6.0743,6.7671,7.4505,8.119,8.3154,8.4153,8.7006,8.8865,9.0722,9.3199,9.4231,9.5206,9.6867,9.6735,9.6577,9.7132,9.5392,9.423,9.4988,9.404,9.3305,9.3358,9.3751,9.3727,9.2886,9.2411,9.183,9.1197,9.0669,9.1239,9.3199,9.5283,9.7226,9.8934,10.0936,10.1881,10.1676,10.1425,10.1173,10.0876,10.0727,10.0503,10.0323,10.0532,10.0667,10.0667,10.092,10.1084,10.1128,10.1336,10.1395,10.144,10.169,10.1853,10.1853,10.2043,10.2101,10.2131,10.2379,10.2423,10.2336,10.1617,10.1632,10.2158,10.3465,10.4065,10.4671,10.6707,10.7288,10.7288,10.7288,10.7288,10.7288,10.7288,10.7288,10.7288,10.7288,10.7288,10.7288,10.7288,10.7288,10.7288,10.7288,10.7288,10.7288,10.7288,10.7288,10.7288,10.7288,10.7288,10.7288,10.7288,10.7288,10.7288,10.7288,10.9377,10.9709,10.7436,10.9424,11.0697,11.0697,11.0697,11.1532,11.3276,11.1271,11.0637,11.1594,11.1039,11.076,11.076,11.076,11.0543,5.7922,6.5326,7.4537,8.0746,8.252,8.375,8.7449,8.9107,9.0552,9.3121,9.3677,9.4362,9.6524,9.6234,9.5944,9.6787,9.4337,9.2834,9.4141,9.3752,9.3228,9.3039,9.4382,9.4994,9.4046,9.2965,9.2279,9.2173,9.1039,9.1239,9.3199,9.5283,9.7291,9.9258,10.1336,10.2423,10.2423,10.2013,10.1763,10.1763,10.1336,10.0891,10.0413,10.0875,10.1009,10.0965,10.1009,10.1099,10.1143,10.1143,10.1188,10.1232,10.1232,10.1232,10.1277,10.1661,10.1763,10.1807,10.2262,10.2423,10.2292,10.1366,10.1821,10.279,10.308,10.3944,10.5165,10.662,10.7027,10.7085,10.723,10.7288,10.7288,10.7288,10.7288,10.7288,10.7288,10.7288,10.7288,10.7288,10.7288,10.7288,10.7288,10.7288,10.7288,10.7288,10.7288,10.7288,10.7288,10.7288,10.7288,10.7288,10.7288,10.7288,10.7288,10.7288,10.7288,10.7288,10.7288,10.7288,10.7288,10.7288,10.8976,11.2478,11.0993,11.0993,11.2523,11.0853,10.9933,10.9821,10.9821,10.9821,6.4565,6.9483,7.4361,8.1056,8.3709,8.4996,8.642,8.7812,8.9752,9.3018,9.3677,9.4152,9.547,9.6366,9.6629,9.5865,9.4442,9.3229,9.2676,9.2019,9.2098,9.3412,9.4275,9.4878,9.5126,9.4099,9.3097,9.2173,9.1039,9.1239,9.3199,9.5283,9.7291,9.9258,10.1336,10.2423,10.2423,10.2379,10.2306,10.2306,10.1793,10.1351,10.092,10.1009,10.0875,10.0458,10.0875,10.1247,10.1543,10.1543,10.1793,10.2204,10.2204,10.2204,10.2204,10.2292,10.2306,10.2306,10.2423,10.2423,10.2292,10.1366,10.1231,10.1464,10.1738,10.1966,10.2635,10.5049,10.5718,10.5951,10.6998,10.7288,10.7288,10.7288,10.7288,10.7288,10.7288,10.7288,10.7288,10.7288,10.7288,10.7288,10.7288,10.7288,10.7288,10.7288,10.7288,10.7288,10.7288,10.7288,10.7288,10.7288,10.7288,10.7288,10.7288,10.7288,10.7288,10.7288,10.7288,10.7288,10.7288,10.7288,10.7602,10.8302,10.9584,10.9584,10.838,10.8725,10.8533,10.7797,10.7797,10.7797,6.3317,6.7941,7.2415,7.6261,7.8989,8.1866,8.6464,8.7177,8.7996,9.2066,9.1924,9.1943,9.4891,9.5891,9.6287,9.6313,9.5364,9.4231,9.3124,9.2702,9.2781,9.3598,9.4543,9.541,9.6287,9.5285,9.4389,9.3888,9.2279,9.1712,9.2651,9.5065,9.6822,9.7757,10.0817,10.2423,10.2423,10.2423,10.2423,10.2423,10.1925,10.1543,10.1395,10.1646,10.1646,10.1425,10.1676,10.1735,10.1675,10.1675,10.1705,10.172,10.172,10.172,10.1764,10.1925,10.2013,10.2057,10.2379,10.2423,10.2292,10.1366,10.1084,10.114,10.1417,10.1937,10.2868,10.4816,10.5863,10.6532,10.7114,10.7288,10.7288,10.7288,10.7288,10.7288,10.7288,10.7288,10.7288,10.7288,10.7288,10.7288,10.7288,10.7288,10.7288,10.7288,10.7288,10.7288,10.7288,10.7288,10.7288,10.7288,10.7288,10.7288,10.7288,10.7288,10.7288,10.7288,10.7288,10.7288,10.7288,10.7288,10.7288,10.7288,10.8205,10.8254,10.7288,10.7719,10.7719,10.7288,10.7288,10.7288,6.1226,6.5579,7.0312,7.2971,7.4616,7.76,8.5443,8.6061,8.6305,9.0815,9.0476,9.0479,9.4074,9.5101,9.5654,9.6313,9.5865,9.4969,9.3545,9.3361,9.3387,9.3544,9.4414,9.5574,9.6915,9.6074,9.5389,9.5281,9.3308,9.225,9.2586,9.5029,9.6587,9.701,10.0549,10.2423,10.2423,10.2423,10.2423,10.2423,10.2013,10.1807,10.1807,10.2043,10.216,10.216,10.216,10.1925,10.1675,10.1675,10.1528,10.1366,10.1366,10.1366,10.141,10.1705,10.1807,10.1925,10.2306,10.2423,10.2292,10.1366,10.1084,10.1081,10.105,10.1763,10.2897,10.4496,10.566,10.661,10.7143,10.7288,10.7288,10.7288,10.7288,10.7288,10.7288,10.7288,10.7288,10.7288,10.7288,10.7288,10.7288,10.7288,10.7288,10.7288,10.7288,10.7288,10.7288,10.7288,10.7288,10.7288,10.7288,10.7288,10.7288,10.7288,10.7288,10.7288,10.7288,10.7288,10.7288,10.7288,10.7288,10.7288,10.7288,10.7288,10.7288,10.7288,10.7288,10.7288,10.7288,10.7288,6.2892,6.5479,6.9169,7.6746,7.5393,7.4011,8.1042,8.3688,8.5752,8.9737,9.1221,9.1959,9.2384,9.4073,9.5127,9.4178,9.4837,9.4679,9.2569,9.2253,9.2439,9.2934,9.3516,9.4543,9.6312,9.5856,9.5227,9.4765,9.3097,9.2714,9.4039,9.5537,9.7245,9.903,10.1247,10.2423,10.2423,10.2423,10.2423,10.2423,10.2423,10.2379,10.2379,10.1543,10.1188,10.1188,10.1188,10.1381,10.1675,10.1675,10.1925,10.2336,10.2336,10.2336,10.2336,10.2379,10.2379,10.2379,10.2423,10.2423,10.2292,10.1366,10.1084,10.0905,10.0,9.9768,10.0425,10.2868,10.3701,10.4312,10.6649,10.7288,10.7288,10.7288,10.7288,10.7288,10.7288,10.7288,10.7288,10.7288,10.7288,10.7288,10.7288,10.7288,10.7288,10.7288,10.7288,10.7288,10.7288,10.7288,10.7288,10.7288,10.7288,10.7288,10.7288,10.7288,10.7288,10.7288,10.7288,10.7288,10.7288,10.7288,10.7288,10.7288,10.7288,10.7288,10.7288,10.7288,10.7288,10.7288,10.7288,10.7288,5.5514,5.8069,6.1213,6.5189,6.8665,7.2177,7.6033,7.8292,8.1198,8.6739,8.8462,8.9176,8.9688,9.2285,9.4285,9.4008,9.5345,9.5972,9.4363,9.3519,9.315,9.3359,9.3571,9.4256,9.5699,9.623,9.6417,9.6198,9.4229,9.3855,9.5706,9.6169,9.7291,9.9258,10.1336,10.2423,10.2423,10.2423,10.2423,10.2423,10.2131,10.1969,10.1969,10.1911,10.1897,10.1897,10.1897,10.2029,10.2101,10.1807,10.1661,10.1632,10.1632,10.1632,10.1632,10.1881,10.1969,10.2013,10.2306,10.2423,10.2292,10.1366,10.1084,10.0875,9.9854,10.0059,10.1094,10.2915,10.3817,10.4719,10.6765,10.7288,10.7288,10.7288,10.7288,10.7288,10.7288,10.7288,10.7288,10.7288,10.7288,10.7288,10.7288,10.7288,10.7288,10.7288,10.7288,10.7288,10.7288,10.7288,10.7288,10.7288,10.7288,10.7288,10.7288,10.7288,10.7288,10.7288,10.7288,10.7288,10.7288,10.7288,10.7288,10.7288,10.7288,10.7288,10.7288,10.7288,10.7288,10.7288,10.7288,10.7288,5.0443,5.2998,5.6153,5.8189,6.3392,6.9257,7.3832,7.5008,7.7178,8.4327,8.6371,8.7217,8.8235,9.0861,9.3,9.3462,9.5394,9.6485,9.555,9.4732,9.4124,9.399,9.3834,9.4203,9.5595,9.6338,9.6733,9.691,9.523,9.5156,9.7355,9.6977,9.7737,9.9951,10.1321,10.2029,10.2029,10.2029,10.2029,10.2029,10.1793,10.1587,10.1528,10.1867,10.2029,10.2029,10.2029,10.2029,10.2029,10.1763,10.1572,10.1499,10.1499,10.1499,10.1499,10.1793,10.1925,10.1969,10.2306,10.2423,10.2292,10.1366,10.1084,10.0875,9.9854,10.0192,10.1239,10.2944,10.3875,10.4835,10.6765,10.7288,10.7288,10.7288,10.7288,10.7288,10.7288,10.7288,10.7288,10.7288,10.7288,10.7288,10.7288,10.7288,10.7288,10.7288,10.7288,10.7288,10.7288,10.7288,10.7288,10.7288,10.7288,10.7288,10.7288,10.7288,10.7288,10.7288,10.7288,10.7288,10.7288,10.7288,10.7288,10.7288,10.7288,10.7288,10.7288,10.7288,10.7288,10.7288,10.7288,10.7288,5.0376,5.2529,5.6368,6.0378,6.1538,6.4602,7.5571,7.5131,7.469,8.2885,8.5806,8.7287,8.8563,8.9898,9.1163,9.2177,9.4312,9.576,9.5474,9.5443,9.5201,9.4739,9.4094,9.4412,9.6231,9.5856,9.5727,9.6361,9.583,9.6459,9.8809,9.7934,9.8696,10.1572,10.1292,10.1128,10.1128,10.1128,10.1128,10.1128,10.1484,10.1484,10.1084,10.1128,10.1128,10.1128,10.1128,10.1128,10.1099,10.1528,10.1969,10.2423,10.2423,10.2423,10.2423,10.2423,10.2423,10.2423,10.2423,10.2423,10.2292,10.1366,10.1084,10.0875,9.9854,9.9507,10.0059,10.2664,10.341,10.4021,10.662,10.7288,10.7288,10.7288,10.7288,10.7288,10.7288,10.7288,10.7288,10.7288,10.7288,10.7288,10.7288,10.7288,10.7288,10.7288,10.7288,10.7288,10.7288,10.7288,10.7288,10.7288,10.7288,10.7288,10.7288,10.7288,10.7288,10.7288,10.7288,10.7288,10.7288,10.7288,10.7288,10.7288,10.7288,10.7288,10.7288,10.7288,10.7288,10.7288,10.7288,10.7288,4.7895,5.0469,5.408,5.8045,6.0163,6.4009,7.4544,7.3852,7.3309,8.1537,8.1049,8.0059,8.2975,8.6689,8.9996,9.2015,9.4162,9.5822,9.6499,9.5944,9.5389,9.5227,9.5019,9.5126,9.57,9.6338,9.6706,9.6937,9.5256,9.6186,10.0667,9.826,9.8775,10.3399,10.252,10.2029,10.2029,10.169,10.1484,10.1484,10.1336,10.1025,10.0547,10.1587,10.1676,10.1128,10.1381,10.1336,10.1054,10.1232,10.1336,10.1499,10.1499,10.1499,10.1499,10.1499,10.1499,10.1543,10.1793,10.1925,10.1837,10.1277,10.1084,10.0875,9.9854,9.9507,9.9856,10.1588,10.274,10.3817,10.5514,10.598,10.6212,10.7085,10.7288,10.7288,10.7288,10.7288,10.7288,10.7288,10.7288,10.7288,10.7288,10.7288,10.7288,10.7288,10.7288,10.7288,10.7288,10.7288,10.7288,10.7288,10.7288,10.7288,10.7288,10.7288,10.7288,10.7288,10.7288,10.7288,10.7288,10.7288,10.7288,10.7288,10.7288,10.7288,10.7288,10.7288,10.7288,10.7288,10.7288,10.7288,4.835,5.0611,5.351,5.8456,5.9606,6.2119,7.2048,7.0855,6.9778,7.7297,7.6794,7.5867,7.8772,8.3794,8.8378,9.12,9.3168,9.4841,9.6316,9.5891,9.5601,9.6023,9.5707,9.5601,9.6049,9.6339,9.6682,9.7185,9.646,9.7567,10.1362,9.9814,10.0283,10.347,10.258,10.1839,10.1336,10.104,10.0966,10.1144,10.0711,10.0307,10.0052,10.0906,10.1114,10.0831,10.104,10.1129,10.1128,10.1247,10.1232,10.1128,10.1247,10.1232,10.1084,10.1084,10.1084,10.1099,10.1351,10.1572,10.1587,10.098,10.092,10.0875,9.9854,9.9507,9.9768,10.1094,10.2053,10.2886,10.3682,10.4264,10.4816,10.5602,10.5805,10.5805,10.5805,10.6212,10.6561,10.6561,10.6969,10.7288,10.7288,10.7288,10.7288,10.7288,10.7288,10.7288,10.7288,10.7288,10.7288,10.7288,10.7288,10.7288,10.7288,10.7288,10.7288,10.7288,10.7288,10.7288,10.7288,10.7288,10.7288,10.7288,10.7288,10.7288,10.7288,10.7288,10.7288,10.7288,10.7288,10.7288,5.0582,5.2026,5.4077,6.0658,5.9691,5.9601,6.8954,6.6824,6.4674,7.1055,7.2742,7.3696,7.5591,8.0864,8.6077,8.9863,9.1524,9.3098,9.5106,9.542,9.5869,9.6951,9.6133,9.5895,9.7033,9.6156,9.6023,9.7132,9.8685,10.0061,10.1209,10.2244,10.2754,10.2521,10.2035,10.1133,9.9718,9.9731,9.9929,10.0266,9.9796,9.954,9.9481,9.9569,9.9871,10.0248,10.028,10.0534,10.1009,10.1365,10.1306,10.1054,10.1484,10.1395,10.1084,10.1084,10.1084,10.1084,10.1099,10.1351,10.1543,10.0682,10.0667,10.0875,9.9854,9.9507,9.9768,10.0977,10.1326,10.1355,10.1443,10.2344,10.3293,10.341,10.341,10.341,10.341,10.4351,10.5253,10.5369,10.6329,10.7172,10.7259,10.7288,10.7288,10.7288,10.7288,10.7288,10.7288,10.7288,10.7288,10.7288,10.7288,10.7288,10.7288,10.7288,10.7288,10.7288,10.7288,10.7288,10.7288,10.7288,10.7288,10.7288,10.7288,10.7288,10.7288,10.7288,10.7288,10.7288,10.7288,10.7288,4.6343,4.8721,5.1906,5.7929,5.9318,6.1453,7.013,6.5806,6.17,6.7984,6.7349,6.6907,7.1033,7.5396,8.0801,8.819,9.0227,9.17,9.4047,9.517,9.5841,9.6109,9.5894,9.5841,9.6109,9.6541,9.6867,9.7185,9.7934,9.975,10.2992,10.2865,10.3479,10.5302,10.5272,10.3917,10.1218,10.1863,10.1391,9.9856,10.0033,9.975,9.9123,10.0226,10.0352,9.9721,9.983,9.9888,9.9903,10.0065,10.0287,10.0532,10.1025,10.1143,10.1084,10.1084,10.1084,10.1099,10.1395,10.1587,10.1587,10.1069,10.0965,10.0875,9.9854,9.9507,9.9565,9.9885,9.9972,10.0175,10.121,10.1704,10.217,10.3177,10.341,10.341,10.341,10.3671,10.4148,10.5165,10.5631,10.6125,10.7114,10.7288,10.7288,10.7288,10.7288,10.7288,10.7288,10.7288,10.7288,10.7288,10.7288,10.7288,10.7288,10.7288,10.7288,10.7288,10.7288,10.7288,10.7288,10.7288,10.7288,10.7288,10.7288,10.7288,10.7288,10.7288,10.7288,10.7288,10.7288,10.7288,4.7099,4.9854,5.2646,5.5859,5.7812,6.0339,6.5442,6.2382,5.959,6.3636,6.3695,6.4444,6.9136,7.2699,7.6945,8.3065,8.5799,8.8047,9.0519,9.2308,9.367,9.4294,9.5156,9.5711,9.5798,9.6676,9.7211,9.7211,9.8202,10.0031,10.2905,10.3445,10.4287,10.5834,10.5851,10.4611,10.1955,10.3844,10.3285,10.0271,10.0632,10.016,9.896,10.0183,10.0442,9.9887,10.0198,10.0316,10.0248,10.0287,10.0316,10.0323,10.0622,10.0577,10.0352,10.0352,10.0487,10.0801,10.1247,10.1498,10.1587,10.1232,10.1084,10.092,10.0097,9.9689,9.9507,9.9507,9.9507,9.9681,10.0425,10.0599,10.0774,10.1443,10.1617,10.1617,10.1617,10.2083,10.2722,10.3449,10.406,10.4671,10.5417,10.5534,10.5737,10.63,10.5892,10.5922,10.7114,10.6765,10.6649,10.723,10.7288,10.7288,10.7288,10.7288,10.7288,10.7288,10.7288,10.7288,10.7288,10.7288,10.7288,10.7288,10.7288,10.7288,10.7288,10.7288,10.7288,10.7288,10.7288,10.7288,4.9041,5.2698,5.5549,5.5768,5.7045,5.8565,5.9676,5.8604,5.7811,5.9374,6.1067,6.3594,6.7879,7.0934,7.3663,7.6308,8.0034,8.3666,8.6714,8.9168,9.1193,9.253,9.407,9.5211,9.5746,9.6676,9.7211,9.7211,9.8981,10.0795,10.2291,10.4297,10.5439,10.5591,10.5929,10.505,10.2868,10.5447,10.4932,10.1261,10.1584,10.0971,9.9579,10.0178,10.048,10.0496,10.0683,10.0788,10.0875,10.0937,10.0758,10.0413,10.0592,10.0368,9.9961,9.9961,10.0232,10.0682,10.1143,10.1514,10.1719,10.1292,10.1143,10.0965,10.0458,9.9961,9.9507,9.9507,9.9507,9.9507,9.9507,9.9507,9.9507,9.9507,9.9507,9.9507,9.9507,10.0425,10.1239,10.1414,10.2344,10.3177,10.338,10.341,10.3788,10.4904,10.4089,10.4224,10.6436,10.5747,10.5543,10.6852,10.6998,10.7085,10.7259,10.7288,10.7201,10.6998,10.7172,10.7288,10.7288,10.7288,10.7288,10.7288,10.7288,10.7288,10.7288,10.7288,10.7288,10.7288,10.7288,10.7288,4.6464,5.3412,6.0646,6.1852,6.0927,5.9995,6.0953,5.7866,5.5425,5.7613,5.9106,6.0879,6.392,6.7306,6.9802,7.0152,7.5244,8.0996,8.651,8.9357,9.1352,9.259,9.298,9.3838,9.5656,9.6676,9.7211,9.7211,10.0079,10.2159,10.2857,10.6305,10.7685,10.6524,10.8563,10.8303,10.5551,10.6027,10.5141,10.304,10.3085,10.2782,10.2201,10.1601,10.132,10.1249,9.9843,9.943,9.9812,10.0268,10.0607,10.1054,10.1808,10.2073,10.1999,10.1999,10.2043,10.216,10.2204,10.2262,10.2218,10.1749,10.1381,10.0965,10.0458,9.9961,9.9507,9.9507,9.9507,9.9507,9.9507,9.9507,9.9507,9.9507,9.9507,9.9507,9.9507,9.9652,10.0117,10.1268,10.1617,10.2112,10.3235,10.341,10.3497,10.3701,10.3555,10.3555,10.3962,10.3846,10.4177,10.5514,10.566,10.6096,10.7201,10.7288,10.6823,10.5747,10.6678,10.7288,10.7288,10.7288,10.7288,10.7288,10.7288,10.7288,10.7288,10.7288,10.7288,10.7288,10.7288,10.7288,5.0333,5.612,6.1838,6.2298,6.2613,6.2529,6.1549,5.9077,5.7128,5.7639,5.8688,6.033,6.3062,6.5869,6.8609,7.1297,7.4615,7.8785,8.4381,8.7842,9.0079,9.0766,9.2261,9.3698,9.4876,9.633,9.7211,9.7211,9.9464,10.1375,10.2523,10.5156,10.6763,10.7036,10.8393,10.8548,10.721,10.7162,10.6318,10.4569,10.449,10.3162,10.0773,10.2282,10.1616,9.9407,10.032,10.0259,9.9569,9.9783,10.0019,10.0262,10.0682,10.1069,10.1262,10.1262,10.1602,10.2013,10.2013,10.2218,10.2423,10.2174,10.1602,10.1009,10.0756,10.0171,9.9507,9.9507,9.9507,9.9507,9.9507,9.9507,9.9507,9.9507,9.9507,9.9507,9.9507,9.9507,9.9681,10.0338,10.0454,10.0628,10.121,10.1297,10.153,10.2228,10.1763,10.1821,10.3264,10.2781,10.2886,10.4148,10.4293,10.4526,10.5155,10.5214,10.4952,10.4322,10.5514,10.5922,10.5243,10.6532,10.6969,10.6271,10.6939,10.7288,10.7288,10.7288,10.7288,10.7288,10.7288,10.7288,5.6758,0.0,6.4454,6.4148,6.5049,6.5304,0.0,6.0677,5.8969,5.7885,5.8661,6.0106,6.2196,6.4612,6.7714,7.1901,7.4083,7.7003,8.191,8.5487,8.8037,8.9062,9.1408,9.3404,9.4445,9.5903,9.6867,9.7185,9.9142,10.0901,10.2187,10.4376,10.6064,10.7288,10.7797,10.7992,10.7924,10.8138,10.7477,10.5927,10.5964,10.3863,10.0093,10.3102,10.2263,9.8606,10.1025,10.1271,9.9989,9.976,9.978,9.99,10.0006,10.0368,10.0816,10.0816,10.1262,10.1807,10.1807,10.2101,10.2423,10.2423,10.1808,10.1084,10.092,10.0352,9.9689,9.9552,9.9507,9.9507,9.9507,9.9507,9.9507,9.9507,9.9507,9.9507,9.9507,9.9507,9.9507,9.9507,9.9507,9.9507,9.9507,9.9507,9.9856,10.0861,10.0192,10.0233,10.2228,10.1617,10.1501,10.2828,10.2973,10.3089,10.341,10.3148,10.2973,10.2973,10.4177,10.4438,10.3468,10.5282,10.6038,10.5398,10.6329,10.6969,10.7288,10.7288,10.7288,10.7288,10.7288,10.7288,0.0,6.9176,7.1925,7.1925,7.0209,6.7899,6.5433,6.1979,0.0,5.7794,5.8596,5.9514,5.958,6.2804,6.589,6.7339,7.1368,7.5747,7.9778,8.2508,8.5349,8.8648,9.0063,9.2037,9.5052,9.5471,9.6023,9.7132,10.0239,10.2135,10.2239,10.5786,10.7651,10.7338,10.7797,10.7846,10.7387,10.8332,10.8243,10.7193,10.7671,10.619,10.3155,10.4573,10.3769,10.121,10.1431,10.146,10.1285,10.0549,10.0532,10.1009,10.1395,10.1837,10.2292,10.2292,10.2336,10.2379,10.2379,10.2423,10.2423,10.2423,10.1808,10.0965,10.0503,10.0323,10.0142,9.9643,9.9507,9.9507,9.9507,9.9507,9.9507,9.9507,9.9507,9.9507,9.9507,9.9507,9.9507,9.9507,9.9507,9.9507,9.9507,9.9507,9.9536,9.9623,9.9565,9.9565,9.9768,9.971,10.0192,10.1472,10.1617,10.2083,10.3322,10.2286,10.1617,10.1617,10.2857,10.3526,10.341,10.3613,10.4206,10.5369,10.5485,10.6096,10.7288,10.7288,10.7288,10.7288,10.7288,10.7288,6.8202,7.0632,7.2213,7.2213,7.1713,7.0376,6.7102,6.3918,6.0916,5.812,5.7931,5.8233,5.8201,6.1375,6.5371,6.9652,7.2566,7.6356,8.2379,8.4679,8.6486,8.8553,9.0452,9.2027,9.3281,9.4174,9.5078,9.5998,9.8389,10.055,10.2156,10.4652,10.6412,10.7288,10.7485,10.7651,10.7749,10.7846,10.7992,10.8283,10.7797,10.6308,10.398,10.5747,10.47,10.1559,10.3188,10.2519,0.0,10.0783,10.0179,9.9015,9.9955,10.0816,10.1587,10.1587,10.1941,10.2423,10.2423,10.2423,10.2423,10.2423,10.2204,10.1853,10.1307,10.0995,10.0667,10.0142,10.0006,9.9916,9.9598,9.9507,9.9507,9.9507,9.9507,9.9507,9.9507,9.9507,9.9507,9.9507,9.9507,9.9507,9.9507,9.9507,9.9507,9.9507,9.9507,9.9507,9.9507,9.9507,9.971,10.0175,10.0279,10.0483,10.0948,10.057,10.0279,10.0279,10.1501,10.1821,10.1036,10.2548,10.3246,10.2955,10.3711,10.4787,10.6096,10.6096,10.6503,10.7288,10.7288,10.7288,7.0277,7.1707,7.2912,7.2912,7.287,7.1888,6.8276,6.5106,6.1917,5.8274,5.7524,5.7524,5.7524,6.0639,6.5071,7.0799,7.2863,7.6126,8.311,8.4803,8.6007,8.7916,8.9551,9.0834,9.1512,9.2812,9.4348,9.609,9.7937,10.0222,10.2905,10.463,10.5894,10.6491,10.6491,10.6964,10.7797,10.768,10.7797,10.8332,10.7797,10.6308,10.4027,10.6242,10.5369,10.2199,10.4409,10.3344,10.0175,10.1094,10.0005,9.7957,9.9284,10.0307,10.1128,10.1232,10.1646,10.2218,10.2379,10.2423,10.2423,10.2262,10.2174,10.2131,10.1617,10.1203,10.0756,10.0413,10.0187,9.9961,9.9598,9.9507,9.9507,9.9507,9.9507,9.9507,9.9507,9.9507,9.9507,9.9507,9.9507,9.9507,9.9507,9.9507,9.9507,9.9507,9.9507,9.9507,9.9507,9.9507,9.9507,9.9507,9.9507,9.9507,9.9507,9.9507,9.9507,9.9507,10.0367,10.0483,9.9565,10.1239,10.1937,10.1472,10.2315,10.342,10.4729,10.4729,10.5194,10.6086,10.6086,10.6271,7.1261,7.3254,7.5036,7.5036,7.4034,7.2261,6.8947,6.5222,6.1496,5.822,5.7524,5.7524,5.7524,6.0639,6.4783,6.9735,7.1663,7.4678,8.0968,8.1853,8.3161,8.666,8.7088,8.7947,9.0162,9.1433,9.3697,9.7596,9.9475,10.1697,10.4544,10.6313,10.6462,10.4753,10.4702,10.5565,10.7288,10.7749,10.7827,10.7338,10.7797,10.6453,10.3555,10.6145,10.5912,10.3526,10.4816,10.3886,10.1443,10.1501,10.0263,9.8461,9.9779,10.0651,10.1128,10.1498,10.1645,10.1719,10.2262,10.2423,10.2379,10.1807,10.1675,10.1587,10.1203,10.0711,10.0323,10.0323,9.9961,9.9552,9.9552,9.9552,9.9507,9.9507,9.9507,9.9507,9.9507,9.9507,9.9507,9.9507,9.9507,9.9507,9.9507,9.9507,9.9507,9.9507,9.9507,9.9507,9.9507,9.9507,9.9507,9.9507,9.9507,9.9507,9.9507,9.9507,9.9507,9.9507,9.9507,9.9507,9.9507,9.9507,10.0117,10.1414,10.1443,10.2083,10.341,10.341,10.341,10.341,10.341,10.4089,7.1434,7.2903,7.4501,7.4501,7.4702,7.3691,6.9244,6.6136,6.2947,5.846,5.7524,5.7524,5.7524,6.0639,6.4524,6.8669,7.1132,7.4382,7.9731,8.1895,8.3909,8.6644,8.7668,8.8449,8.925,8.9621,9.0649,9.2605,9.5885,9.8412,9.9919,10.0813,10.1461,10.1748,10.1776,10.2987,10.5515,10.5665,10.6491,10.7846,10.7631,10.7242,10.6706,10.7135,10.6852,10.6154,10.6561,10.4206,10.0338,10.3448,10.2035,9.8089,10.0685,10.1746,10.1824,10.099,10.095,10.1292,10.1749,10.1925,10.1851,10.1719,10.1675,10.1631,10.1528,10.1617,10.1823,10.1823,10.144,10.1025,10.1025,10.0563,10.0052,10.0052,9.978,9.9507,9.9507,9.9507,9.9507,9.9507,9.9507,9.9507,9.9507,9.9507,9.9507,9.9507,9.9507,9.9507,9.9507,9.9507,9.9507,9.9507,9.9507,9.9507,9.9507,9.9507,9.9507,9.9507,9.9507,9.9507,9.9507,9.9507,9.9681,10.0059,10.0088,10.0745,10.2053,10.2053,10.249,10.341,10.341,10.3642,7.1591,7.2753,7.3996,7.3996,7.4438,7.3835,7.0034,6.6696,6.3314,5.9484,5.8085,5.7748,5.8566,6.1402,6.5203,6.9992,7.1647,7.4102,7.9174,8.1088,8.2871,8.5242,8.6564,8.7694,8.868,8.8763,8.929,9.0414,9.379,9.573,9.5678,9.6961,9.8072,9.8787,9.8815,10.0162,10.3077,10.3762,10.4971,10.6758,10.7112,10.7456,10.7778,10.7436,10.7288,10.7288,10.7288,10.4933,10.1297,10.451,10.3161,9.9378,10.1784,10.2495,10.2136,10.1361,10.1092,10.1143,10.1528,10.1675,10.1675,10.1675,10.138,10.1144,10.1144,10.1351,10.1602,10.1602,10.1484,10.144,10.144,10.0995,10.0577,10.0368,9.9916,9.9507,9.9507,9.9507,9.9507,9.9507,9.9507,9.9507,9.9507,9.9507,9.9507,9.9507,9.9507,9.9507,9.9507,9.9507,9.9507,9.9507,9.9507,9.9598,9.9825,9.9643,9.9598,9.9825,9.9643,9.9507,9.9507,9.9507,9.9507,9.9507,9.9507,9.9885,10.0716,10.0716,10.1094,10.185,10.185,10.2141,7.1647,7.2692,7.3671,7.3671,7.3716,7.3145,7.095,6.7117,6.3304,6.0854,5.9028,5.8374,5.989,6.2601,6.6497,7.2392,7.2951,7.4363,7.9146,7.9947,8.0904,8.3143,8.4449,8.6034,8.8275,8.859,8.9079,9.0157,9.2537,9.3388,9.204,9.4342,9.5759,9.5868,9.5868,9.7183,10.0056,10.1765,10.3167,10.4409,10.6185,10.7063,10.7063,10.7239,10.7288,10.7288,10.7288,10.5854,10.3526,10.501,10.405,10.1763,10.3166,10.3197,10.2529,10.2341,10.1765,10.1157,10.1469,10.1587,10.1543,10.1587,10.1055,10.0383,10.0413,10.0368,10.0368,10.0368,10.0756,10.1143,10.1143,10.1173,10.1054,10.0503,9.9916,9.9507,9.9507,9.9507,9.9507,9.9507,9.9507,9.9507,9.9507,9.9507,9.9507,9.9507,9.9507,9.9507,9.9507,9.9507,9.9507,9.9507,9.9507,9.9734,10.0278,9.9871,9.9825,10.0368,9.9916,9.9643,9.9598,9.9598,9.9552,9.9507,9.9507,9.9507,9.9507,9.9507,9.9507,9.9507,9.9507,10.0192,7.1402,7.2331,7.3671,7.3671,7.3888,7.3354,7.0315,6.8382,6.5772,6.06,6.0013,5.9978,5.8433,6.2733,6.7406,7.0171,7.4125,7.74,7.9048,8.043,8.1806,8.3198,8.3629,8.4771,8.7176,8.7413,8.7946,8.9118,8.9732,9.026,9.0745,9.1345,9.208,9.2983,9.3009,9.4319,9.7104,9.8393,9.9874,10.1433,10.4096,10.5314,10.5364,10.6718,10.7288,10.7288,10.7288,10.5854,10.3613,10.6376,10.5725,10.3148,10.4915,10.5218,10.4513,10.2846,10.1864,10.138,10.1274,10.0935,10.0653,10.1069,10.1262,10.1321,10.098,10.092,10.092,10.092,10.1247,10.1572,10.1572,10.1867,10.1941,10.1099,10.0217,9.9507,9.9507,9.9507,9.9507,9.9507,9.9507,9.9507,9.9507,9.9507,9.9507,9.9507,9.9507,9.9507,9.9507,9.9507,9.9507,9.9507,9.9507,9.9734,10.0278,10.0187,10.0352,10.0875,10.0831,10.0532,10.0142,10.0142,9.9961,9.9507,9.9507,9.9507,9.9507,9.9507,9.9507,9.9507,9.9507,9.9652,7.1822,7.2613,7.3671,7.3671,7.3824,7.3536,7.1827,6.9873,6.7451,6.3932,6.2927,6.2338,6.1026,6.5057,6.905,7.0565,7.4772,7.7881,7.7883,8.0062,8.1664,8.1676,8.2761,8.4221,8.5979,8.6712,8.7534,8.8663,8.9255,8.9837,9.0377,9.0379,9.0669,9.1276,9.1276,9.2217,9.4241,9.5607,9.7053,9.8472,10.1354,10.3139,10.3972,10.5428,10.6491,10.7288,10.7288,10.6503,10.5388,10.6999,10.6766,10.5359,10.6299,10.6279,10.5579,10.4548,10.3324,10.2244,10.2265,10.1705,10.101,10.1262,10.1218,10.101,10.1054,10.092,10.0711,10.0711,10.1025,10.1381,10.1381,10.1705,10.1837,10.0935,10.0487,10.0126,9.9672,9.9507,9.9507,9.9507,9.9507,9.9507,9.9507,9.9507,9.9507,9.9507,9.9507,9.9507,9.9507,9.9734,10.0006,10.0262,10.0262,10.0487,10.0921,10.0772,10.0891,10.1336,10.1188,10.1095,10.1215,10.0645,10.048,10.0833,10.085,10.062,10.0262,10.0649,10.0529,9.9916,9.9643,9.9507,7.2,7.2889,7.3671,7.3671,7.3671,7.3614,7.3517,7.1296,6.8942,6.7698,6.6286,6.5022,6.4479,6.7532,7.0668,7.2124,7.5398,7.7741,7.7514,7.9968,8.1427,8.0316,8.1998,8.3732,8.5034,8.6312,8.7498,8.8555,8.9366,8.9888,9.0126,9.0126,9.021,9.0379,9.0379,9.0854,9.1804,9.3326,9.4555,9.5553,9.8613,10.0811,10.22,10.368,10.5007,10.6199,10.6367,10.6506,10.6649,10.679,10.7014,10.7288,10.7288,10.6912,10.6334,10.6177,10.4924,10.3251,10.341,10.2641,10.1543,10.1631,10.1099,10.0503,10.0875,10.0577,10.0187,10.0187,10.0532,10.092,10.092,10.1307,10.1454,10.0637,10.0801,10.092,9.9871,9.9643,9.9643,9.9552,9.9507,9.9507,9.9507,9.9507,9.9507,9.9507,9.9507,9.9552,9.9643,10.0097,10.0622,10.1009,10.1084,10.1247,10.1631,10.1381,10.1336,10.1763,10.1677,10.188,10.244,10.1693,10.1661,10.2546,10.2563,10.2218,10.1508,10.1892,10.1609,10.06,9.9896,9.9598,7.0554,7.2067,7.3671,7.3671,7.3671,7.3492,7.2812,7.2306,7.1115,6.8085,6.8113,6.7792,6.4897,6.7532,7.102,7.3716,7.673,7.9312,8.0915,8.1896,8.2237,8.1485,8.1694,8.2729,8.4907,8.6223,8.7386,8.8585,8.7963,8.7965,8.9021,8.9075,8.9456,9.0377,9.0379,9.0458,9.0616,9.1851,9.2537,9.2696,9.6499,9.8389,9.8756,10.1345,10.2272,10.1793,10.2603,10.3302,10.3965,10.4797,10.5965,10.7288,10.7288,10.7221,10.7057,10.6403,10.5246,10.3903,10.3339,10.2236,10.1232,10.1543,10.1351,10.092,10.0503,10.0052,9.9643,9.9643,10.0006,10.0413,10.0413,10.101,10.1543,10.1069,10.1292,10.1321,10.0413,10.0187,10.0052,9.9598,9.9507,9.9507,9.9507,9.9507,9.9507,9.9507,9.9507,9.9689,10.0142,10.0667,10.1009,10.1084,10.1084,10.1247,10.1631,10.1631,10.1793,10.2306,10.3367,10.3756,10.3426,10.448,10.469,10.3939,10.3939,10.3635,10.3103,10.2077,10.1738,10.196,10.0288,9.999,6.9034,7.1199,7.2859,7.3519,7.3671,7.357,7.3248,7.319,7.2619,7.0694,7.0977,7.0771,6.81,6.9785,7.1916,7.2858,7.5547,7.7633,7.7959,7.9788,8.0895,8.0373,8.1124,8.23,8.3982,8.5233,8.6157,8.6713,8.691,8.7481,8.8631,8.8684,8.9236,9.0326,9.0379,9.0379,9.0379,9.088,9.1144,9.1171,9.3562,9.5168,9.6046,9.7965,9.9528,10.0711,10.1122,10.1832,10.279,10.3183,10.4376,10.5894,10.5894,10.6441,10.7299,10.7232,10.6562,10.5494,10.4707,10.3798,10.2804,10.1913,10.1543,10.1262,10.0547,10.0142,9.9916,9.9598,9.9689,9.9916,10.0232,10.0816,10.1292,10.1099,10.1351,10.141,10.0473,10.0323,10.0142,9.9643,9.9507,9.9507,9.9507,9.9507,9.9598,9.9916,9.9961,10.0142,10.0667,10.1158,10.1514,10.1808,10.1853,10.1941,10.2087,10.2101,10.2517,10.347,10.4068,10.48,10.5746,10.5762,10.5737,10.5729,10.5712,10.5206,10.4179,10.4103,10.3822,10.3278,10.147,10.1025,6.6979,6.9134,7.0818,7.322,7.3532,7.3316,7.3595,7.3671,7.3473,7.2937,7.3136,7.2857,7.1069,7.1805,7.2698,7.2871,7.4784,7.6202,7.6152,7.8229,7.9646,7.9333,8.0356,8.1414,8.2393,8.383,8.4729,8.4881,8.5591,8.6562,8.773,8.7809,8.8457,8.9904,8.9957,9.0089,9.0379,9.0379,9.0379,9.0405,9.1566,9.2741,9.392,9.5026,9.6629,9.8486,9.8685,9.9382,10.0435,10.0965,10.249,10.4528,10.4841,10.6114,10.7749,10.8138,10.769,10.6866,10.6261,10.5469,10.4487,10.2893,10.1854,10.1233,10.0787,10.0473,10.0232,9.9825,9.9734,9.978,10.0052,10.0487,10.0875,10.0875,10.1173,10.1307,10.0503,10.0323,10.0142,9.9643,9.9507,9.9507,9.9507,9.9643,9.9825,10.0052,10.0323,10.0711,10.1321,10.169,10.2013,10.2423,10.2423,10.2423,10.2423,10.2423,10.2991,10.4307,10.4397,10.5249,10.712,10.6346,10.6281,10.7073,10.6931,10.6465,10.56,10.5833,10.532,10.4174,10.2316,10.1667,6.4089,6.5122,6.7036,7.279,7.309,7.2325,7.3417,7.3671,7.3646,7.3608,7.3621,7.3426,7.2535,7.2459,7.3197,7.526,7.5723,7.659,7.8797,7.9218,7.9327,7.9323,7.9397,7.9572,8.0043,8.2139,8.353,8.3657,8.3693,8.4241,8.5429,8.551,8.6516,8.8637,8.8719,8.9271,9.0379,9.0379,9.0379,9.0405,9.1566,9.2173,9.2303,9.3334,9.3506,9.2994,9.3695,9.451,9.5391,9.7364,10.0435,10.3945,10.5099,10.6828,10.8766,10.8814,10.8214,10.7452,10.7439,10.6654,10.5496,10.4562,10.2492,10.0518,10.1366,10.0966,10.0323,10.0278,10.0278,10.0113,9.9689,9.9961,10.0368,10.0368,10.0711,10.0965,10.0413,10.0323,10.0142,9.9643,9.9507,9.9507,9.9507,9.9916,10.0097,9.9643,10.0397,10.1366,10.2248,10.2379,10.2423,10.2423,10.2423,10.2423,10.2423,10.2423,10.2991,10.4307,10.4397,10.4995,10.6325,10.6325,10.6664,10.7452,10.6937,10.7131,10.7884,10.6212,10.5016,10.4174,10.2316,10.1537,6.07,6.2436,6.435,6.9683,7.1715,7.2507,7.2941,7.3554,7.3747,7.275,7.3446,7.4085,7.3799,7.3324,7.345,7.4736,7.448,7.4537,7.553,7.6206,7.6731,7.7129,7.7769,7.8812,8.0364,8.0921,8.1134,8.123,8.2596,8.3956,8.5127,8.5207,8.5899,8.7453,8.7506,8.7717,8.8113,8.8877,8.9271,8.9297,9.0458,9.1012,9.1012,9.1383,9.1824,9.2258,9.254,9.3247,9.415,9.4916,9.6704,9.8989,9.9353,10.116,10.3652,10.5093,10.6106,10.6261,10.2813,10.1135,10.0465,10.0311,9.9785,9.9407,10.0444,10.0966,10.1099,10.0891,10.0831,10.0756,10.0606,10.0861,10.1188,10.1188,10.1572,10.1808,10.1277,10.1188,10.1055,10.0622,10.0487,10.0487,10.0487,10.0667,10.0846,10.0876,10.1514,10.1985,10.1925,10.2218,10.2423,10.2423,10.0551,9.9329,9.9329,9.9329,9.9674,10.0454,10.3742,10.56,10.5588,10.6643,10.6773,10.5877,10.5364,10.5082,10.5093,10.4417,10.3952,10.3646,10.2531,10.2629,5.7037,5.8672,6.0755,6.5633,6.8549,7.0394,7.1045,7.2486,7.3379,7.2158,7.3241,7.4336,7.4233,7.3757,7.3551,7.4101,7.3746,7.3494,7.3847,7.4384,7.5041,7.5858,7.6581,7.7612,7.9254,7.9335,7.9581,8.0174,8.183,8.3239,8.4256,8.4478,8.5101,8.624,8.6293,8.6478,8.6899,8.7664,8.8245,8.8614,8.9455,9.001,9.0379,9.0379,9.0801,9.154,9.154,9.1962,9.2596,9.2992,9.4222,9.5947,9.6355,9.808,10.0595,10.2095,10.2854,10.2713,9.9298,9.7517,9.6714,9.6671,9.6333,9.6205,9.7405,9.8156,9.8396,9.814,9.8558,9.9121,9.9381,10.0124,10.0921,10.1395,10.1735,10.1897,10.1528,10.1484,10.1395,10.1143,10.1084,10.1084,10.1084,10.1084,10.1232,10.1587,10.1837,10.1779,10.1277,10.169,10.1985,10.1985,9.9696,9.8188,9.8188,9.7197,9.6922,9.7738,10.0694,10.2373,10.2275,10.3151,10.3618,10.3546,10.2316,10.2063,10.2906,10.2716,10.2103,10.1164,10.1024,10.1226,5.3292,5.3836,5.6284,6.1028,6.3761,6.5765,6.7649,7.0349,7.2363,7.1911,7.3039,7.4033,7.3735,7.3665,7.364,7.3671,7.3665,7.3792,7.4192,7.428,7.4606,7.5623,7.5795,7.5996,7.6535,7.7525,7.8882,8.0645,8.1289,8.1867,8.2552,8.3077,8.3888,8.5049,8.5075,8.5629,8.6794,8.682,8.7401,8.8558,8.8535,8.9192,9.03,9.03,9.0353,9.0328,9.0328,9.0328,9.0433,9.1593,9.3251,9.5203,9.635,9.8103,10.0039,9.9983,9.8676,9.6878,9.7326,9.6293,9.4729,9.4088,9.2484,9.1017,9.2483,9.2518,9.2152,9.2152,9.3543,9.5182,9.5911,9.7501,9.924,10.0507,10.0847,10.0891,10.0891,10.0921,10.0995,10.1069,10.1025,10.1009,10.1084,10.1084,10.1203,10.1543,10.1203,10.0713,10.016,10.0504,10.0802,10.0757,9.9624,9.8872,9.8947,9.6147,9.494,9.6285,9.5316,9.5278,9.6521,9.5999,9.7209,10.0458,9.7963,9.8283,10.1546,10.1043,9.9398,9.6704,9.7757,9.7304,5.5402,5.4496,5.4839,6.0977,6.3416,6.4484,6.5018,6.637,6.7831,6.9013,7.0491,7.1981,7.343,7.3466,7.3358,7.3614,7.3206,7.3052,7.3728,7.4084,7.4347,7.4649,7.5338,7.5981,7.6425,7.7481,7.8341,7.8855,7.983,8.0821,8.1888,8.2033,8.2653,8.3861,8.3888,8.4046,8.4341,8.5207,8.5787,8.6131,8.6952,8.7559,8.7875,8.8719,8.9308,8.9661,8.9661,8.9661,8.9739,9.0568,9.1186,9.1746,9.2065,9.3088,9.4267,9.3432,9.2731,9.2114,9.1414,9.0521,8.9815,9.0383,9.0062,8.9856,9.1785,9.2518,9.2728,9.2728,9.3091,9.3448,9.3334,9.3948,9.4649,9.4602,9.5933,9.7114,9.7114,9.78,9.8828,10.0382,10.0228,10.0099,10.092,10.1084,10.1009,10.0727,9.8755,9.6702,9.5026,9.4935,9.4471,9.3059,9.0505,8.9215,8.9998,8.9257,8.9362,9.0788,9.412,9.5885,9.5489,9.6524,9.6854,9.6485,9.4661,9.3951,9.442,9.4276,9.402,9.3723,9.5182,9.6237,5.2423,5.0683,4.9962,5.4221,5.6092,5.7528,5.9664,6.1273,6.2967,6.5037,6.7035,6.8894,7.0342,7.0716,7.0862,7.1102,7.1156,7.1558,7.2812,7.3232,7.3741,7.467,7.4658,7.4688,7.5141,7.6318,7.7273,7.7756,7.8646,7.9583,8.0514,8.1039,8.1637,8.232,8.282,8.3035,8.3035,8.393,8.4653,8.5128,8.5867,8.6425,8.6926,8.7585,8.8045,8.8374,8.8846,8.9056,8.9159,9.0042,9.0379,9.0379,9.0379,9.0801,9.1197,8.9561,8.8904,8.8746,8.7361,8.6594,8.6335,8.6415,8.6392,8.6623,8.8053,8.8703,8.8933,8.8933,8.9457,9.0115,9.0388,9.1258,9.2169,9.2405,9.317,9.3959,9.4428,9.434,9.4687,9.6346,9.5971,9.5536,9.6245,9.703,9.703,9.5483,9.3437,9.2096,9.2132,9.1018,9.0321,9.0433,8.7946,8.6409,8.6558,8.5373,8.5189,8.6466,8.9882,9.1804,9.1655,9.3071,9.3731,9.3564,9.1119,9.0085,9.0569,9.0372,9.0011,8.9559,9.1076,9.2123,4.6003,4.4324,4.3994,4.4923,4.5891,4.7851,0.0,5.4975,5.7009,5.959,6.2204,6.4327,6.5227,6.6226,6.7005,6.7286,6.8177,6.9542,7.1382,7.1732,7.2619,7.4732,7.3646,7.2818,7.3137,7.4688,7.6032,7.6881,7.758,7.8256,7.8962,7.9983,8.0625,8.0737,8.1861,8.2516,8.25,8.3092,8.394,8.4943,8.4943,8.5497,8.6504,8.6636,8.664,8.667,8.7802,8.8303,8.8458,8.9537,9.001,9.001,9.001,9.001,8.9746,8.7664,8.6899,8.6643,8.5044,8.4326,8.4038,8.2887,8.2395,8.2385,8.2856,8.3031,8.3019,8.3177,8.4407,8.5908,8.7246,8.884,9.0396,9.1587,9.1286,9.1044,9.1982,9.0836,8.9925,9.095,9.0355,8.9625,8.9629,9.1073,9.111,8.7789,8.6862,8.7348,8.9784,8.7753,8.7059,8.9523,8.8122,8.6637,8.5696,8.3175,8.2122,8.3179,8.4435,8.5582,8.6677,8.7816,8.9242,9.0957,8.7583,8.6683,8.843,8.7983,8.6823,8.5057,8.6538,8.6526,0.0,0.0,0.0,0.0,0.0,0.0,0.0,4.576,4.6934,5.0125,5.295,5.5945,5.9377,6.1293,6.3008,6.5141,6.6324,6.7358,6.8387,6.9491,7.0414,7.0872,7.2008,7.2279,7.1233,7.4222,7.5649,7.4314,7.5778,7.7203,7.8274,7.8582,7.9105,8.0064,8.1198,8.1841,8.1826,8.288,8.3518,8.3729,8.3729,8.3861,8.4104,8.5049,8.5256,8.492,8.5974,8.6422,8.6498,8.7256,8.7559,8.7559,8.7559,8.7559,8.7506,8.7084,8.6899,8.6741,8.5405,8.4378,8.3382,8.2224,8.1177,8.0414,8.0551,8.0603,8.0803,8.1843,8.2423,8.2949,8.4142,8.4762,8.5036,8.518,8.6312,8.7336,8.7548,8.8014,8.8694,8.9621,8.9204,8.8694,8.8539,8.8853,8.7424,8.2423,8.2958,8.3556,8.2405,8.1755,8.1003,8.0024,7.9554,7.9281,7.9032,7.9256,7.9822,8.0848,8.2805,8.4454,8.5586,8.6652,8.6961,8.6458,8.4921,8.3857,8.341,8.3352,8.3299,8.3325,8.4869,8.3808,0.0,0.0,0.0,0.0,0.0,0.0,0.0,0.0,0.0,0.0,0.0,4.8585,5.1046,0.0,5.8032,5.9189,6.2063,6.4703,6.635,6.7194,6.7362,6.6593,6.8032,6.9098,6.9095,7.1485,7.2773,7.2098,7.2479,7.3627,7.5717,7.5008,7.5805,7.8567,7.9121,7.9689,8.0366,8.1812,8.2495,8.2495,8.3102,8.3413,8.3439,8.4019,8.4141,8.3928,8.441,8.4987,8.5561,8.5879,8.6346,8.6794,8.5607,8.5132,8.5001,8.3603,8.3966,8.4895,8.2893,8.2382,8.2416,8.1836,8.086,7.9892,7.9892,7.9597,7.9352,8.0006,8.0186,8.0355,8.0994,8.1501,8.1824,8.1815,8.2198,8.2646,8.316,8.3372,8.3551,8.3979,8.3822,8.3398,8.2791,8.2733,8.212,8.0454,8.1055,8.1727,8.1727,8.0805,7.9754,7.8758,7.7492,7.6361,7.5555,7.5684,7.6427,7.7859,8.1013,8.3323,8.441,8.5722,8.6158,8.556,8.3408,8.2167,8.1924,8.0721,8.03,8.0586,8.1631,8.0935,0.0,0.0,0.0,0.0,0.0,0.0,0.0,0.0,0.0,0.0,0.0,0.0,0.0,0.0,0.0,5.2932,5.7711,6.2104,6.4184,6.4322,6.3883,6.3029,6.4364,6.5755,6.6706,6.8508,6.9712,6.9997,6.9558,7.0387,7.2773,7.1968,7.3033,7.65,7.7064,7.7891,7.8931,8.0501,8.1335,8.1335,8.2258,0.0,8.2706,8.2917,8.2925,8.2735,8.2978,8.3559,8.443,8.422,8.4922,8.5976,8.3603,8.2706,8.2422,8.0258,8.0848,8.2396,8.0159,8.0112,8.0966,8.0966,7.9997,7.8819,7.8685,7.8073,0.0,7.7612,7.7929,7.8339,7.8666,7.9465,8.0212,8.0263,7.9629,7.9255,8.0097,7.9843,7.9288,7.8802,7.8741,7.8476,7.7632,7.7245,7.747,7.8828,7.9275,8.0053,8.1696,8.0503,7.9575,7.9754,7.7707,7.5776,7.4308,7.3208,7.3437,7.5481,7.8327,8.0259,8.0965,8.2488,8.3101,8.2657,7.9941,7.9273,8.0693,7.8661,7.7851,7.8141,7.5595,7.5014,0.0,0.0,0.0,0.0,0.0,0.0,0.0,0.0,0.0,0.0,0.0,0.0,0.0,0.0,0.0,0.0,5.5434,6.0013,6.0748,6.003,6.0075,6.1795,6.3656,6.4527,6.3766,6.6978,6.8753,6.8045,6.9467,7.0548,7.0869,7.2378,0.0,0.0,0.0,7.8112,7.8261,7.9486,8.0076,8.0076,8.0208,8.0261,8.0314,8.1388,8.1284,8.0353,8.1387,8.1903,8.1942,8.0944,8.1809,8.3524,8.1183,8.0261,8.0234,7.9926,8.0005,8.0234,7.9926,0.0,0.0,7.8557,7.7036,7.5099,7.4276,7.3987,7.3932,7.4312,7.5839,7.7578,7.8617,7.9685,8.0404,8.0333,8.0179,8.0149,8.0246,8.1102,8.1204,7.9135,7.8807,7.8836,7.8594,7.7419,7.6031,7.4775,7.5575,7.6383,7.6649,7.678,7.7248,7.8384,7.7666,0.0,7.5506,7.2917,7.2572,7.5433,7.3581,7.2157,7.1736,7.3187,7.3016,7.0935,6.9991,7.1836,7.6503,7.5627,7.607,7.7327,6.3814,6.1349,0.0,0.0,0.0,0.0,0.0,0.0,0.0,0.0,0.0,0.0,0.0,0.0,0.0,0.0,0.0,0.0,5.0465,5.4798,5.5028,5.594,5.741,5.9717,6.1015,6.1853,6.2311,6.3885,6.4875,6.5022,6.5256,6.6358,6.8746,6.833,6.9216,7.1693,7.3413,7.4666,7.5444,7.773,7.8882,7.8882,7.9549,7.9892,7.9892,8.0393,8.0366,7.9929,8.0427,8.0631,8.0603,8.0091,8.0445,8.1203,0.0,0.0,0.0,0.0,7.8749,7.8038,7.6965,7.6966,7.7408,7.7985,7.701,7.5362,7.3757,7.293,7.2381,7.2037,7.2627,7.3617,7.4793,7.6321,7.7574,7.7565,7.8043,7.8456,7.8456,7.9395,7.97,7.8148,7.8359,0.0,7.7927,7.6806,7.6324,7.74,7.8046,7.8396,7.8396,7.8535,7.8387,7.7717,7.7021,7.6061,7.4724,7.3087,0.0,0.0,0.0,7.3868,7.4226,7.4866,0.0,0.0,0.0,6.7101,7.0032,6.4067,0.0,0.0,5.7739,5.6854,0.0,0.0,0.0,0.0,0.0,0.0,0.0,0.0,0.0,0.0,0.0,0.0,0.0,0.0,0.0,0.0,4.5794,4.9915,4.9182,5.1676,5.4241,5.6024,5.7556,5.8907,6.0074,6.0655,6.1481,6.2709,6.2112,6.2969,6.5867,6.5196,6.6089,6.9211,7.0587,7.1757,7.2645,7.4891,7.6061,7.6061,7.6914,7.7625,7.8129,7.8442,7.8727,7.8929,7.8716,7.8615,7.857,7.8237,7.8539,7.884,7.6514,7.6192,7.6802,7.581,7.4954,7.4125,7.2779,7.3527,7.5119,7.5812,7.5593,7.4771,7.3035,7.2042,7.13,7.0356,7.058,7.1242,7.2103,7.3683,7.4978,7.5114,7.5701,7.6262,7.6262,7.71,7.757,7.6484,7.6896,7.712,7.624,7.5474,7.5693,7.7766,7.8337,7.8684,7.9007,7.9151,7.8776,7.7595,7.6871,7.5881,7.4455,7.3183,7.3212,7.5017,7.4424,7.4659,7.6206,7.4756,7.4334,7.5093,6.7775,6.3888,0.0,0.0,0.0,0.0,0.0,0.0,0.0,0.0,0.0,0.0,0.0,0.0,0.0,0.0,0.0,0.0,0.0,0.0,0.0,0.0,0.0,0.0,0.0,0.0,4.3766,4.7174,4.9966,5.0032,5.3533,5.5901,5.5968,5.7708,5.965,6.1682,6.1838,6.1861,6.1976,6.4552,6.6078,6.6239,6.9071,7.0634,7.0683,7.0756,7.0781,7.0781,7.0805,7.1856,7.3735,7.4849,7.5777,7.6437,7.5702,7.5389,7.5292,7.4122,7.5001,7.6521,7.1332,6.9304,6.9189,6.8021,6.7599,6.7552,6.7481,6.8812,7.057,7.0616,7.1171,7.1719,7.0886,7.0558,7.0248,6.9312,7.0576,7.228,7.2307,7.3137,7.3943,7.3919,7.3968,7.3968,7.3968,7.4901,7.5348,7.4179,7.4017,7.3857,7.3473,7.3384,7.3155,7.2635,7.3531,0.0,7.5788,7.6298,7.6961,7.8184,7.7569,7.6678,7.5652,7.2892,7.1979,7.382,7.1301,7.1056,7.3844,6.8757,6.6055,6.6464,6.4785,6.2034,5.8169,0.0,0.0,0.0,0.0,0.0,0.0,0.0,0.0,0.0,0.0,0.0,0.0,0.0,0.0,0.0,0.0,0.0,0.0,0.0,0.0,0.0,0.0,0.0,0.0,4.3227,4.6773,4.7707,5.0471,5.1689,5.0011,5.2269,5.4637,5.6616,5.8615,6.0341,6.1727,6.2734,6.3263,6.3263,6.6101,6.7633,6.7633,6.9566,7.0548,7.0548,7.0548,7.0914,7.1531,7.1947,7.2289,7.248,7.2253,7.2146,7.2089,7.1687,7.085,6.9722,6.9218,6.8558,6.7716,6.6751,6.6372,6.6252,6.5653,6.6298,6.7505,6.809,6.9037,6.9477,6.7114,6.6902,6.7041,6.5454,6.5542,6.6257,6.6972,6.8931,7.0791,7.0791,7.2352,7.387,7.387,7.4173,7.4332,7.3941,7.1015,6.8068,6.6503,6.9803,7.1369,6.7596,7.0973,7.4079,7.4479,7.4615,7.4902,7.5296,7.5112,7.4847,7.4481,7.3516,7.3218,7.3797,7.2927,7.2554,7.2844,7.1022,6.9727,6.9211,6.9885,6.3932,5.1084,0.0,0.0,0.0,0.0,0.0,0.0,0.0,0.0,0.0,0.0,0.0,0.0,0.0,0.0,0.0,0.0,0.0,0.0,0.0,0.0,0.0,0.0,0.0,0.0,0.0,0.0,4.5658,4.7558,0.0,4.5951,4.7512,4.9212,5.0543,5.3023,5.5568,5.8083,5.8794,5.9782,6.1213,6.3403,6.4552,6.4552,6.6495,6.7635,6.7921,6.7921,6.8482,6.9513,6.9513,6.9905,7.0503,6.9837,6.9513,6.9395,6.7961,6.5499,6.2737,6.3876,6.3061,6.1271,6.1417,6.1358,6.1298,6.1541,6.1894,6.2447,6.3786,6.4044,6.3381,6.1308,6.0246,5.9809,6.0275,6.0698,6.1447,6.3534,6.583,6.7714,6.8436,7.0173,7.1845,7.2582,7.1845,7.0817,7.015,6.7779,6.4849,6.1511,6.5006,6.7008,6.3157,6.6744,7.0551,7.2504,7.3407,7.387,7.387,7.387,7.387,7.387,7.3529,7.3309,7.3309,7.2943,7.2478,7.1794,7.1745,7.0353,6.7325,6.824,6.2075,0.0,0.0,0.0,0.0,0.0,0.0,0.0,0.0,0.0,0.0,0.0,0.0,0.0,0.0,0.0,0.0,0.0,0.0,0.0,0.0,0.0,0.0,0.0,0.0,0.0,0.0,0.0,4.3441,4.4443,0.0,0.0,0.0,0.0,4.3744,4.5473,4.7923,5.1051,5.2739,5.5414,5.9404,6.0654,6.1301,6.1503,6.1658,6.2194,6.3111,6.3111,6.4577,6.7363,6.7363,6.8348,7.0036,6.8185,6.7363,6.7059,6.2941,5.9224,5.6091,5.5579,5.3155,5.0255,5.2283,5.2762,5.2734,5.5407,5.586,5.5603,5.7563,5.6355,5.4057,5.3619,5.1051,0.0,0.0,5.5738,5.7446,6.1538,6.3244,6.4475,6.675,6.7339,6.7927,6.9975,6.7929,6.5091,6.31,6.4012,6.3422,5.802,0.0,6.0033,5.8994,6.0897,6.4353,6.969,7.2284,7.3724,7.3724,7.3724,7.3724,7.3724,7.2797,7.2258,7.2258,7.1281,7.0765,7.0765,7.0472,6.7325,6.1098,6.0173,0.0,0.0,0.0,0.0,0.0,0.0,0.0,0.0,0.0,0.0,0.0,0.0,0.0,0.0,0.0,0.0,0.0,0.0,0.0,0.0,0.0,0.0,0.0,0.0,0.0,0.0,3.4393,3.6744,3.8257,3.8861,3.7561,0.0,0.0,0.0,0.0,0.0,0.0,4.4529,4.4675,4.6101,4.9154,5.1665,5.437,5.7284,5.955,6.1185,6.2151,6.2082,6.2473,6.3302,6.3302,6.3559,6.4045,6.3512,6.3302,6.2918,5.7812,5.4591,5.2685,5.0464,4.7809,4.5407,4.6634,4.6231,4.6111,5.3538,5.3727,5.0762,5.1066,5.0702,4.9612,4.703,0.0,0.0,0.0,0.0,4.6197,5.0518,5.3439,5.6487,6.1265,6.2873,6.386,6.5823,6.4347,6.1336,5.7042,5.5122,5.2344,4.6624,4.8874,0.0,5.0328,5.597,6.1376,6.4304,6.8717,7.155,7.155,7.155,7.155,7.155,7.1281,7.1135,7.1135,7.0912,7.0765,7.0765,6.608,6.2514,6.0339,0.0,0.0,0.0,0.0,0.0,0.0,0.0,0.0,0.0,0.0,0.0,0.0,0.0,0.0,0.0,0.0,0.0,0.0,0.0,0.0,0.0,0.0,0.0,0.0,0.0,0.0,0.0,3.1052,3.3854,3.5973,3.5213,3.3238,0.0,0.0,0.0,0.0,0.0,0.0,0.0,0.0,0.0,4.3093,4.4761,4.6887,4.9451,5.3207,5.5617,5.6657,5.8337,5.9641,6.0548,6.0526,6.0748,6.1123,6.1198,5.9086,5.5362,5.2638,4.9258,4.5572,0.0,0.0,0.0,0.0,3.9922,3.9876,4.806,4.799,4.4239,4.3858,0.0,0.0,0.0,0.0,0.0,0.0,0.0,4.1971,4.9025,5.2062,5.4401,5.8842,6.0871,6.2348,6.4299,5.7258,4.9939,4.7548,4.6384,4.4145,3.9189,4.0919,0.0,0.0,0.0,5.5399,5.8752,6.5361,6.968,6.9424,7.0189,7.0765,7.0765,7.0765,7.0765,7.0765,7.0765,6.9299,6.5958,6.188,5.6678,0.0,0.0,0.0,0.0,0.0,0.0,0.0,0.0,0.0,0.0,0.0,0.0,0.0,0.0,0.0,0.0,0.0,0.0,0.0,0.0,0.0,0.0,0.0,0.0,0.0,0.0,0.0,0.0,0.0,3.1966,3.4316,0.0,0.0,0.0,0.0,0.0,0.0,0.0,0.0,0.0,0.0,0.0,0.0,0.0,3.9194,4.0484,4.4843,4.7567,4.8707,5.2395,5.509,5.6817,5.697,5.7583,5.8548,5.8216,0.0,4.7739,4.7233,0.0,0.0,0.0,0.0,0.0,0.0,0.0,0.0,0.0,0.0,0.0,0.0,0.0,0.0,0.0,0.0,0.0,0.0,0.0,0.0,0.0,0.0,5.317,5.5103,5.7386,5.9293,6.0213,4.7612,3.6321,3.7129,3.8005,3.7297,0.0,0.0,0.0,0.0,0.0,0.0,5.3572,6.2085,6.7692,6.7645,6.9165,7.0319,7.0719,7.0765,7.0716,7.0524,6.9596,6.6055,5.9312,5.7373,0.0,0.0,0.0,0.0,0.0,0.0,0.0,0.0,0.0,0.0,0.0,0.0,0.0,0.0,0.0,0.0,0.0,0.0,0.0,0.0,0.0,0.0,0.0,0.0,0.0,0.0,0.0,0.0,0.0,0.0,0.0,0.0,0.0,0.0,0.0,0.0,0.0,0.0,0.0,0.0,0.0,0.0,0.0,0.0,0.0,0.0,0.0,0.0,0.0,0.0,4.3807,4.5096,4.5783,4.674,4.8096,4.9489,4.6864,4.6797,4.8033,4.0715,0.0,0.0,0.0,0.0,0.0,0.0,0.0,0.0,0.0,0.0,0.0,0.0,0.0,0.0,0.0,0.0,0.0,0.0,0.0,0.0,0.0,0.0,4.1044,3.8616,4.1443,4.334,3.8607,0.0,0.0,0.0,0.0,0.0,0.0,0.0,0.0,0.0,0.0,0.0,5.0356,5.8579,6.4999,6.741,6.7315,6.8097,7.0554,7.0765,7.0353,6.9384,6.3572,5.913,0.0,0.0,0.0,0.0,0.0,0.0,0.0,0.0,0.0,0.0,0.0,0.0,0.0,0.0,0.0,0.0,0.0,0.0,0.0,0.0,0.0,0.0,0.0,0.0,0.0,0.0,0.0,0.0,0.0,0.0,0.0,0.0,0.0,0.0,0.0,0.0,0.0,0.0,0.0,0.0,0.0,0.0,0.0,0.0,0.0,0.0,0.0,0.0,0.0,0.0,0.0,0.0,0.0,0.0,0.0,0.0,0.0,0.0,4.0907,3.7618,0.0,0.0,0.0,0.0,0.0,0.0,0.0,0.0,0.0,0.0,0.0,0.0,0.0,0.0,0.0,0.0,0.0,0.0,0.0,0.0,0.0,0.0,0.0,0.0,0.0,0.0,0.0,0.0,0.0,0.0,0.0,0.0,0.0,0.0,0.0,0.0,0.0,0.0,0.0,0.0,4.6401,5.5291,6.2285,6.5045,6.5871,6.7492,7.0484,7.0207,6.8164,6.4311,5.9629,0.0,0.0,0.0,0.0,0.0,0.0,0.0,0.0,0.0,0.0,0.0,0.0,0.0,0.0,0.0,0.0,0.0,0.0,0.0,0.0,0.0,0.0,0.0,0.0,0.0,0.0,0.0,0.0,0.0,0.0,0.0,0.0,0.0,0.0,0.0,0.0,0.0,0.0,0.0,0.0,0.0,0.0,0.0,0.0,0.0,0.0,0.0,0.0,0.0,0.0,0.0,0.0,0.0,0.0,0.0,0.0,0.0,0.0,0.0,3.5798,2.9963,0.0,0.0,0.0,0.0,0.0,0.0,0.0,0.0,0.0,0.0,0.0,0.0,0.0,0.0,0.0,0.0,0.0,0.0,0.0,0.0,0.0,0.0,0.0,0.0,0.0,0.0,0.0,0.0,0.0,0.0,0.0,0.0,0.0,0.0,0.0,0.0,0.0,0.0,0.0,0.0,4.4373,5.2714,5.9321,6.1958,6.3882,6.6234,6.923,6.8984,6.5915,5.9344,5.5482,0.0,0.0,0.0,0.0,0.0,0.0,0.0,0.0,0.0,0.0,0.0,0.0,0.0,0.0,0.0,0.0,0.0,0.0,0.0,0.0,0.0,0.0,0.0,0.0,0.0,0.0,0.0,0.0,0.0,0.0,0.0,0.0,0.0,0.0,0.0,0.0,0.0,0.0,0.0,0.0,0.0,0.0,0.0,0.0,0.0,0.0,0.0,0.0,0.0,0.0,0.0,0.0,0.0,0.0,0.0,0.0,0.0,0.0,0.0,0.0,0.0,0.0,0.0,0.0,0.0,0.0,0.0,0.0,0.0,0.0,0.0,0.0,0.0,0.0,0.0,0.0,0.0,0.0,0.0,0.0,0.0,0.0,0.0,0.0,0.0,0.0,0.0,0.0,0.0,0.0,0.0,0.0,0.0,0.0,0.0,0.0,0.0,0.0,0.0,0.0,0.0,4.7243,5.1716,5.5823,5.8832,6.0166,6.2058,6.5038,6.672,6.4618,5.7622,0.0,0.0,0.0,0.0,0.0,0.0,0.0,0.0,0.0,0.0,0.0,0.0,0.0,0.0,0.0,0.0,0.0,0.0,0.0,0.0,0.0,0.0,0.0,0.0,0.0,0.0,0.0,0.0,0.0,0.0,0.0,0.0,0.0,0.0,0.0,0.0,0.0,0.0,0.0,0.0,0.0,0.0,0.0,0.0,0.0,0.0,0.0,0.0,0.0,0.0,0.0,0.0,0.0,0.0,0.0,0.0,0.0,0.0,0.0,0.0,0.0,0.0,0.0,0.0,0.0,0.0,0.0,0.0,0.0,0.0,0.0,0.0,0.0,0.0,0.0,0.0,0.0,0.0,0.0,0.0,0.0,0.0,0.0,0.0,0.0,0.0,0.0,0.0,0.0,0.0,0.0,0.0,0.0,0.0,0.0,0.0,0.0,0.0,0.0,0.0,0.0,0.0,4.2559,4.9183,5.466,5.7568,5.9525,6.1739,6.4487,6.6057,6.2434,5.2001,0.0,0.0,0.0,0.0,0.0,0.0,0.0,0.0,0.0,0.0,0.0,0.0,0.0,0.0,0.0,0.0,0.0,0.0,0.0,0.0,0.0,0.0,0.0,0.0,0.0,0.0,0.0,0.0,0.0,0.0,0.0,0.0,0.0,0.0,0.0,0.0,0.0,0.0,0.0,0.0,0.0,0.0,0.0,0.0,0.0,0.0,0.0,0.0,0.0,0.0,0.0,0.0,0.0,0.0,0.0,0.0,0.0,0.0,0.0,0.0,0.0,0.0,0.0,0.0,0.0,0.0,0.0,0.0,0.0,0.0,0.0,0.0,0.0,0.0,0.0,0.0,0.0,0.0,0.0,0.0,0.0,0.0,0.0,0.0,0.0,0.0,0.0,0.0,0.0,0.0,0.0,0.0,0.0,0.0,0.0,0.0,0.0,0.0,0.0,0.0,0.0,0.0,3.9925,4.7856,5.3853,5.6221,5.8479,6.0568,6.2394,6.3561,5.9225,4.7522,0.0,0.0,0.0,0.0,0.0,0.0,0.0,0.0,0.0,0.0,0.0,0.0,0.0,0.0,0.0,0.0,0.0,0.0,0.0,0.0,0.0,0.0,0.0,0.0,0.0,0.0,0.0,0.0,0.0,0.0,0.0,0.0,0.0,0.0,0.0,0.0,0.0,0.0,0.0,0.0,0.0,0.0,0.0,0.0,0.0,0.0,0.0,0.0,0.0,0.0,0.0,0.0,0.0,0.0,0.0,0.0,0.0,0.0,0.0,0.0,0.0,0.0,0.0,0.0,0.0,0.0,0.0,0.0,0.0,0.0,0.0,0.0,0.0,0.0,0.0,0.0,0.0,0.0,0.0,0.0,0.0,0.0,0.0,0.0,0.0,0.0,0.0,0.0,0.0,0.0,0.0,0.0,0.0,0.0,0.0,0.0,0.0,0.0,0.0,0.0,0.0,0.0,4.1664,4.8447,5.2977,5.4295,5.6194,5.7381,5.7426,5.8232,5.4769,0.0,0.0,0.0,0.0,0.0,0.0,0.0,0.0,0.0,0.0,0.0,0.0,0.0,0.0,0.0,0.0,0.0,0.0,0.0,0.0,0.0,0.0,0.0,0.0,0.0,0.0,0.0,0.0,0.0,0.0,0.0,0.0,0.0,0.0,0.0,0.0,0.0,0.0,0.0,0.0,0.0,0.0,0.0,0.0,0.0,0.0,0.0,0.0,0.0,0.0,0.0,0.0,0.0,0.0,0.0,0.0,0.0,0.0,0.0,0.0,0.0,0.0,0.0,0.0,0.0,0.0,0.0,0.0,0.0,0.0,0.0,0.0,0.0,0.0,0.0,0.0,0.0,0.0,0.0,0.0,0.0,0.0,0.0,0.0,0.0,0.0,0.0,0.0,0.0,0.0,0.0,0.0,0.0,0.0,0.0,0.0,0.0,0.0,0.0,0.0,0.0,0.0,0.0,3.7487,4.4072,4.9047,5.2252,5.4576,5.5742,5.5398,5.7067,5.4107,4.4502,0.0,0.0,0.0,0.0,0.0,0.0,0.0,0.0,0.0,0.0,0.0,0.0,0.0,0.0,0.0,0.0,0.0,0.0,0.0,0.0,0.0,0.0,0.0,0.0,0.0,0.0,0.0,0.0,0.0,0.0,0.0,0.0,0.0,0.0,0.0,0.0,0.0,0.0,0.0,0.0,0.0,0.0,0.0,0.0,0.0,0.0,0.0,0.0,0.0,0.0,0.0,0.0,0.0,0.0,0.0,0.0,0.0,0.0,0.0,0.0,0.0,0.0,0.0,0.0,0.0,0.0,0.0,0.0,0.0,0.0,0.0,0.0,0.0,0.0,0.0,0.0,0.0,0.0,0.0,0.0,0.0,0.0,0.0,0.0,0.0,0.0,0.0,0.0,0.0,0.0,0.0,0.0,0.0,0.0,0.0,0.0,0.0,0.0,0.0,0.0,0.0,0.0,0.0,4.2696,4.7962,5.1816,5.3504,5.4271,5.393,5.5534,5.2576,4.3338,0.0,0.0,0.0,0.0,0.0,0.0,0.0,0.0,0.0,0.0,0.0,0.0,0.0,0.0,0.0,0.0,0.0,0.0,0.0,0.0,0.0,0.0,0.0,0.0,0.0,0.0,0.0,0.0,0.0,0.0,0.0,0.0,0.0,0.0,0.0,0.0,0.0,0.0,0.0,0.0,0.0,0.0,0.0,0.0,0.0,0.0,0.0,0.0,0.0,0.0,0.0,0.0,0.0,0.0,0.0,0.0,0.0,0.0,0.0,0.0,0.0,0.0,0.0,0.0,0.0,0.0,0.0,0.0,0.0,0.0,0.0,0.0,0.0,0.0,0.0,0.0,0.0,0.0,0.0,0.0,0.0,0.0,0.0,0.0,0.0,0.0,0.0,0.0,0.0,0.0,0.0,0.0,0.0,0.0,0.0,0.0,0.0,0.0,0.0,0.0,0.0,0.0,0.0,4.358,4.8851,5.2459,5.2799,5.2778,5.2841,5.3369,5.0204,4.1945,3.986,0.0,0.0,0.0,0.0,0.0,0.0,0.0,0.0,0.0,0.0,0.0,0.0,0.0,0.0,0.0,0.0,0.0,0.0,0.0,0.0,0.0,0.0,0.0,0.0,0.0,0.0,0.0,0.0,0.0,0.0,0.0,0.0,0.0,0.0,0.0,0.0,0.0,0.0,0.0,0.0,0.0,0.0,0.0,0.0,0.0,0.0,0.0,0.0,0.0,0.0,0.0,0.0,0.0,0.0,0.0,0.0,0.0,0.0,0.0,0.0,0.0,0.0,0.0,0.0,0.0,0.0,0.0,0.0,0.0,0.0,0.0,0.0,0.0,0.0,0.0,0.0,0.0,0.0,0.0,0.0,0.0,0.0,0.0,0.0,0.0,0.0,0.0,0.0,0.0,0.0,0.0,0.0,0.0,0.0,0.0,0.0,0.0,0.0,0.0,0.0,0.0,0.0,4.1589,4.566,5.0098,4.9929,4.9904,5.089,4.9626,4.6723,4.1984,3.902,0.0,0.0,0.0,0.0,0.0,0.0,0.0,0.0,0.0,0.0,0.0,0.0,0.0,0.0,0.0,0.0,0.0,0.0,0.0,0.0,0.0,0.0,0.0,0.0,0.0,0.0,0.0,0.0,0.0,0.0,0.0,0.0,0.0,0.0,0.0,0.0,0.0,0.0,0.0,0.0,0.0,0.0,0.0,0.0,0.0,0.0,0.0,0.0,0.0,0.0,0.0,0.0,0.0,0.0,0.0,0.0,0.0,0.0,0.0,0.0,0.0,0.0,0.0,0.0,0.0,0.0,0.0,0.0,0.0,0.0,0.0,0.0,0.0,0.0,0.0,0.0,0.0,0.0,0.0,0.0,0.0,0.0,0.0,0.0,0.0,0.0,0.0,0.0,0.0,0.0,0.0,0.0,0.0,0.0,0.0,0.0,0.0,0.0,0.0,0.0,0.0,0.0,3.5501,4.1127,4.8049,4.8721,4.878,4.9084,4.8651,4.6179,4.0948,3.8033,0.0,0.0,0.0,0.0,0.0,0.0,0.0,0.0,0.0,0.0,0.0,0.0,0.0,0.0,0.0,0.0,0.0,0.0,0.0,0.0,0.0,0.0,0.0,0.0,0.0,0.0,0.0,0.0,0.0,0.0,0.0,0.0,0.0,0.0,0.0,0.0,0.0,0.0,0.0,0.0,0.0,0.0,0.0,0.0,0.0,0.0,0.0,0.0,0.0,0.0,0.0,0.0,0.0,0.0,0.0,0.0,0.0,0.0,0.0,0.0,0.0,0.0,0.0,0.0,0.0,0.0,0.0,0.0,0.0,0.0,0.0,0.0,0.0,0.0,0.0,0.0,0.0,0.0,0.0,0.0,0.0,0.0,0.0,0.0,0.0,0.0,0.0,0.0,0.0,0.0,0.0,0.0,0.0,0.0,0.0,0.0,0.0,0.0,0.0,0.0,0.0,0.0,0.0,3.6557,4.5307,4.755,4.8217,4.7662,4.8512,4.6297,3.9716,0.0,0.0,0.0,0.0,0.0,0.0,0.0,0.0,0.0,0.0,0.0,0.0,0.0,0.0,0.0,0.0,0.0,0.0,0.0,0.0,0.0,0.0,0.0,0.0,0.0,0.0,0.0,0.0,0.0,0.0,0.0,0.0,0.0,0.0,0.0,0.0,0.0,0.0,0.0,0.0,0.0,0.0,0.0,0.0,0.0,0.0,0.0,0.0,0.0,0.0,0.0,0.0,0.0,0.0,0.0,0.0,0.0,0.0,0.0,0.0,0.0,0.0,0.0,0.0,0.0,0.0,0.0,0.0,0.0,0.0,0.0,0.0,0.0,0.0,0.0,0.0,0.0,0.0,0.0,0.0,0.0,0.0,0.0,0.0,0.0,0.0,0.0,0.0,0.0,0.0,0.0,0.0,0.0,0.0,0.0,0.0,0.0,0.0,0.0,0.0,0.0,0.0,0.0,0.0,3.4229,3.9364,4.3569,4.6454,4.7517,4.6016,4.3401,3.968,0.0,0.0,0.0,0.0,0.0,0.0,0.0,0.0,0.0,0.0,0.0,0.0,0.0,0.0]}]]]